     2              OBSERVATION DATA    GPS                 RINEX VERSION / TYPE
TRRINEXO-V2.3.1-LH UCLA/SCEC 25-FEB-1994                    PGM / RUN BY / DATE
                                                            COMMENT
Original Marker Name: CALABASAS RE 62 1933                  COMMENT
Campaign Name: Northridge 1994                              COMMENT
4-Character Station Name: CALA                              COMMENT
6-Character Antenna Code: TRMSST                            COMMENT
Vertical Measurement Point: TGP                             COMMENT
Vertical Offset to Rinex Ref. Point: 0.0629                 COMMENT
Radial Measurement Point: IGP                               COMMENT
Radial Offset to Rinex Ref. Point: 0.2403                   COMMENT
Antenna Height from Field Measurement: 1.6425 m             COMMENT
1994 046 Eyepiece off by 1mm; plumb bob off by 3mm          COMMENT
Original XYZ: -2533550.5521 -4638074.2977 3559561.3480      COMMENT
New XYZ position is based on association with SCEC monument COMMENT
E1C7Y9N6+0011. Position of that monument is believed to be  COMMENT
valid to within 1 m horizontally; vertical accuracy         COMMENT
should be no worse than 3-times this value.                 COMMENT
                                                            COMMENT
Revised Rinex header created by UCSD GPS archive for        COMMENT
GSAC on 10-Apr-1999 (1999:100) 01:12:04 GMT                 COMMENT
For assistance contact dagnew@ucsd.edu or hjohnson@ucsd.edu COMMENT
                                                            COMMENT
CALABASAS RE 62 1933                                        MARKER NAME
Z. SHEN UCLA                                                OBSERVER / AGENCY
497 TRIMBLE 4000 SST 4.81                                   REC # / TYPE / VERS
129 TR 4000SST L1/L2 GEO                                    ANT # / TYPE
 -2533555.0000 -4638069.0000  3559574.0000                  APPROX POSITION XYZ
        1.5619        0.0000        0.0000                  ANTENNA: DELTA H/E/N
     1     2     0                                          WAVELENGTH FACT L1/2
     3    C1    L1    L2                                    # / TYPES OF OBSERV
    30                                                      INTERVAL
  1994     2    13    10     0   30.000000                  TIME OF FIRST OBS
  1994     2    13    23    59   30.000000                  TIME OF LAST OBS
     0                                                      # OF SATELLITES
                                                            END OF HEADER
 94  2 13 10  0 30.0000000  0  8 17 22 20 21 26 16  3 23
  20868151.125          -0.79217
  23802748.703          -0.29715
  24938991.820          -0.88713
  24132507.977          -0.66515
  22703971.211          -0.49616
  24868394.117          -0.01415
  20659345.211          -0.34517
  21342933.680          -0.38717
 94  2 13 10  1  0.0000000  0  8 17 22 20 21 26 16  3 23
  20864306.133      -20205.372 7        -0.27919
  23796128.227      -34781.647 5
  24955787.250       88276.950 3
  24111970.195     -107916.629 5
  22701408.570      -13440.272 6        -0.32317
  24884976.375       87104.481 5
  20653076.570      -32949.918 7        -0.24118
  21330787.430      -63830.631 7        -0.09719
 94  2 13 10  1 30.0000000  0  8 17 22 20 21 26 16  3 23
  20860506.563      -40176.081 7    -15561.875 9
  23789609.773      -69040.618 5        -0.34315
  24972576.742      176470.363 3        -0.11912
  24091478.875     -215608.158 5        -0.46514
  22698965.344      -26311.397 6    -10029.755 7
  24901550.922      174225.867 5        -0.31814
  20646878.906      -65504.853 7    -25367.725 8
  21318718.461     -127252.503 7    -49419.732 9
 94  2 13 10  2  0.0000000  0  8 17 22 20 21 26 16  3 23
  20856750.953      -59902.942 7    -30933.453 9
  23783189.805     -102770.838 5    -26283.629 5
  24989338.953      264576.494 3     68654.027 1
  24071028.805     -323065.763 5    -83733.662 4
  22696626.727      -38604.177 6    -19608.543 6
  24918137.523      261351.013 5     67889.427 4
  20640757.523      -97663.335 7    -50426.295 8
  21306728.063     -190262.362 7    -98518.313 9
 94  2 13 10  2 30.0000000  0  8 17 22 20 21 26 16  3 23
  20853042.937      -79391.575 7    -46119.399 9
  23776875.016     -135963.133 5    -52147.753 5
  25006088.773      352594.678 3    137239.604 2
  24050628.656     -430292.844 5   -167287.211 5
  22694397.164      -50321.403 6    -28738.829 7
  24934710.695      348488.895 5    135789.084 4
  20634714.344     -129421.237 7    -75172.709 8
  21294818.070     -252854.887 7   -147291.695 9
 94  2 13 10  3  0.0000000  0  8 17 22 20 21 26 16  3 23
  20849377.516      -98656.152 7    -61130.752 9
  23770662.852     -168606.838 5    -77584.422 5
  25022815.930      440519.797 3    205752.698 1
  24030259.945     -537290.339 5   -250661.859 5
  22692271.500      -61470.387 6    -37426.340 7
  24951305.234      435646.176 5    203703.869 4
  20628749.664     -160778.656 7    -99607.063 8
  21282990.828     -315007.685 7   -195722.437 9
 94  2 13 10  3 30.0000000  0  8 17 22 20 21 26 16  3 23
  20845753.875     -117693.839 7    -75965.318 9
  23764553.000     -200712.705 5   -102601.986 5
  25039533.758      528351.090 3    274192.666 2
  24009942.063     -644077.365 5   -333872.513 5
  22690256.922      -72053.899 6    -45673.214 7
  24967896.383      522839.121 5    271646.438 4
  20622860.711     -191732.161 7   -123726.680 8
  21271248.750     -376709.006 7   -243801.384 9
 94  2 13 10  4  0.0000000  0  6 17 22 21 26  3 23
  20842178.961     -136500.622 7    -90619.948 9
  23758541.141     -232288.126 5   -127206.217 5
  23989656.727     -750672.014 5   -416933.260 5
  22688348.125      -82082.262 6    -53487.519 7
  20617043.445     -222278.368 7   -147528.924 8
  21259593.570     -437958.592 7   -291528.323 9
 94  2 13 10  4 30.0000000  0  6 17 22 21 26  3 23
  20838640.398     -155088.740 7   -105104.195 9
  23752635.070     -263340.682 5   -151403.016 5
  23969411.070     -857082.625 5   -499850.604 5
  22686545.813      -91555.586 6    -60869.320 7
  20611312.344     -252418.785 7   -171014.964 8
  21248024.781     -498748.498 7   -338897.077 9
 94  2 13 10  5  0.0000000  0  6 17 22 21 26  3 23
  20835147.273     -173452.933 7   -119413.953 9
  23746821.648     -293870.456 5   -175192.451 5
  23949193.500     -963309.282 5   -582624.606 5
  22684851.398     -100463.513 6    -67810.556 6
  20605652.859     -282151.255 7   -194183.123 8
  21236543.500     -559082.436 7   -385910.532 9
 94  2 13 10  5 30.0000000  0  6 17 22 21 26  3 23
  20831692.750     -191601.053 7   -133555.349 9
  23741116.930     -323881.865 5   -198577.966 5
  23929014.602    -1069361.036 5   -665262.321 5
  22683265.766     -108806.460 6    -74311.541 6
  20600071.641     -311473.683 7   -217031.771 8
  21225143.875     -618988.435 7   -432590.511 9
 94  2 13 10  6  0.0000000  0  6 17 22 21 26  3 23
  20828278.742     -209541.482 7   -147534.905 9
  23735496.594     -353380.907 5   -221564.256 5
  23908868.836    -1175238.563 5   -747764.262 4
  22681783.883     -116585.262 6    -80372.935 6
  20594569.195     -340386.036 7   -239560.878 8
  21213821.328     -678493.120 7   -478957.801 9
 94  2 13 10  6 30.0000000  0  6 17 22 21 26  3 23
  20824903.789     -227283.267 7   -161359.668 9
  23729985.984     -382368.944 5   -244152.342 4
  23888756.133    -1280939.107 5   -830128.303 4
  22680412.344     -123789.554 6    -85986.673 7
  20589145.625     -368888.153 7   -261770.317 8
  21202571.133     -737610.001 7   -525022.897 9
 94  2 13 10  7  0.0000000  0  6 17 22 21 26  3 23
  20821567.367     -244819.193 7   -175024.031 9
  23724570.438     -410838.998 5   -266336.792 5
  23868674.008    -1386456.293 5   -912349.478 4
  22679148.961     -130425.747 6    -91157.718 6
  20583799.609     -396975.131 7   -283656.281 8
  21191396.164     -796347.307 7   -570792.216 9
 94  2 13 10  7 30.0000000  0  6 17 22 21 26  3 23
  20818262.938     -262160.172 7   -188536.477 9
  23719248.664     -438801.338 5   -288125.638 5
  23848632.258    -1491781.892 5   -994421.359 4
  22677996.461     -136492.174 6    -95884.795 6
  20578534.148     -424647.094 7   -305218.857 8
  21180290.867     -854700.494 7   -616262.225 9
 94  2 13 10  8  0.0000000  0  6 17 22 21 26  3 23
  20815002.453     -279300.676 7   -201892.713 9
  23714022.445     -466249.430 5
  23828625.656    -1596911.916 5  -1076340.852 4
  22676953.188     -141987.415 6   -100166.796 6
  20573349.617     -451903.751 7
  21169264.719     -912643.409 7   -661412.550 9
 94  2 13 10  8 30.0000000  0  6 17 22 21 26  3 23
  20811780.297     -296237.276 7   -215090.056 9
  23708900.797     -493171.528 5
  23808657.133    -1701835.022 5  -1158099.099 5
  22676013.063     -146921.842 6   -104011.799 6
  20568240.492     -478745.870 7
  21158319.031     -970156.880 7   -706228.232 9
 94  2 13 10  9  0.0000000  0  6 17 22 21 26  3 23
  20808597.281     -312968.475 7   -228127.354 9
  23703877.305     -519568.256 5
  23788734.695    -1806539.850 5  -1239687.262 5
  22675177.398     -151296.268 6   -107420.430 6
  20563213.828     -505168.835 7
  21147459.438    -1027225.450 7   -750697.244 8
 94  2 13 10  9 30.0000000  0  6 17 22 21 26  3 23
  20805452.000     -329493.531 7   -241004.023 9
  23698950.844     -545453.726 5
  23768850.773    -1911041.330 5  -1321116.971 5
  22674453.633     -155110.851 6   -110392.831 6
  20558264.680     -531176.207 7
  21136683.828    -1083851.591 7   -794821.498 9
 94  2 13 10 10  0.0000000  0  6 17 22 21 26  3 23
  20802348.078     -345795.040 7   -253706.502 9
  23694126.680     -570816.862 5   -390995.407 5
  23749002.594    -2015338.424 5  -1402387.424 5
  22673832.563     -158376.847 6   -112937.748 7
  20553397.414     -556760.364 7   -408164.276 8
  21125991.156    -1140038.331 7   -838603.363 8
 94  2 13 10 10 30.0000000  0  6 17 22 21 26  3 23
  20799290.305     -361884.737 7   -266243.928 9
  23689394.805     -595671.704 5   -410362.828 5
  23729191.289    -2119422.165 5  -1483491.624 5
  22673312.031     -161102.893 6   -115061.940 6
  20548606.977     -581925.263 7   -427773.294 8
  21115379.086    -1195806.936 7   -882059.412 8
 94  2 13 10 11  0.0000000  0  6 17 22 21 26  3 23
  20796268.547     -377761.985 7   -278615.808 9
  23684757.023     -620027.401 5   -429341.296 5
  23709424.305    -2223303.023 5  -1564437.748 5
  22672893.648     -163287.088 6   -116763.901 6
  20543895.289     -606672.766 7   -447057.070 8
  21104845.328    -1251170.666 7   -925199.963 8
 94  2 13 10 11 30.0000000  0  6 17 22 21 26  3 23
  20793286.711     -393411.453 7   -290810.198 9
  23680221.992     -643869.150 5   -447919.274 5
  23689700.969    -2326976.467 5  -1645222.228 5
  22672582.984     -164932.035 6   -118045.672 6
  20539271.297     -630995.828 7   -466010.108 8
  21094387.148    -1306130.438 7   -968025.763 8
 94  2 13 10 12  0.0000000  0  6 17 22 21 26  3 23
  20790351.906     -408842.453 7   -302834.360 9
  23675783.578     -667195.797 5   -466095.887 5
  23670009.641    -2430428.408 5  -1725834.124 5
  22672376.023     -166045.901 6   -118913.610 6
  20534719.242     -654895.202 7   -484632.995 8
  21084005.891    -1360685.582 7  -1010536.251 8
 94  2 13 10 12 30.0000000  0  6 17 22 21 26  3 23
  20787456.531     -424054.549 7   -314687.941 9
  23671443.695     -689999.803 5   -483865.249 5
  23650367.617    -2533656.383 5  -1806271.500 5
  22672266.508     -166616.311 6   -119358.078 6
  20530256.141     -678369.412 7   -502924.586 8
  21073701.008    -1414828.404 7  -1052725.449 8
 94  2 13 10 13  0.0000000  0  6 17 22 21 26  3 23
  20784603.227     -439045.763 7   -326369.410 9
  23667204.242     -712279.784 5   -501226.280 5
  23630764.813    -2636675.717 5  -1886546.296 5
  22672264.750     -166640.869 6
  20525869.516     -701416.623 7   -520883.455 8
  21063477.484    -1468555.746 7  -1094590.903 8
 94  2 13 10 13 30.0000000  0  6 17 22 21 26  3 23
  20781790.828     -453826.501 7   -337886.875 9
  23663063.109     -734041.297 5   -518183.322 5
  23611199.641    -2739489.629 5  -1966661.016 5
  22672359.570     -166120.564 6
  20521563.000     -724038.969 7   -538511.264 8
  21053329.391    -1521876.650 7  -1136139.650 8
 94  2 13 10 14  0.0000000  0  6 17 22 21 26  3 23
  20779017.531     -468403.150 7   -349245.299 9
  23659019.938     -755288.174 5   -534739.331 5
  23591675.328    -2842102.242 5  -2046618.886 5
  22672564.375     -165047.796 6   -118135.843 6
  20517341.516     -746230.541 7   -555803.401 8
  21043261.148    -1574787.070 7  -1177368.536 8
 94  2 13 10 14 30.0000000  0  6 17 22 21 26  3 23
  20776279.492     -482787.007 7   -360453.499 9
  23655075.391     -776028.591 5   -550900.720 5
  23572187.906    -2944522.496 5  -2126426.856 5
  22672867.531     -163427.208 6   -116873.037 6
  20513201.352     -767995.628 7   -572763.208 8
  21033270.031    -1627292.538 7  -1218281.872 8
 94  2 13 10 15  0.0000000  0  6 17 22 21 26  3 23
  20773580.031     -496982.188 7   -371514.681 9
  23651219.063     -796280.971 5   -566681.806 5
  23552729.406    -3046751.919 5  -2206086.124 5
  22673280.875     -161264.831 6   -115188.060 7
  20509137.898     -789334.009 7   -589390.528 8
  21023355.617    -1679390.925 7  -1258878.007 8
 94  2 13 10 15 30.0000000  0  6 17 22 21 26  3 23
  20770914.703     -510975.087 7   -382418.240 9
  23647457.625     -816039.199 5   -582077.835 5
  23533312.961    -3148773.336 5  -2285583.326 5
  22673803.594     -158553.174 6   -113075.073 6
  20505163.422     -810238.538 7   -605679.776 8
  21013519.094    -1731074.379 7  -1299150.815 8
 94  2 13 10 16  0.0000000  0  6 17 22 21 26  3 23
  20768293.375     -524769.643 7   -393167.245 9
  23643794.758     -835305.075 5   -597090.218 5
  23513944.719    -3250575.414 5  -2364909.606 5
  22674419.555     -155293.927 6   -110535.389 6
  20501264.539     -830709.082 7   -621630.847 8
  21003765.563    -1782337.279 7  -1339095.922 8
 94  2 13 10 16 30.0000000  0  6 17 22 21 26  3 23
  20765708.203     -538363.917 7   -403760.185 9
  23640227.000     -854068.655 5   -611711.199 5
  23494613.672    -3352151.834 5  -2444060.047 5
  22675140.359     -151488.479 6   -107570.102 6
  20497451.195     -850746.481 7   -637244.406 8
  20994089.844    -1833187.927 7  -1378719.786 8
 94  2 13 10 17  0.0000000  0  6 17 22 21 26  3 23
  20763157.688     -551749.237 7   -414190.303 9
  23636750.133     -872323.143 5   -625935.472 5
  23475326.148    -3453510.385 5  -2523040.727 5
  22675971.656     -147130.744 6   -104174.455 6
  20493723.555     -870349.630 7   -652519.589 8
  20984489.391    -1883637.548 7  -1418031.166 8
 94  2 13 10 17 30.0000000  0  6 17 22 21 26  3 23
  20760653.156     -564924.452 7   -424456.700 9
  23633372.203     -890064.928 5   -639760.254 5
  23456080.445    -3554651.726 5  -2601852.152 5
  22676907.930     -142224.168 6   -100351.141 6
  20490071.898     -889519.897 7   -667457.464 8
  20974962.711    -1933701.144 7  -1457041.747 8
 94  2 13 10 18  0.0000000  0  6 17 22 21 26  3 23
  20758181.898     -577899.644 7   -434567.239 9
  23630095.047     -907294.742 5   -653186.093 5
  23436874.047    -3655581.327 5  -2680498.578 5
  22677942.547     -136771.605 6    -96102.381 6
  20486508.281     -908253.928 7   -682055.418 8
  20965509.453    -1983376.034 6  -1495749.444 8
 94  2 13 10 18 30.0000000  0  6 17 22 21 26  3 23
  20755751.320     -590662.656 7   -444512.441 9
  23626912.852     -924018.923 5   -666217.944 5
  23417700.617    -3756311.893 5  -2758989.911 5
  22679082.742     -130771.826 6    -91427.228 6
  20483029.352     -926548.048 7   -696310.578 8
  20956132.133    -2032657.329 6  -1534150.444 8
 94  2 13 10 19  0.0000000  0  6 17 22 21 26  3 23
  20753363.781     -603217.734 7   -454295.621 9
  23623821.625     -940264.301 5   -678876.677 5
  23398570.828    -3856845.117 5  -2837327.481 5
  22680328.711     -124231.638 6    -86330.968 6
  20479628.445     -944407.140 7   -710226.750 8
  20946830.156    -2081542.910 6  -1572243.088 8
 94  2 13 10 19 30.0000000  0  6 17 22 21 26  3 23
  20751013.461     -615576.535 7   -463925.853 9
  23620820.695     -956039.978 5   -691169.409 5
  23379482.734    -3957172.772 5  -2915504.857 5
  22681677.078     -117155.222 6    -80816.869 6
  20476312.125     -961829.334 7   -723802.490 8
  20937603.805    -2130020.551 6  -1610017.859 8
 94  2 13 10 20  0.0000000  0  6 17 22 21 26  3 23
  20748693.758     -627758.496 7   -473418.288 9
  23617905.141     -971345.292 5   -703095.618 5
  23360426.477    -4057302.808 5  -2993528.249 5
  22683125.414     -109546.056 6    -74887.651 6
  20473082.484     -978813.065 7   -737036.569 8
  20928457.273    -2178085.584 6  -1647471.122 8
 94  2 13 10 20 30.0000000  0  6 17 22 21 26  3 23
  20746409.453     -639763.789 7   -482773.056 9
  23615084.398     -986177.280 5   -714653.020 5
  23341411.781    -4157229.153 5  -3071392.923 5
  22684673.352     -101408.866 6    -68546.969 6
  20469933.477     -995357.888 7   -749928.646 8
  20919389.102    -2225738.967 7  -1684603.614 8
 94  2 13 10 21  0.0000000  0  6 17 22 21 26  3 23
  20744157.227     -651597.856 7   -491994.410 9
  23612353.672    -1000533.783 5   -725839.912 4
  23322437.938    -4256945.689 5  -3149094.118 5
  22686322.023      -92746.971 6    -61797.454 6
  20466868.586    -1011461.098 7   -762476.603 8
  20910400.781    -2272975.876 6  -1721411.586 8
 94  2 13 10 21 30.0000000  0  6 17 22 21 26  3 23
  20741936.102     -663264.937 7   -501085.641 9
  23609710.781    -1014401.924 5   -736646.273 5
  23303501.477    -4356461.772 5  -3226639.111 5
  22688063.430      -83577.124 6    -54652.108 6
  20463891.344    -1027124.143 7   -774681.575 8
  20901490.188    -2319808.212 7  -1757904.295 8
 94  2 13 10 22  0.0000000  0  6 17 22 21 26  3 23
  20739757.648     -674738.833 7   -510026.339 9
  23607164.445    -1027778.080 5   -747069.252 5
  23284602.672    -4455770.727 5  -3304022.699 5
  22689905.047      -73900.920 6    -47112.213 6
  20460991.008    -1042340.837 7   -786538.729 8
  20892652.211    -2366237.864 7  -1794083.230 8
 94  2 13 10 22 30.0000000  0  6 17 22 21 26  3 23
  20737611.773     -685997.808 7   -518799.556 9
  23604712.984    -1040670.542 5   -757115.330 5
  23265745.648    -4554860.027 5  -3381235.123 5
  22691845.438      -63714.341 6    -39174.611 6
  20458182.930    -1057113.364 7   -798049.808 8
  20883893.602    -2412271.923 7  -1829953.912 8
 94  2 13 10 23  0.0000000  0  6 17 22 21 26  3 23
  20735512.227     -697031.035 7   -527396.881 9
  23602351.664    -1053081.158 5   -766785.960 5
  23246932.063    -4653734.470 5  -3458280.132 5
  22693880.813      -53020.601 6    -30841.821 6
  20455455.570    -1071440.767 7   -809214.026 8
  20875206.891    -2457920.588 7  -1865524.285 8
 94  2 13 10 23 30.0000000  0  6 17 22 21 26  3 23
  20733452.289     -707847.102 7   -535824.987 9
  23600083.391    -1065005.286 5   -776077.500 5
  23228157.039    -4752383.843 5  -3535149.769 6
  22696011.859      -41811.806 6    -22107.696 6
  20452816.516    -1085323.947 7   -820032.094 8
  20866591.883    -2503198.779 7  -1900805.979 8
 94  2 13 10 24  0.0000000  0  6 17 22 21 26  3 23
  20731434.969     -718453.701 7   -544089.870 9
  23597902.805    -1076448.488 5   -784994.281 5
  23209431.813    -4850789.166 5  -3611829.236 6
  22698249.031      -30054.863 6    -12946.430 6
  20450259.328    -1098756.428 7   -830498.964 8
  20858046.984    -2548098.571 7  -1935792.817 8
 94  2 13 10 24 30.0000000  0  6 17 22 21 26  3 23
  20729451.555     -728881.164 7   -552215.167 9
  23595821.406    -1087404.299 5   -793531.279 5
  23190750.883    -4948959.330 5  -3688325.449 5
  22700595.805      -17744.984 6     -3354.315 7
  20447784.180    -1111738.639 7   -840614.972 8
  20849575.578    -2592616.609 7  -1970482.186 8
 94  2 13 10 25  0.0000000  0  6 17 22 21 26  3 23
  20727496.500     -739142.135 7
  23593831.250    -1097856.461 5
  23172113.602    -5046891.693 6  -3764636.357 6
  22703043.047       -4879.850 6      6670.472 6
  20445406.695    -1124262.566 7   -850373.882 8
  20841179.148    -2636733.396 7  -2004858.889 8
 94  2 13 10 25 30.0000000  0  6 17 22 21 26  3 23
  20725571.727     -749253.187 7   -568089.476 9
  23591936.930    -1107819.463 5   -809439.212 5
  23153522.148    -5144594.682 5  -3840768.552 5
  22705598.742        8548.311 6     17133.975 7
  20443108.141    -1136332.155 7   -859778.763 8
  20832860.828    -2680450.959 7  -2038924.519 8
 94  2 13 10 26  0.0000000  0  6 17 22 21 26  3 23
  20723679.508     -759200.149 7   -575840.346 9
  23590136.398    -1117290.475 5   -816819.211 5
  23134970.891    -5242091.754 5  -3916740.283 6
  22708256.555       22530.404 6     28029.117 7
  20440896.688    -1147943.867 7   -868826.853 8
  20824622.227    -2723753.138 7  -2072666.462 8
 94  2 13 10 26 30.0000000  0  6 17 22 21 26  3 23
  20721821.836     -768963.522 7   -583448.169 9
  23588420.406    -1126281.468 5   -823825.190 5
  23116450.977    -5339406.160 6  -3992569.676 5
  22711014.438       37036.930 6     39332.906 7
  20438778.281    -1159097.654 7   -877518.118 8
  20816457.250    -2766642.063 7  -2106086.396 8
 94  2 13 10 27  0.0000000  0  6 17 22 21 26  3 23
  20720006.063     -778513.686 7   -590889.854 9
  23586799.859    -1134809.831 5   -830470.680 5
  23097970.672    -5436538.556 6  -4068257.252 5
  22713878.867       52075.935 6     51051.616 6
  20436739.922    -1169790.598 7   -885850.291 8
  20808373.898    -2809131.123 7  -2139194.747 8
 94  2 13 10 27 30.0000000  0  6 17 22 21 26  3 23
  20718231.258     -787836.122 7   -598154.095 9
  23585266.859    -1142884.990 5   -836763.018 5
  23079519.844    -5533487.368 6  -4143801.767 6
  22716842.313       67646.119 6     63184.227 7
  20434793.484    -1180016.886 7   -893818.837 8
  20800363.109    -2851233.222 7  -2172001.578 8
 94  2 13 10 28  0.0000000  0  7 17 22 28 21 26  3 23
  20716499.422     -796927.122 7   -605237.988 9
  23583813.648    -1150502.420 5   -842698.682 5
  24827036.039          -0.66313
  23061106.492    -5630254.363 6  -4219204.610 6
  22719900.977       83720.785 6     75709.939 6
  20432938.922    -1189781.615 7   -901427.724 8
  20792421.078    -2892958.804 7  -2204515.012 8
 94  2 13 10 28 30.0000000  0  7 17 22 28 21 26  3 23
  20714814.055     -805789.536 7   -612143.765 9
  23582455.352    -1157660.531 5   -848276.434 5
  24803675.734     -122760.053 3        -0.04911
  23042728.742    -5726821.816 6  -4294451.959 6
  22723051.852      100299.145 6     88628.138 6
  20431167.898    -1199084.158 7   -908676.465 8
  20784548.492    -2934324.231 7  -2236747.805 8
 94  2 13 10 29  0.0000000  0  7 17 22 28 21 26  3 23
  20713172.695     -814428.386 7
  23581180.313    -1164326.710 5   -853470.862 5
  24780333.203     -245458.756 3    -95609.404 3
  23024395.898    -5823168.200 6  -4369527.059 6
  22726308.211      117391.445 6    101946.819 6
  20429485.133    -1207914.644 7
  20776749.945    -2975310.667 7  -2268685.284 8
 94  2 13 10 29 30.0000000  0  7 17 22 28 21 26  3 23
  20711565.273     -822860.234 7   -625445.610 9
  23580011.781    -1170486.914 5   -858271.014 5
  24756994.898     -368102.859 3   -191176.242 2
  23006106.437    -5919284.930 6  -4444423.209 6
  22729656.266      134975.128 6    115648.397 6
  20427894.125    -1216272.673 7   -922070.123 8
  20769027.797    -3015903.714 7  -2300316.219 8
 94  2 13 10 30  0.0000000  0  7 17 22 28 21 26  3 23
  20709999.422     -831089.110 7   -631857.716 9
  23578933.133    -1176139.206 5   -862675.428 5
  24733665.313     -490701.053 3   -286707.290 2
  22987858.039    -6015174.822 6  -4519142.591 6
  22733093.977      153046.354 6    129729.872 6
  20426396.117    -1224157.446 7   -928214.102 8
  20761380.781    -3056086.676 7  -2331627.612 8
 94  2 13 10 30 30.0000000  0  7 17 22 28 21 26  3 23
  20708473.383     -839135.377 7   -638127.538 9
  23577951.625    -1181305.248 5   -866700.920 5
  24710337.414     -613268.029 3   -382214.017 2
  22969654.188    -6110832.451 6  -4593680.994 6
  22736625.664      171613.001 6    144197.388 6
  20424982.375    -1231568.181 7   -933988.710 8
  20753812.133    -3095851.257 7  -2362612.997 8
 94  2 13 10 31  0.0000000  0  7 17 22 28 21 26  3 23
  20706970.047     -847002.747 7   -644257.955 9
  23577060.070    -1185993.966 5   -870354.480 5
  24687018.156     -735809.582 3   -477700.953 2
  22951498.977    -6206245.587 6  -4668028.877 6
  22740258.328      190684.577 6    159058.359 6
  20423666.977    -1238502.042 7   -939391.727 8
  20746328.727    -3135186.023 7  -2393263.449 8
 94  2 13 10 31 30.0000000  0  7 17 22 28 21 26  3 23
  20705510.117     -854683.276 7   -650242.782 9
  23576256.484    -1190222.549 5   -873649.498 5
  24663703.359     -858333.172 3   -573173.907 3
  22933390.500    -6301402.129 6  -4742176.821 6
  22743982.602      210265.176 6    174315.965 6
  20422437.734    -1244957.980 7   -944422.328 8
  20738920.945    -3174104.390 7  -2423589.440 8
 94  2 13 10 32  0.0000000  0  7 17 22 28 21 26  3 23
  20704084.781     -862176.436 7   -656081.607 9
  23575538.734    -1194003.735 5   -876595.883 5
  24640392.797     -980824.879 3   -668621.975 1
  22915330.953    -6396296.298 6  -4816120.319 6
  22747804.781      230367.616 6    189980.209 6
  20421301.008    -1250932.970 7   -949078.171 8
  20731590.555    -3212621.025 7  -2453602.398 8
 94  2 13 10 32 30.0000000  0  7 17 22 28 21 26  3 23
  20702694.813     -869476.120 7   -661769.678 9
  23574899.922    -1197335.669 5   -879192.197 5
  24617093.938    -1103264.060 3   -764029.140 2
  22897326.750    -6490922.169 6  -4889854.758 6
  22751734.727      251008.962 6    206064.375 6
  20420257.281    -1256426.203 7   -953358.620 8
  20724333.664    -3250750.615 7  -2483313.759 8
 94  2 13 10 33  0.0000000  0  7 17 22 28 21 26  3 23
  20701348.844     -876563.979 7   -667292.689 9
  23574356.297    -1200201.700 5   -881425.464 5
  24593807.633    -1225628.560 3   -859378.101 3
  22879368.203    -6585288.376 6  -4963386.849 6
  22755764.766      272192.416 6    222570.971 7
  20419300.313    -1261433.169 7   -957260.156 8
  20717153.305    -3288499.343 7  -2512728.344 8
 94  2 13 10 33 30.0000000  0  7 17 22 28 21 26  3 23
  20700037.266     -883435.802 7   -672647.355 9
  23573898.195    -1202602.691 5   -883296.378 5
  24570537.609    -1347902.247 3   -954656.282 1
  22861455.625    -6679416.002 6  -5036733.046 6
  22759897.484      293906.624 6    239491.130 6
  20418443.633    -1265952.865 7   -960782.002 8
  20710040.789    -3325877.919 7  -2541854.500 8
 94  2 13 10 34  0.0000000  0  7 17 22 28 21 26  3 23
  20698773.086     -890099.275 7   -677839.675 9
  23573531.258    -1204528.011 5   -884796.629 5
  24547291.523    -1470077.000 4  -1049857.376 3
  22843586.828    -6773324.578 6  -5109908.555 6
  22764129.086      316155.277 6    256827.743 6
  20417674.188    -1269983.971 7   -963923.126 8
  20702998.203    -3362882.865 7  -2570689.515 8
 94  2 13 10 34 30.0000000  0  7 17 22 28 21 26  3 23
  20697549.820     -896544.659 7   -682862.053 9
  23573264.180    -1205952.571 5   -885906.666 5
  24524062.883    -1592144.619 4  -1144975.027 1
  22825757.211    -6867022.267 6  -5182919.721 6
  22768467.859      338942.638 6    274584.124 6
  20416999.789    -1273517.952 7   -966676.889 8
  20696027.070    -3399499.487 7  -2599221.939 8
 94  2 13 10 35  0.0000000  0  7 17 22 28 21 26  3 23
  20696359.406     -902785.489 7   -687725.044 9
  23573084.125    -1206879.232 5   -886628.738 5
  24500847.852    -1714123.446 3  -1240023.482 3
  22807967.031    -6960508.998 6  -5255766.523 6
  22772904.242      362242.973 6    292740.225 6
  20416422.648    -1276560.226 7   -969047.500 8
  20689134.023    -3435738.181 7  -2627459.880 8
 94  2 13 10 35 30.0000000  0  7 17 22 28 21 26  3 23
  20695209.422     -908820.736 7   -692427.838 9
  23573005.852    -1207302.591 5
  24477654.477    -1836017.352 4  -1335005.738 2
  22790219.156    -7053765.301 6  -5328433.769 6
  22777435.523      386057.073 6    311296.675 6
  20415937.773    -1279104.341 7   -971029.932 8
  20682312.727    -3471584.231 7  -2655391.858 8
 94  2 13 10 36  0.0000000  0  7 17 22 28 21 26  3 23
  20694099.406     -914660.339 7   -696978.178 9
  23573022.195    -1207228.334 5
  24454472.719    -1957838.601 4  -1429931.408 2
  22772519.242    -7146781.659 6  -5400914.040 6
  22782063.922      410387.360 6    330255.346 6
  20415548.883    -1281151.823 7   -972625.374 8
  20675568.609    -3507021.675 7  -2683005.441 8
 94  2 13 10 36 30.0000000  0  7 17 22 28 21 26  3 23
  20693024.813     -920304.238 7   -701376.018 9
  23573120.883    -1206681.020 5   -886474.256 5
  24431310.438    -2079585.628 4  -1524799.217 2
  22754871.086    -7239532.149 6  -5473187.140 6
  22786790.180      435228.875 6    349612.372 6
  20415256.836    -1282701.018 7   -973832.549 8
  20668901.891    -3542044.456 7  -2710295.914 8
 94  2 13 10 37  0.0000000  0  7 17 22 28 21 26  3 23
  20691986.391     -925763.461 7   -705629.952 9
  23573313.555    -1205691.249 5   -885703.044 5
  24408154.313    -2201259.422 4  -1619609.972 3
  22737273.922    -7331996.191 6  -5545237.034 6
  22791609.602      460574.351 6    369362.094 6
  20415056.273    -1283751.783 7   -974651.336 8
  20662319.406    -3576646.804 7  -2737258.783 8
 94  2 13 10 37 30.0000000  0  7 17 22 28 21 26  3 23
  20690980.172     -931038.426 7   -709740.323 9
  23573582.750    -1204281.450 5   -884604.485 5
  24385010.875    -2322855.656 3  -1714360.278 3
  22719731.797    -7424179.744 6  -5617068.369 6
  22796532.234      486430.984 6    389510.117 6
  20414952.555    -1284300.358 7   -975078.797 8
  20655818.563    -3610811.939 7  -2763880.956 8
 94  2 13 10 38  0.0000000  0  7 17 22 28 21 26  3 23
  20690010.438     -936128.763 7   -713706.820 9
  23573919.453    -1202471.178 5   -883193.903 5
  24361891.609    -2444374.735 4  -1809050.478 4
  22702241.867    -7516094.801 6  -5688690.491 6
  22801553.523      512799.963 6    410057.373 6
  20414944.273    -1284349.137 7
  20649397.148    -3644568.985 7  -2790185.138 8
 94  2 13 10 38 30.0000000  0  7 17 22 28 21 26  3 23
  20689084.336     -941014.065 7   -717513.548 9
  23574343.453    -1200248.765 5   -881462.161 5
  24338778.859    -2565804.275 4  -1903670.898 2
  22684801.477    -7607742.500 6  -5760104.282 6
  22806671.180      539689.240 6    431010.050 6
  20415027.914    -1283889.644 7
  20643044.313    -3677937.917 7  -2816186.902 8
 94  2 13 10 39  0.0000000  0  7 17 22 28 21 26  3 23
  20688196.648     -945675.238 7   -721145.630 9
  23574851.992    -1197594.470 5   -879393.893 5
  24315692.516    -2687144.093 4  -1998221.406 3
  22667407.109    -7699154.265 6  -5831334.228 6
  22811886.758      567104.429 6    452372.539 6
  20415214.180    -1282921.380 7   -974004.286 8
  20636767.805    -3710927.103 7  -2841892.755 8
 94  2 13 10 39 30.0000000  0  7 17 22 28 21 26  3 23
  20687354.492     -950085.704 7   -724582.355 9
  23575445.250    -1194483.556 5   -876969.803 5
  24292620.906    -2808393.072 4  -2092701.133 3
  22650051.844    -7790348.140 6  -5902394.388 6
  22817203.609      595049.739 6    474148.107 6
  20415497.172    -1281444.408 7   -972853.409 8
  20630560.195    -3743550.782 7  -2867313.795 8
 94  2 13 10 40  0.0000000  0  7 17 22 28 21 26  3 23
  20686565.586     -954232.872 7   -727813.916 9
  23576132.055    -1190889.062 5   -874168.933 5
  24269565.359    -2929539.111 4  -2187100.654 3
  22632741.031    -7881318.114 6  -5973280.080 6
  22822620.086      623522.522 6    496334.691 6
  20415875.281    -1279458.717 7   -971306.120 8
  20624417.414    -3775820.186 7  -2892458.781 8
 94  2 13 10 40 30.0000000  0  7 17 22 28 21 26  3 23
  20685826.555     -958118.796 7   -730841.914 9
  23576905.773    -1186798.774 5   -870981.712 5
  24246534.492    -3050578.372 4  -2281416.949 2
  22615473.305    -7972054.048 6  -6043983.396 6
  22828138.773      652512.850 6    518924.556 6
  20416349.156    -1276963.760 7   -969362.008 8
  20618348.891    -3807712.260 7  -2917309.739 8
 94  2 13 10 41  0.0000000  0  7 17 22 28 21 26  3 23
  20685138.117     -961758.434 7   -733677.993 9
  23577773.430    -1182219.537 5   -867413.467 5
  24223519.992    -3171504.073 4  -2375644.773 3
  22598254.461    -8062545.939 6  -6114496.552 6
  22833751.461      682014.315 6    541912.715 6
  20416914.359    -1273957.660 7   -967019.600 8
  20612355.336    -3839208.667 7  -2941852.392 8
 94  2 13 10 41 30.0000000  0  7 17 22 28 21 26  3 23
  20684487.352     -965172.318 7   -736338.165 9
  23578740.383    -1177161.685 5   -863472.285 5
  24200537.883    -3292310.767 4  -2469779.854 4
  22581087.406    -8152763.200 6  -6184795.700 6
  22839462.656      712016.053 6    565290.692 6
  20417589.852    -1270439.275 7   -964278.004 8
  20606439.359    -3870301.008 7  -2966080.185 8
 94  2 13 10 42  0.0000000  0  7 17 22 28 21 26  3 23
  20683876.023     -968383.786 7   -738840.610 9
  23579790.328    -1171640.321 5   -859169.951 5
  24177567.977    -3412987.264 4  -2563813.488 2
  22563976.313    -8242691.841 6  -6254869.967 6
  22845265.617      742522.136 6    589061.664 6
  20418355.563    -1266406.260 7   -961135.401 8
  20600600.164    -3900978.616 7  -2989984.804 8
 94  2 13 10 42 30.0000000  0  7 17 22 28 21 26  3 23
  20683299.219     -971402.812 7   -741193.103 9
  23580923.844    -1165672.328 5   -854519.578 5
  24154629.078    -3533530.873 3  -2657743.567 2
  22546915.313    -8332342.530 6  -6324727.633 6
  22851164.320      773524.177 6    613219.088 6
  20419219.195    -1261856.002 7   -957589.760 8
  20594846.836    -3931234.108 7  -3013560.497 8
 94  2 13 10 43  0.0000000  0  7 17 22 28 21 26  3 23
  20682762.531     -974237.615 7   -743402.045 9
  23582143.813    -1159259.329 5   -849522.448 5
  24131716.430    -3653945.181 3  -2751572.893 4
  22529906.469    -8421730.363 6  -6394380.470 6
  22857155.969      805006.917 6    637751.094 6
  20420185.352    -1256794.335 7   -953645.610 8
  20589163.500    -3961080.508 7  -3036817.427 8
 94  2 13 10 43 30.0000000  0  7 17 22 28 21 26  3 23
  20682256.406     -976880.267 7   -745461.250 9
  23583449.945    -1152404.470 5   -844181.022 5
  24108824.109    -3774237.916 3  -2845307.507 4
  22512944.664    -8510862.985 6  -6463834.458 6
  22863237.734      836965.602 6    662653.962 6
  20421246.609    -1251225.335 7   -949306.132 8
  20583562.227    -3990528.900 7  -3059764.226 8
 94  2 13 10 44  0.0000000  0  7 17 22 28 21 26  3 23
  20681792.820     -979320.762 7   -747362.938 9
  23584841.711    -1145115.375 5   -838501.237 5
  24085958.633    -3894409.526 3  -2938947.708 3
  22496029.188    -8599766.807 6  -6533110.160 6
  22869412.883      869403.475 6    687930.238 6
  20422398.031    -1245147.072 7   -944569.828 9
  20578029.102    -4019596.348 7  -3082414.179 8
 94  2 13 10 44 30.0000000  0  7 17 22 28 21 26  3 23
  20681374.250     -981548.930 7   -749099.177 9
  23586308.500    -1137386.669 5   -832478.867 5
  24063115.406    -4014464.176 4  -3032496.778 5
  22479150.633    -8688442.415 6  -6602208.029 6
  22875675.727      902316.963 6    713577.107 6
  20423654.594    -1238552.087 7   -939430.880 8
  20572570.789    -4048278.061 7  -3104763.563 8
 94  2 13 10 45  0.0000000  0  7 17 22 28 21 26  3 23
  20680986.211     -983559.748 7   -750666.054 9
  23587862.641    -1129218.326 5   -826113.941 5
  24040288.258    -4134400.989 3  -3125954.020 5
  22462322.430    -8776877.767 6  -6671118.684 6
  22882031.492      935719.394 6    739604.974 6
  20425008.859    -1231439.927 7   -933888.948 8
  20567185.266    -4076580.668 7  -3126817.535 8
 94  2 13 10 45 30.0000000  0  7 17 22 28 21 26  3 23
  20680649.781     -985350.682 7   -752061.588 9
  23589499.758    -1120634.750 5   -819425.469 5
  24017490.172    -4254207.408 4  -3219309.659 5
  22445541.594    -8865062.066 6  -6739833.713 6
  22888482.094      969618.548 6    766019.897 6
  20426458.547    -1223808.425 7   -927942.330 8
  20561871.836    -4104500.815 7  -3148573.488 8
 94  2 13 10 46  0.0000000  0  7 17 22 28 21 26  3 23
  20680349.250     -986923.438 7   -753287.113 9
  23591210.188    -1111628.722 5   -812407.780 5
  23994721.898    -4373865.476 4  -3312549.702 5
  22428810.367    -8952981.498 6  -6808342.350 6
  22895029.594     1004003.653 6    792813.484 6
  20428012.164    -1215655.371 7   -921589.305 8
  20556630.523    -4132041.289 7  -3170033.591 8
 94  2 13 10 46 30.0000000  0  7 17 22 28 21 26  3 23
  20680087.063     -988289.370 7   -754351.482 9
  23593006.547    -1102187.965 5   -805051.353 5
  23971979.289    -4493373.049 4  -3405672.485 4
  22412134.867    -9040618.799 6  -6876631.140 6
  22901658.633     1038857.649 6    819972.443 6
  20429663.234    -1206985.820 7   -914833.826 8
  20551464.945    -4159197.411 7  -3191194.203 8
 94  2 13 10 47 29.9990000  0  7 17 22 28 21 26  3 23
  20679696.370     -990343.072 7   -755951.776 9
  23596853.472    -1081984.009 5   -789308.037 4
  23926597.940    -4731865.736 5  -3591510.930 4
  22378946.612    -9215010.805 6  -7012521.003 6
  22915200.394     1110004.454 6    875411.519 6
  20433261.808    -1188076.245 7   -900099.118 8
  20541345.276    -4212366.595 7  -3232624.713 8
 94  2 13 10 47 59.9990000  0  7 17 22 28 21 26  3 23
  20679561.159     -991030.635 7   -756487.533 9
  23598899.753    -1071216.943 5   -780918.108 5
  23903944.612    -4850877.695 5  -3684247.513 5
  22362433.487    -9301791.938 6  -7080142.657 6
  22922105.800     1146294.831 6    903689.736 6
  20435209.175    -1177840.082 7   -892122.887 8
  20536395.737    -4238391.114 7  -3252903.556 8
 94  2 13 10 48 29.9990000  0  7 17 22 28 21 26  3 23
  20679478.589     -991486.939 7   -756843.105 9
  23601034.620    -1060012.674 5   -772187.522 5
  23881324.151    -4969737.385 4  -3776865.448 5
  22345969.753    -9388316.591 6  -7147564.471 6
  22929103.878     1183088.531 6    932360.150 6
  20437258.683    -1167077.745 7   -883736.666 8
  20531513.636    -4264034.128 7  -3272885.122 8
 94  2 13 10 48 59.9990000  0  7 17 22 28 21 26  3 23
  20679440.034     -991698.920 7
  23603249.550    -1048387.066 5   -763128.616 5
  23858737.808    -5088449.688 5  -3869368.539 4
  22329550.706    -9474597.344 6  -7214796.212 6
  22936201.120     1220398.039 6    961432.499 6
  20439404.347    -1155787.247 7   -874938.884 8
  20526706.550    -4289291.028 7  -3292565.820 8
 94  2 13 10 49 29.9990000  0  7 17 22 28 21 26  3 23
  20679444.948     -991675.459 7
  23605542.425    -1036329.640 5   -753733.210 4
  23836175.878    -5207017.526 5  -3961759.072 4
  22313178.964    -9560637.791 6  -7281840.704 6
  22943399.394     1258211.987 6    990897.916 6
  20441652.104    -1143968.313 7   -865729.335 8
  20521976.784    -4314154.187 7  -3311939.703 8
 94  2 13 10 49 59.9990000  0  7 17 22 28 21 26  3 23
  20679489.120     -991424.060 7
  23607915.987    -1023837.209 5
  23813645.667    -5325430.526 5  -4054028.934 4
  22296851.144    -9646438.172 6  -7348698.133 6
  22950689.034     1296514.645 6   1020744.144 6
  20444005.558    -1131620.826 7
  20517320.753    -4338624.695 7  -3331007.622 8
 94  2 13 10 50 29.9990000  0  7 17 22 28 21 26  3 23
  20679582.644     -990955.719 7   -756429.177 9
  23610371.190    -1010918.326 5
  23791135.378    -5443700.552 5  -4146187.401 4
  22280571.026    -9731993.084 6  -7415364.291 7
  22958066.276     1335292.567 6   1050960.704 6
  20446453.573    -1118751.987 7
  20512736.026    -4362716.842 7  -3349780.717 8
 94  2 13 10 50 59.9990000  0  7 17 22 28 21 26  3 23
  20679713.183     -990262.814 7   -755889.254 9
  23612921.081     -997552.079 5
  23768658.784    -5561824.810 5  -4238232.282 5
  22264340.917    -9817275.776 6  -7481818.331 7
  22965538.183     1374539.671 6   1081542.872 6
  20449001.269    -1105353.041 7
  20508222.839    -4386426.720 7  -3368255.943 8
 94  2 13 10 51 29.9990000  0  7 17 22 28 21 26  3 23
  20679879.190     -989367.990 7   -755191.990 9
  23615550.956     -983743.543 5
  23746206.964    -5679800.550 5  -4330161.440 5
  22248165.417    -9902280.546 6  -7548055.803 7
  22973089.597     1414238.289 6   1112476.860 6
  20451653.964    -1091427.960 7
  20503780.089    -4409778.711 7  -3386452.298 8
 94  2 13 10 51 59.9990000  0  7 17 22 28 21 26  3 23
  20680092.667     -988267.044 7   -754334.112 9
  23618259.737     -969506.603 5   -701662.324 5
  23723789.073    -5797630.653 5  -4421977.102 5
  22232043.558    -9987001.005 6  -7614071.736 7
  22980730.308     1454395.707 6   1143768.348 6
  20454401.511    -1076973.367 7   -813525.518 9
  20499403.917    -4432780.133 7  -3404375.480 8
 94  2 13 10 52 29.9990000  0  7 17 22 28 21 26  3 23
  20680341.198     -986966.441 7   -753320.665 9
  23621043.409     -954845.421 5   -690238.035 5
  23701386.753    -5915315.281 5  -4513679.416 5
  22215974.151   -10071441.986 6  -7679869.893 7
  22988466.706     1495023.775 6   1175426.582 6
  20457253.050    -1061991.941 7   -801851.691 9
  20495092.050    -4455436.661 7  -3422029.907 8
 94  2 13 10 52 59.9990000  0  7 17 22 28 21 26  3 23
  20680624.347     -985461.556 7   -752148.029 9
  23623915.823     -939759.466 5   -678482.762 5
  23679028.667    -6032825.090 5  -4605245.481 5
  22199961.956   -10155599.452 6  -7745447.137 7
  22996283.386     1536122.718 6   1207451.734 6
  20460204.472    -1046479.335 7   -789763.961 9
  20490849.050    -4477739.513 7  -3439408.751 8
 94  2 13 10 53 29.9990000  0  7 17 22 28 21 26  3 23
  20680945.245     -983762.277 7   -750823.916 9
  23626866.487     -924272.228 5   -666414.777 5
  23656706.815    -6150156.561 5  -4696672.614 5
  22183995.136   -10239491.162 6  -7810817.296 7
  23004193.597     1577684.621 6   1239837.632 6
  20463259.198    -1030440.332 7   -777266.045 8
  20486669.784    -4499693.545 7  -3456515.787 8
 94  2 13 10 53 59.9990000  0  7 17 22 28 21 26  3 23
  20681314.417     -981854.465 7   -749337.315 9
  23629882.776     -908387.654 5   -654037.189 4
  23634411.261    -6267311.696 5  -4787962.316 5
  22168079.573   -10323129.572 6  -7875990.075 7
  23012192.980     1619724.379 6   1272595.885 6
  20466408.542    -1013874.368 7   -764357.510 8
  20482562.519    -4521276.875 7  -3473333.961 8
 94  2 13 10 54 29.9990000  0  7 17 22 28 21 26  3 23
  20681713.433     -979740.863 7   -747690.352 9
  23632985.386     -892120.849 5   -641361.759 5
  23612144.972    -6384281.699 5  -4879107.774 5
  22152213.222   -10406513.568 6  -7940964.607 7
  23020281.769     1662230.597 6   1305717.613 6
  20469662.480     -996785.686 7   -751041.664 8
  20478525.894    -4542491.331 7  -3489864.696 8
 94  2 13 10 54 59.9990000  0  7 17 22 28 21 26  3 23
  20682155.315     -977409.291 7   -745873.543 9
  23636147.542     -875486.381 5   -628399.827 5
  23589923.019    -6501062.775 5  -4970106.006 5
  22136395.089   -10489635.441 6  -8005734.879 7
  23028457.745     1705188.208 6   1339191.076 6
  20473013.534     -979173.883 7   -737318.190 8
  20474561.292    -4563330.830 7  -3506103.253 8
 94  2 13 10 55 29.9990000  0  7 17 22 28 21 26  3 23
  20682642.862     -974848.912 7   -743878.450 9
  23639380.144     -858488.408 5   -615154.651 5
  23567737.354    -6617661.932 5  -5060962.492 5
  22120626.144   -10572505.128 6  -8070308.657 7
  23036713.800     1748590.857 6   1373011.321 6
  20476465.308     -961039.451 7   -723187.476 8
  20470667.183    -4583793.108 7  -3522047.890 8
 94  2 13 10 55 59.9990000  0  7 17 22 28 21 26  3 23
  20683181.362     -972038.909 7   -741688.838 9
  23642692.956     -841110.280 5   -601613.250 5
  23545589.214    -6734061.419 5  -5151663.392 5
  22104906.823   -10655103.682 6  -8134671.158 7
  23045060.308     1792442.059 6   1407181.092 6
  20480014.401     -942377.023 7   -708645.336 9
  20466844.901    -4603870.159 7  -3537692.347 8
 94  2 13 10 56 29.9990000  0  7 17 22 28 21 26  3 23
  20683758.933     -968986.046 7   -739309.991 9
  23646070.784     -823355.337 5   -587778.223 5
  23523477.370    -6850249.999 5  -5242199.942 5
  22089240.433   -10737429.460 6  -8198821.118 6
  23053488.683     1836725.977 6   1441688.033 6
  20483668.104     -923189.412 7   -693693.961 9
  20463095.972    -4623572.039 7  -3553044.458 8
 94  2 13 10 56 59.9990000  0  7 17 22 28 21 26  3 23
  20684387.065     -965689.252 7   -736741.066 9
  23649524.315     -805196.598 5   -573628.559 5
  23501405.355    -6966228.631 5  -5332572.912 5
  22073624.261   -10819500.432 6  -8262772.510 6
  23062000.019     1881448.555 6   1476536.806 6
  20487417.800     -903472.927 7   -678330.475 9
  20459422.667    -4642895.333 7  -3568101.564 8
 94  2 13 10 57 29.9990000  0  7 17 22 28 21 26  3 23
  20685059.620     -962170.227 7   -733998.972 9
  23653057.175     -786629.778 5   -559160.919 5
  23479378.495    -7082015.122 5  -5422796.152 5
  22058052.120   -10901331.184 6  -8326536.726 6
  23070593.276     1926608.179 6   1511726.115 6
  20491270.073     -883232.247 7   -662558.524 9
  20455810.386    -4661855.641 7  -3582875.825 8
 94  2 13 10 57 59.9990000  0  7 17 22 28 21 26  3 23
  20685766.206     -958437.997 7   -731090.749 9
  23656663.589     -767654.472 5   -544374.950 5
  23457376.839    -7197616.107 5  -5512874.835 5
  22042528.190   -10982910.647 6  -8390105.125 6
  23079267.550     1972217.100 6   1547265.533 6
  20495223.487     -862460.148 7   -646372.486 8
  20452272.605    -4680459.751 7  -3597372.533 8
 94  2 13 10 58 29.9990000  0  7 17 22 28 21 26  3 23
  20686512.440     -954515.840 7   -728034.526 9
  23660352.167     -748273.902 5   -529273.226 5
  23435404.542    -7313048.870 5  -5602822.430 5
  22027049.440   -11064251.075 6  -8453487.275 7
  23088031.847     2018264.991 6   1583147.004 6
  20499279.956     -841156.967 7   -629772.615 8
  20448797.229    -4698713.240 7  -3611596.023 8
 94  2 13 10 58 59.9990000  0  7 17 22 28 21 26  3 23
  20687294.808     -950412.707 7   -724837.289 9
  23664123.495     -728487.120 5   -513854.936 4
  23413469.839    -7428330.930 5  -5692652.599 5
  22011617.386   -11145347.974 6  -8516679.655 6
  23096877.847     2064736.335 6   1619358.435 6
  20503432.487     -819327.966 7   -612763.017 8
  20445388.019    -4716632.453 7  -3625559.044 8
 94  2 13 10 59 29.9990000  0  7 17 22 28 21 26  3 23
  20688108.698     -946120.785 7   -721492.934 9
  23667957.042     -708320.267 5   -498140.495 5
  23391567.308    -7543458.254 5  -5782362.199 5
  21996237.190   -11226174.719 6  -8579661.528 7
  23105794.940     2111622.254 6   1655892.922 6
  20507688.120     -796970.447 7   -595341.582 8
  20442043.894    -4734216.335 7  -3639260.767 8
 94  2 13 10 59 59.9990000  0  7 17 22 28 21 26  3 23
  20688964.604     -941616.860 7   -717983.382 9
  23671867.050     -687779.133 5   -482134.430 5
  23369691.886    -7658400.315 5  -5871927.447 5
  21980909.456   -11306719.045 6  -8642423.330 7
  23114799.589     2158926.531 6   1692753.389 6
  20512045.917     -774076.103 7   -577501.844 8
  20438764.269    -4751449.899 7  -3652689.514 8
 94  2 13 11  0 29.9990000  0  7 17 22 28 21 26  3 23
  20689864.175     -936891.951 7   -714301.638 9
  23675845.253     -666873.334 5   -465844.210 5
  23347862.440    -7773138.115 5  -5961333.505 5
  21965635.378   -11386982.821 6  -8704966.515 7
  23123881.339     2206648.485 6   1729939.325 6
  20516501.237     -750649.305 7   -559247.202 8
  20435551.261    -4768328.635 7  -3665841.776 8
 94  2 13 11  0 59.9990000  0  7 17 22 28 21 26  3 23
  20690815.683     -931915.660 7   -710424.015 9
  23679889.987     -645610.065 5   -449275.414 4
  23326067.651    -7887642.443 5  -6050557.650 5
  21950417.104   -11466958.364 6  -8767285.112 7
  23133041.589     2254807.130 6   1767465.543 6
  20521059.339     -726688.708 7   -540576.616 8
  20432406.706    -4784858.332 7  -3678722.058 8
 94  2 13 11  1 29.9990000  0  7 17 22 28 21 26  3 23
  20691807.206     -926681.271 7   -706345.267 9
  23684007.558     -624003.274 5   -432438.956 5
  23304324.605    -8001905.122 5  -6139593.514 5
  21935253.222   -11546646.890 6  -8829380.056 7
  23142294.581     2303410.138 6   1805338.014 6
  20525722.769     -702195.090 7   -521490.695 8
  20429328.308    -4801033.679 7  -3691326.211 8
 94  2 13 11  1 59.9990000  0  7 17 22 28 21 26  3 23
  20692854.355     -921191.379 7   -702067.436 9
  23688186.745     -602033.967 5   -415320.012 4
  23282629.245    -8115920.622 5  -6228436.753 5
  21920143.534   -11626055.000 6  -8891256.494 7
  23151630.878     2352461.651 6   1843559.971 6
  20530481.847     -677172.949 7   -501992.934 8
  20426316.511    -4816857.232 7  -3703656.255 8
 94  2 13 11  2 29.9990000  0  7 17 22 28 21 26  3 23
  20693950.097     -915447.094 7   -697591.372 9
  23692439.800     -579690.951 5   -397909.880 5
  23260976.339    -8229696.077 5  -6317092.941 6
  21905085.229   -11705178.013 6  -8952910.784 7
  23161043.589     2401952.703 6   1882124.418 6
  20535344.089     -651624.492 7   -482085.052 8
  20423368.448    -4832334.954 7  -3715716.817 8
 94  2 13 11  2 59.9990000  0  7 17 22 28 21 26  3 23
  20695089.472     -909455.049 7   -692922.254 9
  23696758.065     -556960.405 5   -380197.768 4
  23239374.112    -8343231.386 5  -6405562.005 5
  21890085.019   -11784008.478 6  -9014337.116 7
  23170545.003     2451869.166 6   1921020.358 6
  20540305.917     -625541.372 7   -461760.556 8
  20420491.612    -4847470.377 7  -3727510.644 8
 94  2 13 11  3 29.9990000  0  7 17 22 28 21 26  3 23
  20696267.331     -903241.489 7   -688080.520 9
  23701160.222     -533840.628 5   -362182.374 5
  23217809.862    -8456539.196 5  -6493853.803 5
  21875139.237   -11862543.621 6  -9075533.319 7
  23180120.909     2502203.913 6   1960242.234 6
  20545374.987     -598919.041 7   -441015.887 8
  20417681.729    -4862244.258 7  -3739022.762 8
 94  2 13 11  3 59.9990000  0  7 17 22 28 21 26  3 23
  20697494.620     -896819.605 7   -683076.455 9
  23705636.792     -510333.012 5   -343864.740 5
  23196296.440    -8569616.774 5  -6581966.202 5
  21860245.519   -11940807.093 6  -9136517.836 7
  23189780.698     2552954.050 6   1999787.792 6
  20550540.940     -571762.724 7   -419855.131 8
  20414934.644    -4876663.583 7  -3750258.597 8
 94  2 13 11  4 29.9990000  0  7 17 22 28 21 26  3 23
  20698748.229     -890207.296 7   -677924.011 9
  23710175.667     -486460.233 5   -325262.577 5
  23174814.831    -8682470.507 5  -6669904.177 5
  21845401.534   -12018815.808 6  -9197303.836 7
  23199517.464     2604113.575 6   2039652.360 6
  20555811.651     -544070.920 7   -398277.109 8
  20412259.620    -4890737.099 7  -3761224.962 8
 94  2 13 11  4 59.9990000  0  7 17 22 28 21 26  3 23
  20700041.925     -883413.539 7   -672630.179 9
  23714789.362     -462234.780 5   -306385.607 5
  23153383.620    -8795100.650 5  -6757667.932 5
  21830604.355   -12096580.281 6  -9257899.521 7
  23209332.940     2655692.926 6   2079844.062 6
  20561183.464     -515843.897 7   -376282.039 8
  20409645.378    -4904462.827 7  -3771920.336 8
 94  2 13 11  5 29.9990000  0  7 17 22 28 21 26  3 23
  20701376.440     -876408.228 7   -667171.499 9
  23719461.956     -437659.480 5   -287236.025 3
  23131999.050    -8907503.757 5  -6845254.763 5
  21815852.229   -12174096.098 6  -9318301.453 7
  23219227.808     2707704.638 6   2120372.665 6
  20566657.839     -487080.225 7   -353868.794 8
  20407100.378    -4917832.645 7  -3782338.366 8
 94  2 13 11  5 59.9990000  0  7 17 22 28 21 26  3 23
  20702756.659     -869167.997 7   -661529.757 9
  23724206.237     -412735.758 5   -267814.920 5
  23110652.104    -9019669.743 5  -6932656.829 5
  21801150.019   -12251361.649 6  -9378508.373 7
  23229208.198     2760145.241 6   2161235.465 6
  20572231.698     -457778.520 7   -331036.301 8
  20404619.815    -4930865.975 7  -3792494.206 8
 94  2 13 11  6 29.9990000  0  7 17 22 28 21 26  3 23
  20704177.425     -861690.695 7   -655703.292 9
  23729010.480     -387480.479 5   -248135.498 4
  23089353.901    -9131604.769 5  -7019878.938 5
  21786496.714   -12328361.314 6  -9438508.096 7
  23239265.253     2812998.817 6   2202420.067 6
  20577910.628     -427943.871 7   -307788.533 8
  20402203.644    -4943569.294 7  -3802392.897 8
 94  2 13 11  6 59.9990000  0  7 17 22 28 21 26  3 23
  20705650.026     -853953.274 7   -649674.134 9
  23733884.683     -361882.905 5   -228189.340 4
  23068099.558    -9243294.141 5  -7106909.621 5
  21771900.003   -12405074.092 6  -9498284.279 7
  23249405.729     2866267.371 6   2243928.021 6
  20583687.456     -397577.441 7   -284126.389 8
  20399848.979    -4955938.539 7  -3812031.262 8
 94  2 13 11  7 29.9990000  0  7 17 22 28 21 26  3 23
  20707174.987     -845947.932 7   -643436.208 9
  23738823.948     -335936.561 5   -207971.417 4
  23046894.237    -9354731.186 5  -7193743.663 6
  21757358.019   -12481488.014 6  -9557827.586 7
  23259617.425     2919942.333 6   2285752.656 6
  20589567.331     -366677.098 7   -260048.209 8
  20397558.159    -4967977.915 7  -3821412.597 8
 94  2 13 11  7 59.9990000  0  8 17 22 28 21 26  1  3 23
  20708743.261     -837707.856 7   -637015.370 9
  23743823.503     -309647.321 5   -187486.313 5
  23025735.753    -9465915.667 5  -7280380.921 6
  21742873.214   -12557609.632 6  -9617143.131 7
  23269903.026     2974010.584 6   2327883.757 6
  24426483.862          -0.66213
  20595550.495     -335243.581 7   -235554.569 8
  20395329.597    -4979690.420 7  -3830539.216 8
 94  2 13 11  8 29.9990000  0  8 17 22 28 21 26  1  3 23
  20710355.253     -829236.031 7   -630413.954 9
  23748891.276     -283011.225 5   -166730.925 4
  23004626.581    -9576845.374 5  -7366819.653 5
  21728443.269   -12633432.193 6  -9676225.641 7
  23280271.065     3028476.388 6   2370324.636 6
  24402265.940     -127268.795 3        -0.07112
  20601634.933     -303274.279 7   -210643.433 8
  20393165.550    -4991060.622 7  -3839399.114 8
 94  2 13 11  8 59.9990000  0  8 17 22 28 21 26  1  3 23
  20712011.995     -820528.343 7   -623628.747 9
  23754031.394     -256005.706 4   -145687.676 4
  22983568.315    -9687513.740 5  -7453054.739 5
  21714071.292   -12708960.732 6  -9735079.041 7
  23290710.940     3083339.528 6   2413075.129 5
  24378039.784     -254558.111 3    -99186.570 1
  20607820.308     -270765.404 7   -185311.851 8
  20391066.065    -5002088.370 7  -3847992.164 8
 94  2 13 11  9 29.9990000  0  8 17 22 28 21 26  1  3 23
  20713707.792     -811598.910 7   -616670.750 9
  23759239.995     -228644.629 5   -124367.337 4
  22962555.050    -9797928.926 5  -7539092.541 6
  21699751.909   -12784212.871 6  -9793717.069 7
  23301225.800     3138584.712 6   2456123.324 6
  24353818.253     -381855.673 3   -198379.439 3
  20614108.112     -237719.758 7   -159562.009 8
  20389032.558    -5012786.268 7  -3856328.179 8
 94  2 13 11  9 59.9990000  0  8 17 22 28 21 26  1  3 23
  20715449.886     -802454.506 7   -609545.249 9
  23764511.206     -200931.504 5   -102772.715 4
  22941595.456    -9908082.409 5  -7624926.429 5
  21685482.159   -12859197.719 6  -9852146.808 7
  23311805.831     3194207.861 6   2499466.028 5
  24329593.581     -509149.970 3   -297569.810 1
  20620498.894     -204136.344 7   -133393.123 8
  20387060.081    -5023153.188 7  -3864406.290 8
 94  2 13 11 10 29.9990000  0  8 17 22 28 21 26  1  3 23
  20717235.276     -793078.074 7   -602238.943 9
  23769848.948     -172866.190 4    -80903.647 4
  22920684.308   -10017955.891 5  -7710542.128 6
  21671264.644   -12933913.617 6  -9910366.977 7
  23322463.831     3250218.315 6   2543110.544 5
  24305372.190     -636444.709 3   -396760.520 1
  20626992.683     -170017.934 7   -106807.366 8
  20385146.386    -5033195.530 7  -3872231.500 8
 94  2 13 11 10 59.9990000  0  8 17 22 28 21 26  1  3 23
  20719060.839     -783471.940 7   -594753.650 9
  23775254.815     -144463.930 4    -58772.017 3
  22899830.925   -10127545.600 5  -7795936.685 6
  21657096.401   -13008368.502 6  -9968383.759 7
  23333198.706     3306606.761 6   2587049.584 5
  24281149.315     -763743.389 3   -495954.296 2
  20633586.667     -135367.603 7    -79807.123 8
  20383297.315    -5042924.783 7  -3879812.733 8
 94  2 13 11 11 29.9990000  0  8 17 22 28 21 26  1  3 23
  20720936.175     -773635.836 7   -587089.165 9
  23780723.980     -115744.949 5    -36393.594 3
  22879033.425   -10236843.616 5  -7881103.976 6
  21642978.925   -13082551.101 6 -10026188.372 7
  23344004.276     3363385.002 6   2631292.368 5
  24256922.886     -891041.875 3   -595147.932 2
  20640279.206     -100178.310 7    -52386.908 8
  20381504.581    -5052326.892 7  -3887139.038 8
 94  2 13 11 11 59.9990000  0  8 17 22 28 21 26  1  3 23
  20722847.464     -763569.659 7   -579245.393 9
  23786249.776      -86704.357 5    -13764.577 4
  22858287.698   -10345850.902 5  -7966044.716 6
  21628916.097   -13156452.442 6 -10083773.820 7
  23354880.761     3420565.707 6   2675848.760 5
  24232698.925    -1018342.827 3   -694343.488 1
  20647080.495      -64451.188 7    -24547.608 8
  20379784.612    -5061380.631 7  -3894193.904 8
 94  2 13 11 12 29.9990000  0  8 17 22 28 21 26  1  3 23
  20724809.284     -753262.329 7   -571213.720 9
  23791833.589      -57347.298 5      9111.058 3
  22837598.698   -10454576.589 5  -8050766.027 6
  21614906.347   -13230069.606 6 -10141137.841 7
  23365842.854     3478161.533 6   2720728.627 5
  24208473.417    -1145647.594 4   -793542.007 1
  20653982.948      -28189.494 7      3708.242 8
  20378126.698    -5070092.812 7  -3900982.616 8
 94  2 13 11 12 59.9990000  0  8 17 22 28 21 26  1  3 23
  20726819.605     -742710.376 7   -562991.419 9
  23797482.433      -27671.365 5     32235.147 3
  22816961.284   -10563037.035 5  -8135280.649 6
  21600951.058   -13303404.869 6 -10198282.193 8
  23376880.526     3536170.814 6   2765930.659 5
  24184249.729    -1272925.670 4   -892719.723 3
  20660983.651        8611.368 7     32384.231 8
  20376535.394    -5078455.976 7  -3907499.367 8
 94  2 13 11 13 29.9990000  0  8 17 22 28 21 26  1  3 23
  20728874.190     -731919.628 7   -554583.045 9
  23803191.386        2331.062 4     55613.656 4
  22796370.183   -10671236.825 6  -8219592.168 6
  21587049.003   -13376468.685 6 -10255215.024 8
  23387995.940     3594579.971 6   2811444.284 5
  24160037.253    -1400173.001 3   -991873.496 4
  20668087.800       45943.174 7     61473.939 8
  20375009.487    -5086473.602 7  -3913746.867 8
 94  2 13 11 13 59.9990000  0  8 17 22 28 21 26  1  3 23
  20730972.409     -720870.362 7   -545973.233 9
  23808969.425       32674.242 5     79257.680 4
  22775832.003   -10779161.898 5  -8303689.633 6
  21573196.409   -13449260.621 6 -10311936.009 8
  23399186.628     3653386.617 6   2857267.646 5
  24135832.917    -1527380.858 4  -1090996.500 2
  20675293.253       83811.470 7     90981.690 8
  20373550.175    -5094155.379 7  -3919732.664 8
 94  2 13 11 14 29.9990000  0  8 17 22 28 21 26  1  3 23
  20733126.394     -709561.573 7   -537161.190 9
  23814801.245       63342.203 5    103154.798 3
  22755348.940   -10886796.743 5  -8387560.924 6
  21559395.034   -13521788.757 6 -10368451.430 8
  23410450.815     3712571.410 6   2903385.660 5
  24111634.386    -1654554.086 4  -1190092.496 2
  20682600.776      122213.722 7    120905.512 8
  20372146.761    -5101523.499 7  -3925474.056 8
 94  2 13 11 14 59.9990000  0  8 17 22 28 21 26  1  3 23
  20735322.823     -698014.074 7   -528163.140 9
  23820697.292       94324.400 5    127296.767 5
  22734922.901   -10994133.937 5  -8471200.293 6
  21545643.276   -13594054.506 6 -10424762.398 8
  23421777.144     3772101.397 5   2949772.664 5
  24087435.581    -1781702.570 3  -1289169.245 2
  20690010.917      161144.792 7    151241.405 8
  20370805.315    -5108572.554 7  -3930966.819 9
 94  2 13 11 15 29.9990000  0  8 17 22 28 21 26  1  3 23
  20737563.933     -686229.740 7   -518980.545 9
  23826650.847      125618.523 5    151681.791 4
  22714558.144   -11101154.309 6  -8554592.784 6
  21531942.472   -13666053.263 6 -10480865.316 8
  23433172.144     3831975.550 5   2996427.838 6
  24063238.651    -1908844.403 4  -1388240.801 3
  20697521.175      200607.005 7    181991.173 8
  20369523.183    -5115305.528 7  -3936213.291 8
 94  2 13 11 15 59.9990000  0  8 17 22 28 21 26  1  3 23
  20739854.815     -674200.359 7   -509607.011 9
  23832665.542      157217.448 5    176304.317 3
  22694254.573   -11207857.440 6  -8637738.071 6
  21518294.339   -13737772.107 6 -10536750.120 7
  23444633.565     3892208.976 5   3043362.970 6
  24039049.198    -2035980.671 4  -1487308.026 3
  20705131.237      240604.648 7    213158.160 8
  20368302.612    -5121719.830 7  -3941211.444 8
 94  2 13 11 16 29.9990000  0  8 17 22 28 21 26  1  3 23
  20742188.925     -661932.872 7   -500047.932 9
  23838737.112      189122.010 5    201165.024 3
  22674009.847   -11314246.720 5  -8720638.800 6
  21504702.347   -13809201.941 6 -10592409.727 7
  23456163.401     3952800.836 5   3090577.392 5
  24014857.659    -2163109.223 4  -1586369.227 1
  20712843.058      281141.266 7    244745.128 8
  20367146.683    -5127805.537 7  -3945953.550 8
 94  2 13 11 16 59.9990000  0  8 17 22 28 21 26  1  3 23
  20744569.675     -649417.897 7   -490296.013 9
  23844867.425      221345.566 4    226274.263 3
  22653823.901   -11420327.673 6  -8803299.284 6
  21491167.112   -13880338.385 6 -10647840.709 8
  23467764.401     4013752.824 5   3138072.441 5
  23990666.698    -2290222.899 4  -1685418.862 2
  20720662.073      322218.176 7    276753.094 8
  20366052.026    -5133556.185 7  -3950434.569 8
 94  2 13 11 17 29.9990000  0  8 17 22 28 21 26  1  3 23
  20747001.144     -636647.691 7   -480345.209 9
  23851058.237      253873.840 4    251620.955 2
  22633690.964   -11526122.300 6  -8885736.634 6
  21477682.620   -13951193.539 6 -10703052.511 7
  23479427.550     4075063.770 5   3185847.204 5
  23966482.534    -2417327.727 4  -1784461.565 3
  20728578.636      363820.613 7    309170.571 8
  20365014.823    -5138998.865 7  -3954675.618 9
 94  2 13 11 17 59.9990000  0  8 17 22 28 21 26  1  3 23
  20749480.761     -623630.050 7   -470201.603 9
  23857307.151      286704.870 4    277203.576 2
  22613612.011   -11631627.044 6  -8967948.119 6
  21464254.464   -14021753.381 6 -10758034.196 8
  23491164.573     4136732.028 5   3233900.397 5
  23942298.503    -2544406.045 4  -1883483.646 3
  20736596.269      405954.803 7    342002.392 8
  20364037.659    -5144131.549 7  -3958675.107 9
 94  2 13 11 18 29.9990000  0  8 17 22 28 21 26  1  3 23
  20751999.854     -610373.652 7   -459871.946 9
  23863608.753      319836.541 5    303020.465 4
  22593594.159   -11736831.151 6  -9049925.331 6
  21450883.362   -14092026.638 6 -10812792.566 7
  23502965.831     4198747.333 5   3282224.010 5
  23918119.159    -2671456.652 4  -1982484.108 3
  20744715.378      448615.371 7    375244.379 8
  20363119.878    -5148956.944 7  -3962435.152 9
 94  2 13 11 18 59.9990000  0  8 17 22 28 21 26  1  3 23
  20754571.769     -596864.029 7   -449344.968 9
  23869972.409      353268.835 4    329071.597 4
  22573636.378   -11841715.110 6  -9131653.089 6
  21437565.581   -14162010.155 6 -10867325.164 7
  23514835.073     4261129.896 5   3330833.796 5
  23893954.011    -2798466.215 4  -2081452.618 2
  20752934.190      491810.297 7    408902.754 8
  20362262.276    -5153466.009 7  -3965948.714 9
 94  2 13 11 19 29.9990000  0  8 17 22 28 21 26  1  3 23
  20757189.979     -583119.328 7   -438634.818 9
  23876390.104      386987.101 4    355345.551 3
  22553740.628   -11946275.381 6  -9213128.610 6
  21424304.628   -14231702.441 6 -10921630.836 7
  23526776.128     4323887.624 5   3379735.920 5
  23869790.026    -2925437.517 4  -2180391.293 4
  20761255.136      535537.216 7    442975.669 8
  20361461.526    -5157665.417 7  -3969220.980 8
 94  2 13 11 19 59.9990000  0  8 17 22 28 21 26  1  3 23
  20759846.706     -569146.997 7   -427747.289 9
  23882858.261      420988.667 4    381840.292 4
  22533907.675   -12050493.762 6  -9294337.739 6
  21411094.456   -14301105.185 6 -10975710.888 7
  23538795.808     4387029.826 5   3428937.617 6
  23845634.261    -3052367.213 4  -2279297.549 4
  20769676.425      579798.048 7    477464.613 8
  20360724.019    -5161540.675 7  -3972240.658 9
 94  2 13 11 20 29.9990000  0  8 17 22 28 21 26  1  3 23
  20762552.675     -554923.117 7   -416663.753 9
  23889384.019      455267.919 5    408551.372 3
  22514138.651   -12154363.251 6  -9375274.992 6
  21397942.550   -14370224.143 6 -11029569.806 7
  23550883.253     4450560.706 5   3478442.195 5
  23821487.089    -3179249.921 4  -2378167.193 3
  20778200.565      624588.048 7    512365.905 8
  20360050.409    -5165088.764 7  -3975005.402 9
 94  2 13 11 20 59.9990000  0  8 17 22 28 21 26  1  3 23
  20765307.081     -540445.908 7   -405382.813 9
  23895959.550      489823.719 4    435477.967 4
  22494439.417   -12257886.863 6  -9455942.733 6
  21384846.776   -14439043.996 6 -11083195.656 7
  23563046.394     4514481.196 5   3528250.366 5
  23797362.526    -3306067.181 4  -2476985.835 3
  20786825.862      669911.047 7    547682.514 8
  20359434.089    -5168316.807 7  -3977520.757 9
 94  2 13 11 21 29.9990000  0  8 17 22 28 21 26  1  3 23
  20768110.308     -525725.701 7   -393912.523 9
  23902587.706      524655.503 4    462619.618 3
  22474803.995   -12361071.879 6  -9536346.625 6
  21371807.808   -14507562.093 6 -11136586.371 7
  23575281.667     4578762.859 5   3578339.965 5
  23773238.792    -3432811.292 4  -2575747.475 4
  20795548.565      715757.529 7    583407.041 8
  20358880.112    -5171234.576 7  -3979794.341 9
 94  2 13 11 21 59.9990000  0  8 17 22 28 21 26  1  3 23
  20770955.495     -510756.144 7   -382247.941 9
  23909265.636      559763.978 4    489976.856 3
  22455234.917   -12463919.182 6  -9616487.378 6
  21358824.901   -14575789.650 6 -11189750.691 7
  23587584.886     4643390.894 5   3628699.470 5
  23749135.222    -3559471.512 3  -2674443.755 4
  20804371.058      762126.163 7    619538.429 8
  20358385.792    -5173842.120 7  -3981826.193 9
 94  2 13 11 22 29.9990000  0  8 17 22 28 21 26  1  3 23
  20773856.128     -495534.925 7   -370387.260 9
  23916001.761      595152.874 4    517552.610 4
  22435725.651   -12566431.278 6  -9696366.919 6
  21345897.175   -14643727.512 6 -11242689.275 7
  23599941.120     4708349.792 5   3679316.785 6
  23725053.151    -3686039.525 4  -2773068.176 4
  20813295.878      809020.256 7    656079.265 8
  20357944.948    -5176144.012 7  -3983619.872 9
 94  2 13 11 22 59.9990000  0  8 17 22 28 21 26  1  3 23
  20776793.917     -480077.311 7   -358342.372 9
  23922790.815      630824.336 4    545348.565 3
  22416281.058   -12668617.189 6  -9775992.295 6
  21333022.292   -14711386.226 6 -11295410.341 7
  23612359.128     4773618.307 5   3730175.367 5
  23700982.761    -3812529.605 4  -2871631.854 4
  20822320.167      856438.520 7    693028.551 7
  20357564.933    -5178148.154 7  -3985181.538 9
 94  2 13 11 23 29.9990000  0  8 17 22 28 21 26  1  3 23
  20779780.714     -464382.107 7   -346112.350 9
  23929631.214      666775.862 4    573362.747 3
  22396897.261   -12770478.494 6  -9855364.748 6
  21320196.253   -14778787.736 7 -11347930.992 7
  23624836.144     4839189.723 5   3781269.962 5
  23676920.628    -3938967.423 4  -2970154.822 4
  20831444.472      904378.992 7    730384.754 7
  20357240.370    -5179846.446 7  -3986504.880 9
 94  2 13 11 23 59.9990000  0  8 17 22 28 21 26  1  3 23
  20782816.487     -448443.572 7   -333692.720 9
  23936526.026      703005.101 4    601593.305 2
  22377577.144   -12872009.941 6  -9934480.160 6
  21307417.276   -14845936.018 7 -11400254.321 7
  23637377.253     4905077.482 5   3832611.070 5
  23652863.550    -4065377.159 4  -3068655.905 4
  20840664.417      952843.579 7    768149.354 8
  20356975.331    -5181241.035 7  -3987591.568 9
 94  2 13 11 24 29.9990000  0  8 17 22 28 21 26  1  3 23
  20785898.886     -432258.721 7   -321081.153 9
  23943471.237      739514.201 4    630041.939 3
  22358320.605   -12973205.473 6 -10013333.811 6
  21294692.737   -14912807.576 7 -11452362.018 7
  23649971.847     4971278.103 5   3884195.971 5
  23628816.073    -4191775.307 5  -3167147.966 5
  20849986.034     1001833.136 7    806323.024 8
  20356764.362    -5182336.352 7  -3988445.060 9
 94  2 13 11 24 59.9990000  0  8 17 22 28 21 26  1  3 23
  20789021.526     -415830.302 7   -308279.794 9
  23950472.862      776303.192 4    658708.683 2
  22339131.081   -13074052.761 6 -10091916.127 6
  21282021.854   -14979393.176 7 -11504246.897 7
  23662627.362     5037795.428 5   3936027.644 5
  23604764.183    -4318165.304 5  -3265633.690 4
  20859409.315     1051345.341 7    844903.950 8
  20356614.034    -5183139.552 7  -3989070.932 9
 94  2 13 11 25 29.9990000  0  8 17 22 28 21 26  1  3 23
  20792194.722     -399153.689 7   -295285.026 9
  23957529.245      813370.472 4    687592.266 2
  22320010.128   -13174527.890 6 -10170208.437 6
  21269407.253   -15045685.004 7 -11555902.851 7
  23675354.120     5104641.847 5   3988115.756 5
  23580716.503    -4444523.572 5  -3364094.671 5
  20868929.589     1101378.867 7    883891.098 8
  20356519.120    -5183650.368 7  -3989468.967 9
 94  2 13 11 25 59.9990000  0  8 17 22 28 21 26  1  3 23
  20795415.800     -382225.614 7   -282094.320 9
  23964632.925      850709.400 4    716687.526 2
  22300963.565   -13274618.570 6 -10248201.161 6
  21256851.401   -15111671.919 7 -11607321.217 7
  23688135.659     5171812.450 5   4040456.483 5
  23556683.409    -4570814.396 5  -3462503.090 4
  20878551.292     1151932.875 7    923283.821 7
  20356473.542    -5183875.229 7
 94  2 13 11 26 29.9990000  0  8 17 22 28 21 26  1  3 23
  20798685.269     -365043.752 7   -268705.863 9
  23971786.878      888316.753 4    745991.975 2
  22281989.737   -13374318.916 6 -10325889.739 6
  21244351.792   -15177363.055 7 -11658509.105 7
  23700976.026     5239298.592 5   4093043.084 5
  23532673.409    -4696996.020 5  -3560826.433 4
  20888269.589     1203007.312 7    963082.067 8
  20356490.190    -5183801.930 7
 94  2 13 11 26 59.9990000  0  8 17 22 28 21 26  1  3 23
  20802005.722     -347602.521 7   -255115.297 9
  23978997.995      926186.122 4    775500.562 3
  22263093.151   -13473633.451 6 -10403277.696 6
  21231900.940   -15242786.692 7 -11709488.560 7
  23713879.472     5307104.945 5   4145879.189 5
  23508682.597    -4823031.927 5  -3659036.220 5
  20898085.222     1254599.217 7   1003283.539 7
  20356562.464    -5183420.466 7
 94  2 13 11 27 29.9990000  0  8 17 22 28 21 26  1  3 23
  20805375.612     -329895.787 7   -241317.850 9
  23986250.065      964307.795 4    805205.743 4
  22244265.011   -13572572.154 6 -10480372.789 6
  21219499.823   -15307948.370 6 -11760263.880 7
  23726842.347     5375230.430 5   4198963.995 5
  23484735.089    -4948915.108 5  -3757127.003 5
  20908004.058     1306708.719 7   1043888.332 7
  20356689.253    -5182737.591 7  -3988757.703 9
 94  2 13 11 27 59.9990000  0  8 17 22 28 21 26  1  3 23
  20808795.448     -311926.831 7   -227316.071 9
  23993548.058     1002669.603 4    835098.086 2
  22225505.097   -13671153.371 6 -10557189.315 6
  21207148.940   -15372851.604 6 -11810837.824 7
  23739865.550     5443666.151 5   4252290.525 5
  23460809.995    -5074658.044 5  -3855108.493 5
  20918017.112     1359336.085 7   1084896.663 7
  20356876.597    -5181752.770 7  -3987990.303 9
 94  2 13 11 28 29.9990000  0  8 17 22 28 21 26  1  3 23
  20812264.120     -293697.438 7   -213111.355 9
  24000897.792     1041271.801 3    865177.719 2
  22206814.534   -13769379.848 6 -10633729.420 6
  21194848.659   -15437488.913 6 -11861204.556 7
  23752949.753     5512426.137 5   4305869.725 5
  23436904.269    -5200277.848 5  -3952994.044 5
  20928131.909     1412483.750 7   1126310.425 7
  20357121.644    -5180466.444 7  -3986987.969 9
 94  2 13 11 28 59.9990000  0  8 17 22 28 21 26  1  3 23
  20815779.026     -275223.462 7   -198716.056 9
  24008283.222     1080094.729 3    895429.315 2
  22188188.831   -13867260.826 6 -10710000.313 6
  21182600.675   -15501860.099 6 -11911363.908 7
  23766096.956     5581504.071 5   4359696.684 5
  23413015.183    -5325810.499 5  -4050811.676 5
  20938343.151     1466143.624 7   1168123.299 8
  20357417.464    -5178909.770 7  -3985774.980 9
 94  2 13 11 29 29.9990000  0  8 17 22 28 21 26  1  3 23
  20819337.800     -256511.081 7   -184134.981 9
  24015716.308     1119134.024 4    925849.542 2
  22169628.128   -13964790.132 6 -10785997.175 6
  21170404.644   -15565948.954 6 -11961303.272 7
  23779298.917     5650890.030 5   4413763.666 5
  23389142.886    -5451283.741 5  -4148583.022 5
  20948652.394     1520317.050 7   1210336.338 8
  20357765.761    -5177088.645 7  -3984355.919 9
 94  2 13 11 29 59.9990000  0  8 17 22 28 21 26  1  3 23
  20822945.401     -237559.932 7   -169367.856 9
  24023185.175     1158396.956 5    956444.038 2
  22151137.440   -14061956.347 6 -10861711.107 6
  21158262.854   -15629746.599 6 -12011015.709 7
  23792558.714     5720579.777 5   4468067.371 5
  23365276.276    -5576690.481 5  -4246302.540 5
  20959057.604     1575005.366 7   1252950.602 7
  20358168.019    -5174979.935 7  -3982712.768 9
 94  2 13 11 30 29.9990000  0  8 17 22 28 21 26  1  3 23
  20826596.370     -218365.931 7   -154411.495 9
  24030699.620     1197886.363 4    987215.036 2
  22132717.683   -14158755.265 6 -10937138.831 6
  21146181.933   -15693236.379 6 -12060488.252 8
  23805878.464     5790569.728 5   4522604.989 5
  23341426.292    -5702018.880 5  -4343961.034 4
  20969562.354     1630208.235 7   1295965.814 7
  20358622.480    -5172591.805 7  -3980851.889 9
 94  2 13 11 30 59.9990000  0  8 17 22 28 21 26  1  3 23
  20830296.495     -198922.158 7   -139260.511 9
  24038257.847     1237605.343 4   1018164.888 2
  22114367.597   -14255175.980 6 -11012271.843 7
  21134158.651   -15756421.873 6 -12109723.703 8
  23819248.925     5860838.221 5   4577359.662 5
  23317594.151    -5827253.733 5  -4441546.622 4
  20980166.026     1685921.687 7   1339378.880 7
  20359130.769    -5169927.393 7  -3978775.722 9
 94  2 13 11 31 29.9990000  0  8 17 22 28 21 26  1  3 23
  20834045.003     -179219.090 7   -123907.483 9
  24045859.136     1277565.413 4   1049302.591 2
  22096094.737   -14351203.593 6 -11087098.553 7
  21122194.503   -15819289.587 7 -12158711.522 8
  23832678.433     5931394.362 5   4632338.478 5
  23293785.808    -5952375.943 5  -4539044.437 5
  20990862.909     1742144.042 7   1383188.494 7
  20359691.323    -5166975.457 7  -3976475.508 9
 94  2 13 11 31 59.9990000  0  8 17 22 28 21 26  1  3 23
  20837846.308     -159254.364 7   -108350.557 9
  24053510.019     1317764.801 4   1080626.770 3
  22077898.292   -14446826.425 6 -11161609.850 6
  21110293.972   -15881833.750 7 -12207447.232 8
  23846159.409     6002251.734 5   4687552.003 5
  23269996.495    -6077369.220 5  -4636441.795 5
  21001659.183     1798872.787 7   1427392.705 7
  20360306.972    -5163742.342 7  -3973956.196 9
 94  2 13 11 32 29.9990000  0  8 17 22 28 21 26  1  3 23
  20841698.448     -139021.670 7    -92584.826 9
  24061206.386     1358201.524 4   1112135.886 2
  22059783.136   -14542028.828 6 -11235793.538 6
  21098451.769   -15944065.081 6 -12255939.176 8
  23859703.354     6073421.456 5   4743008.925 5
  23246230.753    -6202241.219 5  -4733744.647 5
  21012552.104     1856110.377 7   1471993.409 7
  20360971.300    -5160240.525 7  -3971227.511 9
 94  2 13 11 32 59.9990000  0  8 17 22 28 21 26  1  3 23
  20845600.003     -118520.023 7    -76609.532 8
  24068948.253     1398880.415 4   1143833.739 1
  22041750.526   -14636799.809 6 -11309641.047 6
  21086662.917   -16006012.223 6 -12304209.667 8
  23873309.112     6144913.039 5   4798716.654 4
  23222498.511    -6327002.678 5  -4830961.359 5
  21023539.222     1913854.471 7   1516988.803 7
  20361691.120    -5156454.942 7  -3968277.707 9
 94  2 13 11 33 29.9990000  0  8 17 22 28 21 26  1  3 23
  20849552.636      -97749.552 7    -60424.754 9
  24076733.448     1439789.071 3   1175710.600 1
  22023793.128   -14731149.905 6 -11383160.602 6
  21074928.417   -16067681.079 7 -12352263.312 8
  23886978.386     6216730.580 5   4854678.369 5
  23198773.511    -6451668.577 5  -4928103.616 5
  21034622.714     1972105.058 6   1562378.865 7
  20362468.183    -5152377.296 7  -3965100.321 9
 94  2 13 11 33 59.9990000  0  8 17 22 28 21 26  1  3 23
  20853552.628      -76714.214 7    -44033.588 9
  24084560.495     1480912.089 3   1207754.510 2
  22005916.331   -14825094.817 6 -11456364.426 6
  21063240.128   -16129101.810 7 -12400123.620 8
  23900689.854     6288842.899 5   4910869.793 5
  23175062.058    -6576252.481 5  -5025181.982 5
  21045804.003     2030858.978 6   1608161.124 7
  20363301.261    -5148006.276 7  -3961694.335 9
 94  2 13 11 34 29.9990000  0  8 17 22 28 21 26  1  3 23
  20857604.019      -55417.657 7    -27438.877 9
  24092423.917     1522238.232 4   1239956.698 1
  21988111.948   -14918655.714 6 -11529269.020 6
  21051593.940   -16190301.128 7 -12447811.390 8
  23914473.667     6361226.278 5   4967272.431 5
  23151370.472    -6700752.967 5  -5122195.345 5
  21057079.269     2090109.031 6   1654329.981 7
  20364189.081    -5143344.410 7  -3958061.708 9
 94  2 13 11 34 59.9990000  0  8 17 22 28 21 26  1  3 23
  20861710.589      -33848.438 7    -10631.700 8
  24100322.167     1563767.032 3   1272316.784 1
  21970378.956   -15011841.401 6 -11601881.248 6
  21039993.753   -16251257.531 7 -12495309.879 8
  23928298.089     6433875.526 5   5023882.239 5
  23127698.456    -6825142.259 5  -5219122.056 5
  21068450.073     2149860.258 6   1700889.380 7
  20365132.784    -5138381.672 7  -3954194.637 9
 94  2 13 11 35 29.9990000  0  8 17 22 28 21 26  1  3 23
  20865867.855      -12009.260 7      6385.834 8
  24108263.862     1605491.623 3   1304829.445 1
  21952718.753   -15104647.030 6 -11674197.322 6
  21028445.706   -16311952.970 7 -12542605.025 8
  23942169.229     6506778.554 5   5080689.775 5
  23104057.019    -6949399.337 5  -5315945.762 5
  21079915.019     2210112.853 6   1747839.432 7
  20366129.628    -5133133.248 7  -3950104.945 9
 94  2 13 11 35 59.9990000  0  8 17 22 28 21 26  1  3 23
  20870073.183       10094.030 7     23609.168 8
  24116244.269     1647422.943 3   1337503.200 1
  21935134.456   -15197057.518 6 -11746205.496 7
  21016943.409   -16372383.408 7 -12589693.669 8
  23956090.792     6579940.511 5   5137699.099 5
  23080437.167    -7073500.436 5  -5412647.922 5
  21091476.253     2270864.987 6   1795178.750 7
  20367181.151    -5127605.380 7  -3945797.526 9
 94  2 13 11 36 59.9980000  0  8 17 22 28 21 26  1  3 23
  20878634.295       55084.914 7     58666.989 8
  24132328.350     1731950.894 3   1403369.132 1
  21900207.959   -15380599.913 6 -11889225.541 7
  20994120.928   -16492326.405 7 -12683155.726 8
  23984096.748     6727119.528 5   5252384.040 5
  23033311.334    -7321174.959 5  -5605641.061 5
  21114882.896     2393865.602 6   1891023.363 7
  20369441.506    -5115738.667 7  -3936550.735 9
 94  2 13 11 37 29.9980000  0  8 17 22 28 21 26  1  3 23
  20882988.756       77960.630 7     76492.219 8
  24140433.217     1774554.907 3   1436567.074 2
  21882872.959   -15471699.274 6 -11960212.050 7
  20982794.990   -16551838.505 7 -12729528.778 8
  23998187.607     6801140.246 5   5310062.504 5
  23009792.568    -7444771.255 5  -5701949.865 5
  21126726.936     2456108.985 6   1939524.703 7
  20370641.107    -5109424.597 7  -3931630.686 8
 94  2 13 11 37 59.9980000  0  8 17 22 28 21 26  1  3 23
  20887391.162      101098.404 7     94521.647 8
  24148585.717     1817380.300 3   1469937.505 1
  21865621.647   -15562344.801 6 -12030844.930 7
  20971528.584   -16611047.822 7 -12775665.894 8
  24012324.982     6875445.568 5   5367962.757 5
  22986298.912    -7568223.176 5  -5798146.163 5
  21138665.865     2518845.896 6   1988410.588 7
  20371890.350    -5102863.969 7  -3926518.504 8
 94  2 13 11 38 29.9980000  0  8 17 22 28 21 26  1  3 23
  20891843.467      124509.587 7    112764.118 8
  24156773.357     1860414.777 3   1503470.852 2
  21848460.303   -15652534.339 6 -12101122.494 7
  20960321.467   -16669953.688 7 -12821566.559 8
  24026516.084     6950029.600 5   5426080.180 5
  22962828.490    -7691540.536 5  -5894237.618 5
  21150699.764     2582081.288 6   2037684.911 7
  20373187.287    -5096056.504 7  -3921213.983 9
 94  2 13 11 38 59.9980000  0  8 17 22 28 21 26  1  3 23
  20896348.232      148177.666 7    131206.772 8
  24164995.045     1903622.499 3   1537139.199 2
  21831380.029   -15742299.742 6 -12171069.563 7
  20949158.412   -16728603.436 7 -12867267.655 8
  24040754.428     7024848.959 5   5484380.957 5
  22939378.732    -7814747.346 5  -5990242.915 5
  21162824.990     2645793.688 6   2087330.934 7
  20374526.146    -5089018.943 7  -3915730.168 8
 94  2 13 11 39 29.9980000  0  8 17 22 28 21 26  1  3 23
  20900902.357      172106.460 7    149852.583 8
  24173248.225     1947002.524 3   1570941.820 1
  21814380.287   -15831634.575 6 -12240681.119 7
  20938046.396   -16786995.844 7 -12912768.220 8
  24055039.311     7099906.219 5   5542867.134 5
  22915962.912    -7937817.021 5  -6086141.348 5
  21175041.123     2709993.957 6   2137357.104 7
  20375910.545    -5081740.424 7  -3910058.594 9
 94  2 13 11 39 59.9980000  0  8 17 22 28 21 26  1  3 23
  20905508.279      196295.413 7    168701.113 8
  24181538.740     1990545.596 3   1604871.509 1
  21797459.436   -15920546.535 6 -12309963.164 7
  20926985.350   -16845122.787 7 -12958061.940 8
  24069367.865     7175209.806 5   5601545.260 4
  22892578.193    -8060736.296 5  -6181922.595 5
  21187348.092     2774680.771 6   2187762.402 7
  20377341.756    -5074206.438 7  -3904187.956 9
 94  2 13 11 40 29.9980000  0  8 17 22 28 21 26  1  3 23
  20910155.334      220726.604 7    187738.400 8
  24189857.240     2034263.527 3   1638937.416 2
  21780621.037   -16009032.640 6 -12378913.378 7
  20915976.811   -16902977.045 7 -13003143.167 8
  24083743.607     7250757.110 5   5660413.286 5
  22869215.904    -8183475.844 5  -6277563.809 5
  21199752.232     2839853.365 6   2238546.234 7
  20378826.748    -5066406.544 7  -3898110.120 9
 94  2 13 11 40 59.9980000  0  8 17 22 28 21 26  1  3 23
  20914848.443      245395.623 7    206961.009 8
  24198208.193     2078150.397 3   1673134.974 2
  21763863.217   -16097094.161 6 -12447532.739 7
  20905019.553   -16960555.721 7 -13048009.663 8
  24098159.787     7326546.874 4   5719470.238 5
  22845903.459    -8306026.897 5  -6373058.133 5
  21212243.725     2905507.860 6   2289705.569 7
  20380363.740    -5058343.289 7  -3891827.065 9
 94  2 13 11 41 29.9980000  0  8 17 22 28 21 26  1  3 23
  20919588.381      270302.987 7    226369.338 8
  24206587.998     2122204.817 3   1707463.109 2
  21747189.576   -16184722.269 6 -12515814.377 7
  20894118.381   -17017841.016 7 -13092647.554 8
  24112636.920     7402591.867 5   5778726.070 5
  22822610.506    -8428390.968 5  -6468406.750 5
  21224830.818     2971645.080 6   2341241.058 7
  20381948.654    -5050013.788 7  -3885336.550 9
 94  2 13 11 41 59.9980000  0  8 17 22 28 21 26  1  3 23
  20924377.201      295460.255 7    245972.399 8
  24215007.326     2166436.574 3   1741929.379 2
  21730598.615   -16271906.966 6 -12583750.500 7
  20883274.318   -17074823.785 7 -13137049.705 8
  24127155.037     7478885.239 5   5838175.447 5
  22799359.318    -8550576.887 5  -6563616.550 5
  21237506.771     3038263.747 6   2393151.699 7
  20383584.357    -5041410.011 7  -3878632.308 9
 94  2 13 11 42 29.9980000  0  8 17 22 28 21 26  1  3 23
  20929212.334      320866.649 7    265769.589 8
  24223456.412     2210832.622 3   1776523.740 2
  21714091.451   -16358644.956 6 -12651338.539 7
  20872485.928   -17131522.432 7 -13181230.462 8
  24141719.131     7555404.518 5   5897800.858 5
  22776140.834    -8672605.047 5  -6658703.428 5
  21250274.756     3105357.410 6   2445432.462 7
  20385270.709    -5032540.663 7  -3871721.128 9
 94  2 13 11 42 59.9980000  0  8 17 22 28 21 26  1  3 23
  20934097.311      346550.087 7    285782.649 8
  24231939.646     2255384.755 3   1811239.653 1
  21697673.131   -16444927.097 6 -12718571.372 7
  20861748.600   -17187947.037 7 -13225197.683 8
  24156318.850     7632153.245 5   5957605.064 5
  22752949.834    -8794484.987 5  -6753674.796 5
  21263133.725     3172927.959 6   2498084.830 7
  20387011.248    -5023407.123 7  -3864604.095 9
 94  2 13 11 43 29.9980000  0  8 17 22 28 21 26  1  3 23
  20939037.256      372514.936 7    306014.993 8
  24240443.248     2300109.123 3   1846089.822 1
  21681343.100   -16530751.160 6 -12785447.262 7
  20851063.217   -17244100.392 7 -13268953.535 8
  24170961.537     7709119.887 5   6017579.058 5
  22729777.631    -8916219.131 5  -6848532.555 5
  21276081.764     3240972.196 6   2551106.294 7
  20388799.170    -5014009.635 7  -3857281.367 9
 94  2 13 11 43 59.9980000  0  8 17 22 28 21 26  1  3 23
  20944035.553      398762.157 7    326467.370 8
  24248990.326     2345002.527 3   1881071.642 1
  21665096.225   -16616125.984 6 -12851973.095 7
  20840426.092   -17299992.604 7 -13312505.899 8
  24185651.693     7786293.769 5   6077714.548 5
  22706648.326    -9037802.441 5  -6943272.791 5
  21289119.732     3309486.781 6   2604494.282 7
  20390634.514    -5004355.794 7  -3849758.888 9
 94  2 13 11 44 29.9980000  0  8 17 22 28 21 26  1  3 23
  20949084.303      425295.264 7    347142.511 8
  24257560.772     2390057.986 3   1916179.804 2
  21648933.803   -16701053.456 6 -12918150.349 7
  20829840.428   -17355617.591 7 -13355850.049 8
  24200378.186     7863681.703 5   6138016.826 5
  22683542.389    -9159222.609 5  -7037885.891 5
  21302247.381     3378475.351 6   2658251.596 7
  20392519.529    -4994456.348 7  -3842045.033 9
 94  2 13 11 44 59.9980000  0  8 17 22 28 21 26  1  3 23
  20954185.701      452106.470 7    368034.356 8
  24266165.506     2435272.758 3   1951412.127 2
  21632858.654   -16785532.048 6 -12983977.822 7
  20819310.154   -17410964.177 7 -13398977.248 8
  24215149.928     7941286.779 5   6198488.329 5
  22660468.100    -9280474.473 5  -7132367.852 5
  21315464.623     3447931.900 6   2712373.576 7
  20394445.936    -4984329.038 7  -3834153.625 9
 94  2 13 11 45 29.9980000  0  8 17 22 28 21 26  1  3 23
  20959336.451      479181.788 7    389131.998 8
  24274796.201     2480639.046 3   1986762.467 2
  21616870.061   -16869555.438 6 -13049450.595 7
  20808831.514   -17466024.136 7 -13441881.105 8
  24229959.990     8019108.977 5   6259129.004 5
  22637428.654    -9401549.989 5  -7226712.402 5
  21328771.014     3517856.377 6   2766860.166 7
  20396415.529    -4973981.925 7  -3826090.942 9
 94  2 13 11 45 59.9980000  0  8 17 22 28 21 26  1  3 23
  20964536.498      506517.996 7    410432.938 8
  24283456.021     2526132.030 3   2022211.533 1
  21600966.436   -16953119.901 6 -13114565.752 7
  20798408.451   -17520799.129 7 -13484562.918 8
  24244809.115     8097157.164 5   6319945.766 5
  22614422.326    -9522445.205 5  -7320916.459 5
  21342164.959     3588242.733 6   2821706.672 7
  20398427.834    -4963421.866 7  -3817862.328 9
 94  2 13 11 46 29.9980000  0  8 17 22 28 21 26  1  3 23
  20969790.693      534119.228 7    431940.387 8
  24292140.662     2571759.486 3   2057765.420 1
  21585157.545   -17036206.274 6 -13179308.384 7
  20788039.428   -17575282.685 7 -13527017.631 8
  24259704.420     8175455.112 5   6380957.159 5
  22591454.639    -9643136.797 5  -7414961.853 5
  21355647.928     3659095.436 6   2876916.556 7
  20400480.045    -4952635.850 7  -3809457.639 9
 94  2 13 11 46 59.9980000  0  8 17 22 28 21 26  1  3 23
  20975092.201      561983.694 7    453652.963 8
  24300845.834     2617526.007 3   2093427.633 1
  21569436.459   -17118812.805 6 -13243677.106 7
  20777723.639   -17629495.391 7 -13569261.292 8
  24274652.623     8254000.933 5   6442161.703 5
  22568524.084    -9763616.611 5  -7508842.213 5
  21369216.232     3730409.403 6   2932485.877 6
  20402576.186    -4941613.719 7  -3800868.957 9
 94  2 13 11 47 29.9980000  0  8 17 22 28 21 26  1  3 23
  20980446.365      590117.712 7    475575.565 8
  24309578.146     2663430.339 3   2129197.214 1
  21553808.639   -17200941.959 6 -13307673.848 7
  20767456.279   -17683449.298 7 -13611303.291 8
  24289645.795     8332790.246 4   6503555.967 5
  22545642.623    -9883882.486 5  -7602555.880 5
  21382876.357     3802183.039 6   2988413.379 7
  20404722.990    -4930333.732 7  -3792079.359 9
 94  2 13 11 47 59.9980000  0  8 17 22 28 21 26  1  3 23
  20985853.990      618526.023 7    497711.909 8
  24318340.342     2709478.042 2   2165078.562 2
  21538272.631   -17282592.621 6 -13371297.746 7
  20757237.076   -17737148.302 7 -13653146.669 8
  24304685.553     8411821.499 4   6565138.775 5
  22522797.436   -10003931.507 6  -7696100.570 5
  21396620.482     3874414.630 6   3044697.726 6
  20406919.397    -4918787.949 7  -3783082.643 9
 94  2 13 11 48 29.9980000  0  8 17 22 28 21 26  1  3 23
  20991311.357      647206.184 7    520060.076 8
  24327136.904     2755680.067 3   2201080.157 1
  21522827.451   -17363753.483 6 -13434539.980 7
  20747066.576   -17790602.685 7 -13694799.423 8
  24319766.647     8491078.051 4   6626897.130 4
  22499998.131   -10123756.549 6  -7789470.720 6
  21410456.404     3947106.155 6   3101340.460 6
  20409167.365    -4906976.295 7  -3773878.761 9
 94  2 13 11 48 59.9980000  0  8 17 22 28 21 26  1  3 23
  20996821.264      676150.818 7    542614.331 8
  24335958.787     2802027.477 3   2237194.981 2
  21507476.178   -17444419.398 6 -13497396.536 7
  20736941.467   -17843810.010 7 -13736259.672 8
  24334883.670     8570530.699 4   6688808.291 5
  22477232.381   -10243381.170 6  -7882684.699 6
  21424373.826     4020253.767 6   3158338.594 6
  20411463.006    -4894909.459 7  -3764476.032 9
 94  2 13 11 49 29.9980000  0  8 17 22 28 21 26  1  3 23
  21002375.232      705347.951 7    565365.341 8
  24344801.154     2848509.709 3   2273414.870 1
  21492219.982   -17524590.788 6 -13559867.751 7
  20726868.670   -17896745.271 7 -13777507.925 8
  24350047.404     8650178.580 5   6750871.585 4
  22454503.303   -10362811.845 6  -7975747.557 5
  21438380.287     4093855.878 6   3215690.878 6
  20413806.623    -4882593.358 7  -3754879.068 9
 94  2 13 11 49 59.9980000  0  8 17 22 28 21 26  1  3 23
  21007979.740      734789.036 6    588306.442 8
  24353671.693     2895130.200 3
  21477059.779   -17604262.670 6 -13621949.735 7
  20716848.592   -17949393.993 7 -13818532.897 8
  24365246.217     8730015.751 5   6813082.384 4
  22431820.006   -10482045.831 6  -8068657.152 5
  21452472.467     4167912.262 6   3273397.144 6
  20416193.201    -4870048.787 7  -3745104.077 9
 94  2 13 11 50 29.9980000  0  8 17 22 28 21 26  1  3 23
  21013628.193      764472.898 6    611436.714 8
  24362570.061     2941880.304 2        -0.26812
  21461991.389   -17683445.611 6 -13683650.726 7
  20706888.912   -18001742.431 7 -13859323.878 8
  24380462.662     8810036.296 4   6875436.047 4
  22409163.732   -10601091.421 6  -8161419.934 6
  21466649.897     4242420.023 6   3331455.127 6
  20418622.045    -4857282.408 7  -3735156.253 9
 94  2 13 11 50 59.9980000  0  8 17 22 28 21 26  1  3 23
  21019321.834      794398.863 6    634755.640 8
  24371490.146     2988752.786 2     36523.690 1
  21447014.459   -17762157.068 6 -13744984.333 7
  20696985.240   -18053771.348 7 -13899865.881 8
  24395729.771     8890242.046 4   6937934.031 5
  22386541.709   -10719959.458 5  -8254044.372 6
  21480915.061     4317374.463 6   3389861.180 6
  20421095.381    -4844289.790 7  -3725032.139 9
 94  2 13 11 51 29.9980000  0  8 17 22 28 21 26  1  3 23
  21025066.779      824581.864 7    658274.859 8
  24380430.607     3035743.143 2     73139.526 1
  21432121.451   -17840408.823 6 -13805959.729 7
  20687144.498   -18105489.768 7 -13940165.936 8
  24411023.842     8970649.111 4   7000588.897 4
  22363960.920   -10838630.434 6  -8346515.245 6
  21495262.818     4392774.668 6   3448614.578 6
  20423609.920    -4831071.860 7  -3714732.448 9
 94  2 13 11 51 59.9980000  0  8 17 22 28 21 26  1  3 23
  21030861.646      855043.134 7    682010.906 8
  24389397.045     3082859.033 2    109853.281 1
  21417317.732   -17918198.570 6 -13866575.117 7
  20677358.334   -18156913.946 7 -13980236.717 8
  24426364.654     9051245.948 4   7063391.630 4
  22341416.896   -10957088.229 6  -8438820.015 6
  21509696.717     4468623.293 6   3507717.391 6
  20426169.389    -4817627.893 7  -3704256.637 9
 94  2 13 11 52 29.9980000  0  8 17 22 28 21 26  1  3 23
  21036713.904      885793.758 7    705972.426 8
  24398385.662     3130090.325 3    146656.852 1
  21402603.811   -17995527.919 6 -13926831.751 7
  20667625.998   -18208062.347 7 -14020092.604 8
  24441739.787     9132041.591 5   7126349.293 4
  22318918.061   -11075314.256 6  -8530944.176 6
  21524214.053     4544916.981 6   3567167.009 6
  20428774.295    -4803937.927 7  -3693589.129 9
 94  2 13 11 52 59.9980000  0  8 17 22 28 21 26  1  3 23
  21042618.756      916836.479 7    730161.555 8
  24407389.396     3177444.457 2    183556.169 1
  21387980.490   -18072375.262 6 -13986712.791 7
  20657941.904   -18258949.029 7 -14059744.555 8
  24457155.436     9213050.143 5   7189472.849 4
  22296473.873   -11193287.875 6  -8622871.654 6
  21538817.772     4621656.744 6   3626964.223 6
  20431427.654    -4789994.765 7  -3682724.332 9
 94  2 13 11 53 29.9980000  0  8 17  9 28 21 26  1  3 23
  21048583.084      948173.300 7    754579.851 8
  24215381.904          -0.03013
  21373450.709   -18148729.285 6 -14046209.432 7
  20648306.248   -18309592.020 7 -14099206.620 8
  24472604.928     9294264.152 5   7252756.518 5
  22274068.920   -11311010.569 6  -8714603.621 6
  21553503.764     4698834.659 6   3687102.867 6
  20434126.725    -4775819.728 7  -3671678.846 9
 94  2 13 11 53 59.9980000  0  8 17  9 28 21 26  1  3 23
  21054602.842      979805.783 7    779228.530 8
  24203120.748      -64467.996 3
  21359016.787   -18224571.473 6 -14105307.245 7
  20638719.607   -18359976.338 7 -14138467.123 8
  24488102.623     9375670.963 5   7316190.420 4
  22251712.201   -11428486.615 6  -8806143.374 6
  21568273.857     4776449.159 6   3747581.671 6
  20436867.732    -4761405.260 7  -3660446.798 9
 94  2 13 11 54 29.9980000  0  8 17  9 28 21 26  1  3 23
  21060679.576     1011733.145 7    804106.990 8
  24190907.225     -128658.911 3
  21344685.100   -18299888.828 6 -14163996.096 7
  20629180.287   -18410102.751 7 -14177526.650 8
  24503625.107     9457285.405 4   7379786.099 4
  22229401.873   -11545733.207 6  -8897504.342 6
  21583125.514     4854495.314 6   3808396.844 6
  20439654.561    -4746757.638 7  -3649033.066 9
 94  2 13 11 54 59.9980000  0  8 17  9 28 21 26  1  3 23
  21066813.201     1043962.155 7    829220.494 8
  24178741.943     -192563.298 3        -0.27012
  21330458.045   -18374664.229 6 -14222262.645 7
  20619694.334   -18459945.301 7 -14216365.002 8
  24519197.889     9539097.752 4   7443536.000 4
  22207131.193   -11662766.319 6  -8988698.964 6
  21598058.639     4932978.018 6   3869552.190 6
  20442482.162    -4731900.956 7  -3637456.430 9
 94  2 13 11 55 29.9980000  0  8 17  9 28 21 31  1  3 23
  21073001.389     1076494.611 7    854570.464 8
  24166639.412     -256172.943 3    -49566.205 3
  21316330.209   -18448905.016 6 -14280112.609 7
  20610263.662   -18509506.364 7 -14254984.006 8
  24122784.303          -0.60213
  22184901.217   -11779590.790 6  -9079731.011 6
  21613077.240     5011893.788 6   3931044.993 6
  20445348.959    -4716843.125 7  -3625723.053 9
 94  2 13 11 55 59.9980000  0  8 17  9 28 21 31  1  3 23
  21079251.240     1109320.035 7    880148.707 8
  24154598.068     -319467.096 3    -98886.290 2
  21302301.654   -18522612.796 6 -14337547.240 7
  20600886.076   -18558787.656 7 -14293385.006 8
  24101550.014     -111560.649 3
  22162714.303   -11896190.129 6  -9170587.624 6
  21628177.959     5091242.030 6   3992874.781 6
  20448251.193    -4701581.894 7  -3613831.192 9
 94  2 13 11 56 29.9980000  0  8 17  9 28 21 31  1  3 23
  21085547.701     1142422.205 6    905942.599 8
  24142604.865     -382445.758 3   -147960.544 2
  21288378.514   -18595783.201 6 -14394563.141 7
  20591562.514   -18607790.597 7 -14331569.104 8
  24080368.842     -222867.773 4
  22140569.225   -12012550.987 6  -9261258.419 6
  21643358.889     5171024.025 6   4055042.562 6
  20451191.889    -4686131.729 7  -3601792.102 9
 94  2 13 11 56 59.9980000  0  8 17  9 28 21 31  1  3 23
  21091895.443     1175774.771 6    931931.609 8
  24130680.756     -445112.492 3   -196791.752 2
  21274555.717   -18668432.196 6 -14451172.749 7
  20582288.271   -18656513.243 7 -14369534.797 8
  24059234.412     -333932.564 3        -0.20313
  22118476.881   -12128660.141 6  -9351733.076 6
  21658620.857     5251232.119 6   4117542.367 6
  20454166.201    -4670500.064 7  -3589611.584 9
 94  2 13 11 57 29.9980000  0  8 17  9 28 21 31  1  3 23
  21098287.022     1209375.055 6    958113.647 8
  24118816.193     -507475.215 3   -245386.032 3
  21260828.881   -18740554.202 6 -14507371.717 7
  20573068.068   -18704972.691 7 -14407295.399 8
  24038146.443     -444735.833 3    -86340.427 2
  22096429.740   -12244496.632 6  -9441995.265 6
  21673968.318     5331869.503 6   4180376.671 6
  20457180.365    -4654666.601 7  -3577273.825 9
 94  2 13 11 57 59.9980000  0  8 17  9 28 21 31  1  3 23
  21104729.271     1243213.455 6    984481.219 8
  24107000.107     -569554.060 3   -293759.125 1
  21247202.912   -18812158.155 6 -14563167.010 7
  20563898.584   -18753166.711 7 -14444849.169 8
  24017114.748     -555274.823 3   -172474.679 3
  22074440.068   -12360070.054 6  -9532052.463 6
  21689391.467     5412928.095 6   4243539.205 6
  20460229.951    -4638629.191 7  -3564777.148 9
 94  2 13 11 58 29.9980000  0  8 17  9 28 21 31  1  3 23
  21111213.850     1277295.277 7   1011038.477 8
  24095242.873     -631347.858 3   -341910.130 3
  21233677.779   -18883245.682 6 -14618559.891 7
  20554777.615   -18801092.253 7 -14482193.742 8
  23996129.607     -665561.948 3   -258412.673 2
  22052496.256   -12475391.042 6  -9621912.962 6
  21704897.186     5494407.316 6   4307029.496 6
  20463325.334    -4622373.147 7  -3552110.103 9
 94  2 13 11 58 59.9980000  0  8 17  9 28 21 31  1  3 23
  21117752.092     1311649.890 6   1037808.291 8
  24083541.576     -692847.202 3   -389831.668 2
  21220246.264   -18953816.583 6 -14673550.211 7
  20545708.240   -18848754.826 7 -14519333.398 8
  23975191.678     -775571.851 3   -344134.696 2
  22030596.975   -12590462.922 6  -9711579.357 6
  21720480.029     5576308.117 6   4370848.299 6
  20466463.498    -4605878.046 7  -3539256.773 9
 94  2 13 11 59 29.9980000  0  8 17  9 28 21 31  1  3 23
  21124344.545     1346293.386 6   1064803.217 8
  24071900.186     -754034.655 3   -437510.174 3
  21206919.381   -19023862.441 6 -14728131.399 7
  20536686.717   -18896155.952 7 -14556269.338 8
  23954303.928     -885308.110 3   -429643.474 2
  22008744.381   -12705281.385 6  -9801048.275 6
  21736145.881     5658627.587 6   4434993.333 6
  20469648.975    -4589131.567 7  -3526207.573 9
 94  2 13 11 59 59.9980000  0  8 17  9 28 21 31  1  3 23
  21130989.318     1381224.388 6   1092022.174 8
  24060313.834     -814899.018 3   -484936.945 3
  21193687.139   -19093395.082 6 -14782312.688 8
  20527719.068   -18943279.506 7 -14592988.983 8
  23933475.100     -994778.003 3   -514944.683 2
  21986946.529   -12819841.893 6  -9890316.189 6
  21751889.271     5741361.374 6   4499461.207 6
  20472885.287    -4572132.801 7  -3512961.780 9
 94  2 13 12  0 29.9980000  0  8 17  9 28 21 31  1  3 23
  21137695.514     1416450.623 6   1119471.181 8
  24048793.154     -875444.941 3   -532115.559 3
  21180557.553   -19162399.314 6 -14836082.218 7
  20518802.553   -18990129.077 7 -14629495.139 8
  23912696.717    -1103985.224 4   -600041.233 4
  21965201.068   -12934128.456 6  -9979370.637 6
  21767712.029     5824508.996 6   4564251.553 6
  20476166.732    -4554891.659 7  -3499527.123 9
 94  2 13 12  0 59.9980000  0  8 17  9 28 21 31  1  3 23
  21144454.115     1451966.019 6   1147145.504 8
  24037326.943     -935673.273 2   -579046.703 3
  21167526.717   -19230865.773 6 -14889432.709 8
  20509941.756   -19036701.988 7 -14665785.715 8
  23891962.076    -1212929.680 4   -684933.038 2
  21943506.225   -13048125.844 6 -10068199.765 6
  21783613.514     5908068.653 6   4629362.960 6
  20479490.022    -4537421.411 7  -3485913.940 9
 94  2 13 12  1 29.9980000  0  8 17  9 28 21 31  1  3 23
  21151261.264     1487753.713 6   1175032.008 8
  24025929.584     -995587.330 3   -625732.955 3
  21154599.217   -19298794.826 6 -14942364.442 8
  20501133.006   -19082997.280 7 -14701859.961 8
  23871282.404    -1321624.029 3   -769629.934 2
  21921870.912   -13161826.135 6 -10156797.381 6
  21799591.615     5992035.840 6   4694791.925 6
  20482857.428    -4519734.859 7  -3472132.215 9
 94  2 13 12  1 59.9980000  0  8 17  9 28 21 31  1  3 23
  21158126.373     1523817.800 6   1203133.889 7
  24014584.678    -1055198.483 3   -672183.169 3
  21141778.045   -19366182.712 6 -14994874.489 8
  20492373.811   -19129016.620 7 -14737719.183 8
  23850649.607    -1430050.870 3   -854118.393 2
  21900288.232   -13275238.448 6 -10245170.602 6
  21815648.107     6076414.252 6   4760541.338 6
  20486259.857    -4501851.293 7  -3458196.972 9
 94  2 13 12  2 29.9980000  0  8 17  9 28 21 31  1  3 23
  21165042.459     1560159.833 6   1231452.355 8
  24003304.662    -1114503.402 3   -718394.788 3
  21129058.600   -19433021.776 6 -15046956.878 8
  20483666.287   -19174773.794 7 -14773374.113 8
  23830068.193    -1538216.163 3   -938403.024 2
  21878761.537   -13388364.329 6 -10333320.630 6
  21831782.943     6161197.251 6   4826605.996 6
  20489698.053    -4483781.021 7  -3444116.238 9
 94  2 13 12  2 59.9980000  0  8 17  9 28 21 31  1  3 23
  21172010.514     1596782.257 6   1259989.302 8
  23992074.912    -1173477.009 3   -764348.251 4
  21116441.943   -19499314.907 6 -15098613.862 8
  20475012.115   -19220258.069 7 -14808816.402 8
  23809539.420    -1646096.868 4  -1022465.875 4
  21857289.436   -13501197.202 6 -10421242.343 6
  21847991.998     6246384.070 6   4892985.329 6
  20493173.037    -4465515.586 7  -3429883.434 9
 94  2 13 12  3 29.9980000  0  8 17  9 28 21 31  1  3 23
  21179035.897     1633693.857 6   1288751.579 8
  23980924.029    -1232119.093 4   -810043.356 4
  21103930.748   -19565064.968 6 -15149847.675 8
  20466406.139   -19265477.957 7 -14844052.665 8
  23789067.287    -1753676.854 4  -1106294.446 2
  21835875.232   -13613745.861 6 -10508942.583 6
  21864280.787     6331970.127 6   4959675.763 6
  20496686.920    -4447055.386 7  -3415498.860 9
 94  2 13 12  3 59.9980000  0  8 17  9 28 21 31  1  3 23
  21186112.951     1670892.122 6   1317737.234 8
  23969825.646    -1290426.827 4   -855477.918 4
  21091525.053   -19630261.897 6 -15200650.485 8
  20457851.818   -19310426.520 7 -14879077.519 8
  23768654.811    -1860948.318 4  -1189882.590 2
  21814509.873   -13726011.299 6 -10596422.135 6
  21880641.053     6417953.569 6   5026675.842 6
  20500236.170    -4428396.123 7  -3400959.171 9
 94  2 13 12  4 29.9980000  0  8 17  9 28 21 31  1  3 23
  21193242.717     1708365.389 6   1346937.171 8
  23958793.818    -1348388.928 3   -900643.164 3
  21079226.193   -19694894.068 6 -15251013.205 8
  20449351.631   -19355096.653 7 -14913885.410 8
  23748301.443    -1967909.915 4  -1273229.295 2
  21793202.865   -13837982.172 6 -10683672.158 6
  21897078.998     6504333.501 6   5093984.868 6
  20503829.490    -4409521.036 7  -3386251.313 9
 94  2 13 12  4 59.9980000  0  8 17  9 28 21 31  1  3 23
  21200425.506     1746111.506 6   1376349.719 8
  23947834.318    -1406009.640 3   -945542.414 2
  21067034.639   -19758950.384 6 -15300927.224 8
  20440906.287   -19399488.384 7 -14948476.366 8
  23728005.193    -2074551.122 4  -1356326.316 2
  21771949.139   -13949669.230 6 -10770701.020 6
  21913590.154     6591109.685 6   5161602.652 5
  20507462.201    -4390438.040 7  -3371381.440 9
 94  2 13 12  5 29.9980000  0  8 17  9 28 21 31  1  3 23
  21207656.725     1784118.714 6   1405965.713 8
  23936931.670    -1463291.619 3   -990177.703 2
  21054957.443   -19822424.964 6 -15350387.936 8
  20432509.084   -19443615.350 7 -14982861.012 8
  23707767.826    -2180897.368 3  -1439193.549 3
  21750747.162   -14061086.697 6 -10857519.816 6
  21930178.311     6678275.628 6   5229524.173 5
  20511129.061    -4371163.671 7  -3356362.444 9
 94  2 13 12  5 59.9980000  0  8 17  9 28 21 31  1  3 23
  21214941.475     1822393.937 6   1435790.553 8
  23926099.279    -1520214.280 3  -1034532.999 2
  21042988.951   -19885307.023 6 -15399386.941 8
  20424164.725   -19487464.656 7 -15017029.301 8
  23687587.920    -2286956.233 4  -1521836.791 4
  21729600.381   -14172209.578 6 -10944109.067 6
  21946840.225     6765836.872 6   5297753.705 5
  20514832.732    -4351695.599 7  -3341192.521 9
 94  2 13 12  6 29.9980000  0  8 17  9 28 21 31  1  3 23
  21222278.475     1860940.772 6   1465827.046 7
  23915339.748    -1576766.291 4  -1078599.480 2
  21031135.756   -19947607.113 7 -15447932.472 8
  20415870.482   -19531048.440 7 -15050990.685 8
  23667455.084    -2392737.856 4  -1604264.052 3
  21708512.912   -14283035.763 6 -11030467.120 6
  21963576.482     6853786.620 6   5366285.968 5
  20518572.889    -4332041.638 7  -3325877.748 9
 94  2 13 12  6 59.9980000  0  8 17  9 28 21 31  1  3 23
  21229666.334     1899771.352 6   1496084.631 7
  23904653.225    -1632940.928 4  -1122371.899 2
  21019390.576   -20009333.732 7 -15496031.140 8
  20407626.990   -19574369.912 7 -15084747.671 8
  23647377.662    -2498242.335 3  -1686475.348 3
  21687479.389   -14393568.541 6 -11116596.547 6
  21980385.748     6942121.463 6   5435118.303 5
  20522348.201    -4312207.549 7  -3310422.610 9
 94  2 13 12  7 29.9980000  0  8 17  9 28 21 31  1  3 23
  21237111.623     1938891.221 6   1526567.652 7
  23894029.014    -1688728.462 3  -1165842.693 1
  21007746.303   -20070506.695 6 -15543698.387 8
  20399433.725   -19617421.893 7 -15118294.666 8
  23627357.068    -2603474.070 4  -1768474.106 3
  21666500.037   -14503806.932 6 -11202496.580 6
  21997271.709     7030836.905 6   5504247.210 5
  20526156.943    -4292185.728 7  -3294821.188 9
 94  2 13 12  7 59.9980000  0  8 17  9 28 21 31  1  3 23
  21244613.600     1978309.867 6   1557283.463 7
  23883488.357    -1744132.142 3  -1209014.369 2
  20996213.529   -20131130.569 6 -15590937.766 8
  20391293.420   -19660198.587 7 -15151627.151 8
  23607386.404    -2708410.310 4  -1850242.619 3
  21645579.193   -14613738.402 6 -11288157.459 6
  22014225.646     7119936.635 6   5573675.561 5
  20530007.021    -4271957.433 7  -3279058.881 9
 94  2 13 12  8 29.9980000  0  8 17  9 28 21 31  1  3 23
  21252168.725     2018018.639 6   1588225.355 7
  23873008.662    -1799162.272 3  -1251894.972 2
  20984778.928   -20191207.716 6 -15637751.127 8
  20383207.490   -19702698.258 7 -15184743.777 8
  23587476.186    -2813048.071 4  -1931778.536 4
  21624716.209   -14723382.992 6 -11373594.797 6
  22031252.053     7209415.380 6   5643399.242 5
  20533898.170    -4251512.732 7  -3263127.945 9
 94  2 13 12  8 59.9980000  0  8 17  9 28 21 31  1  3 23
  21259780.412     2058016.041 6   1619392.157 7
  23862610.553    -1853836.290 3  -1294498.087 2
  20973451.693   -20250737.599 6 -15684138.058 8
  20375172.303   -19744920.722 7 -15217644.391 8
  23567623.014    -2917376.070 4  -2013073.110 2
  21603909.654   -14832727.511 6 -11458798.305 7
  22048350.139     7299268.849 6   5713414.921 5
  20537828.279    -4230857.047 7  -3247032.604 9
 94  2 13 12  9 29.9980000  0  8 17  9 28 21 31  1  3 23
  21267446.061     2098295.720 6   1650778.911 7
  23852275.092    -1908165.728 3  -1336832.703 2
  20962228.178   -20309721.030 6 -15730099.171 8
  20367188.193   -19786876.618 7 -15250337.296 8
  23547827.037    -3021389.301 4  -2094122.398 3
  21583159.561   -14941757.241 6 -11543756.530 7
  22065519.084     7389491.050 6   5783717.929 5
  20541797.264    -4209990.667 7  -3230773.088 9
 94  2 13 12  9 59.9980000  0  8 17  9 28 21 31  1  3 23
  21275158.912     2138845.033 6   1682375.765 7
  23841997.623    -1962147.845 3  -1378896.657 2
  20951110.811   -20368137.250 6 -15775618.299 8
  20359253.615   -19828576.313 7 -15282830.558 8
  23528098.482    -3125068.459 4  -2174911.361 3
  21562479.662   -15050445.709 6 -11628448.826 6
  22082760.795     7480084.561 6   5854310.266 5
  20545812.147    -4188912.059 7  -3214348.198 9
 94  2 13 12 10 29.9980000  0  8 17  9 28 21 31  1  3 23
  21282928.404     2179666.207 6   1714184.471 7
  23831795.389    -2015767.056 3  -1420677.849 2
  20940104.389   -20425980.737 6 -15820691.145 8
  20351366.264   -19870022.413 7 -15315126.220 8
  23508434.967    -3228402.886 4  -2255431.688 3
  21541861.232   -15158784.810 6 -11712868.900 7
  22100068.311     7571050.224 6   5925192.578 5
  20549858.779    -4167636.135 7  -3197769.562 9
 94  2 13 12 10 59.9980000  0  8 17  9 28 21 31  1  3 23
  21290750.975     2220758.991 6   1746204.817 7
  23821658.318    -2069023.842 3  -1462176.633 2
  20929205.779   -20483250.364 6 -15865316.833 8
  20343525.592   -19911231.057 7 -15347236.850 8
  23488835.248    -3331377.923 3  -2335671.974 3
  21521312.693   -15266775.315 6 -11797017.344 6
  22117445.022     7662382.908 5   5996360.897 5
  20553939.170    -4146188.873 7  -3181057.415 9
 94  2 13 12 11 29.9980000  0  8 17  9 28 21 31  1  3 23
  21298619.014     2262118.438 6   1778432.944 7
  23811593.248    -2121910.195 3  -1503386.749 1
  20918419.357   -20539944.942 7 -15909494.433 8
  20335726.318   -19952201.878 7 -15379162.164 8
  23469309.959    -3433998.464 4  -2415636.008 3
  21500823.615   -15374438.500 6 -11880910.730 6
  22134897.350     7754076.725 5   6067810.614 5
  20558053.014    -4124576.962 7  -3164216.967 9
 94  2 13 12 11 59.9980000  0  8 17  9 28 21 31  1  3 23
  21306542.436     2303758.442 6   1810879.701 7
  23801606.482    -2174418.085 3  -1544301.973 4
  20907742.436   -20596051.987 7 -15953214.214 8
  20327980.248   -19992914.372 7 -15410886.177 8
  23449851.936    -3536260.478 4  -2495320.699 4
  21480399.818   -15481774.226 6 -11964548.949 6
  22152414.318     7846136.147 5   6139545.225 5
  20562194.951    -4102805.819 7  -3147252.444 9
 94  2 13 12 12 29.9980000  0  8 17  9 28 21 31  1  3 23
  21314524.881     2345702.937 6   1843563.712 7
  23791687.764    -2226558.165 3  -1584930.604 3
  20897176.279   -20651568.015 6 -15996473.450 8
  20320286.264   -20033348.789 7 -15442393.512 8
  23430454.764    -3638184.817 5  -2574742.249 3
  21460034.311   -15588790.883 6 -12047938.540 7
  22170003.084     7938557.500 5   6211561.852 5
  20566368.592    -4080875.343 7  -3130163.764 9
 94  2 13 12 12 59.9980000  0  8 17  9 28 21 31  1  3 23
  21322565.631     2387958.268 6   1876489.939 7
  23781832.451    -2278334.352 3  -1625275.621 3
  20886726.467   -20706481.470 7 -16039263.163 8
  20312649.272   -20073485.361 7 -15473668.760 8
  23411121.553    -3739778.545 4  -2653906.158 3
  21439729.709   -15695483.604 6 -12131075.712 7
  22187657.615     8031338.164 5   6283858.457 5
  20570574.514    -4058769.265 7  -3112938.259 9
 94  2 13 12 13 29.9980000  0  8 17  9 28 21 31  1  3 23
  21330668.256     2430528.580 6   1909661.605 7
  23772049.529    -2329747.640 3  -1665337.943 3
  20876390.209   -20760796.290 7 -16081586.407 8
  20305068.248   -20113324.280 7 -15504712.076 9
  23391847.998    -3841059.089 4  -2732826.065 2
  21419492.459   -15801839.235 6 -12213950.227 7
  22205379.209     8124471.557 5   6356429.921 5
  20574817.209    -4036471.797 7  -3095563.610 9
 94  2 13 12 13 59.9980000  0  8 17  9 28 21 31  1  3 23
  21338827.498     2473409.879 6   1943075.594 7
  23762333.795    -2380784.526 4  -1705106.907 2
  20866170.381   -20814514.954 7 -16123445.099 8
  20297539.436   -20152874.581 7 -15535530.485 9
  23372636.107    -3942018.699 4  -2811495.880 3
  21399319.639   -15907850.864 6 -12296556.682 7
  22223170.256     8217955.063 5   6429274.200 5
  20579097.990    -4013978.824 7  -3078036.620 9
 94  2 13 12 14 29.9980000  0  8 17  9 28 21 31  1  3 23
  21347042.920     2516590.069 6   1976722.490 7
  23752705.561    -2431425.165 4  -1744567.126 2
  20856061.482   -20867632.402 7 -16164835.317 8
  20290067.756   -20192141.936 7 -15566128.422 8
  23353491.084    -4042649.996 5  -2889909.856 4
  21379209.131   -16013527.062 6 -12378901.759 7
  22241026.811     8311785.207 5   6502388.594 5
  20583418.357    -3991280.059 7  -3060349.273 9
 94  2 13 12 14 59.9980000  0  8 17  9 28 21 31  1  3 23
  21355316.084     2560055.094 6   2010591.327 7
  23743142.436    -2481653.145 4  -1783705.799 3
  20846064.076   -20920164.832 7 -16205769.683 8
  20282646.506   -20231147.788 7 -15596522.588 8
  23334405.436    -4142928.899 5  -2968049.244 3
  21359165.146   -16118863.917 6 -12460982.415 7
  22258945.678     8405960.370 5   6575771.823 5
  20587774.311    -3968384.438 7  -3042508.533 9
 94  2 13 12 15 29.9980000  0  8 17  9 28 21 31  1  3 23
  21363637.834     2603789.706 6   2044670.235 7
  23733662.240    -2531463.654 4  -1822519.183 4
  20836176.842   -20972122.696 7 -16246256.335 8
  20275268.896   -20269909.215 7 -15626726.291 8
  23315393.381    -4242848.754 5  -3045908.868 4
  21339183.537   -16223865.831 6 -12542802.084 7
  22276929.522     8500476.476 5   6649420.725 5
  20592167.209    -3945304.156 7  -3024523.906 9
 94  2 13 12 15 59.9980000  0  8 17  9 28 21 31  1  3 23
  21372007.631     2647779.864 6   2078948.274 7
  23724265.670    -2580854.218 4  -1861005.315 3
  20826400.506   -21023494.476 7 -16286286.296 8
  20267943.615   -20308415.086 7 -15656730.865 8
  23296448.498    -4342395.081 5  -3123477.420 5
  21319267.943   -16328530.078 6 -12624358.636 7
  22294984.623     8595337.805 5   6723338.629 5
  20596595.272    -3922036.265 7  -3006393.084 9
 94  2 13 12 16 29.9980000  0  8 17  9 28 21 31  1  3 23
  21380426.193     2692016.402 6   2113418.291 7
  23714941.514    -2629848.507 4  -1899182.664 4
  20816737.889   -21074277.605 7 -16325857.569 8
  20260663.693   -20346663.381 7 -15686534.728 8
  23277576.014    -4441576.557 5  -3200761.685 4
  21299414.959   -16432846.804 6 -12705644.383 7
  22313103.631     8690540.773 5   6797522.742 5
  20601056.521    -3898590.414 7  -2988123.589 9
 94  2 13 12 16 59.9980000  0  8 17  9 28 21 31  1  3 23
  21388890.764     2736497.954 6   2148079.225 7
  23705687.904    -2678463.957 3  -1937064.826 4
  20807182.896   -21124478.633 6 -16364975.265 8
  20253431.045   -20384677.944 7 -15716156.468 8
  23258766.576    -4540401.396 5  -3277768.044 4
  21279633.881   -16536806.626 6 -12786652.033 7
  22331282.209     8786076.244 5   6871965.950 5
  20605548.022    -3874981.310 7  -2969726.888 9
 94  2 13 12 17 29.9980000  0  8 17  9 28 21 31  1  3 23
  21397400.045     2781228.168 6   2182933.939 7
  23696505.342    -2726703.347 3  -1974653.961 3
  20797747.615   -21174067.463 7 -16403615.911 8
  20246241.334   -20422458.017 7 -15745595.487 8
  23240029.506    -4638878.800 5  -3354503.691 5
  21259918.248   -16640405.747 6 -12867378.619 7
  22349520.420     8881939.946 5   6946664.927 5
  20610074.818    -3851201.635 7  -2951197.268 9
 94  2 13 12 17 59.9980000  0  8 17  9 28 21 31  1  3 23
  21405967.193     2826228.813 6   2217999.364 7
  23687405.162    -2774554.731 3  -2011940.711 3
  20788430.045   -21223032.557 7 -16441770.530 8
  20239097.990   -20459998.029 7 -15774847.441 8
  23221355.404    -4737015.268 5  -3430973.653 4
  21240273.639   -16743634.422 6 -12947816.538 7
  22367827.389     8978134.161 5   7021621.443 5
  20614630.959    -3827252.478 7  -2932535.589 9
 94  2 13 12 18 29.9980000  0  8 17  9 28 21 31  1  3 23
  21414587.826     2871531.078 6   2253299.821 7
  23678373.967    -2821994.200 3  -2048906.502 4
  20779232.381   -21271376.295 6 -16479440.971 8
  20231996.975   -20497302.400 7 -15803915.774 8
  23202744.490    -4834821.672 5  -3507186.432 5
  21220700.561   -16846493.335 6 -13027966.339 7
  22386197.443     9074656.940 5   7096833.982 5
  20619218.521    -3803143.104 7  -2913749.064 9
 94  2 13 12 18 59.9980000  0  8 17  9 28 21 31  1  3 23
  21423265.350     2917147.574 6   2288845.135 7
  23669427.264    -2869006.085 3  -2085539.128 4
  20770146.490   -21319115.052 6 -16516640.001 8
  20224943.412   -20534375.332 7 -15832803.773 8
  23184195.842    -4932294.580 5  -3583139.350 5
  21201196.100   -16948998.437 6 -13107840.431 7
  22404619.475     9171499.517 5   7172295.714 5
  20623839.600    -3778869.029 7  -2894834.202 9
 94  2 13 12 19 29.9980000  0  8 17  9 28 21 31  1  3 23
  21432005.365     2963074.285 6   2324632.175 7
  23660565.740    -2915586.878 3  -2121835.829 3
  20761174.686   -21366261.697 6 -16553377.647 8
  20217940.154   -20571189.583 7 -15861490.194 8
  23165710.897    -5029437.465 5  -3658835.105 4
  21181756.576   -17051157.039 6 -13187444.542 7
  22423111.912     9268660.059 5   7248005.223 5
  20628488.740    -3754434.370 7  -2875794.212 9
 94  2 13 12 19 59.9980000  0  8 17  9 28 21 31  1  3 23
  21440806.756     3009322.173 6   2360669.482 7
  23651785.389    -2961723.925 3  -2157786.762 4
  20752316.061   -21412820.891 6 -16589657.542 8
  20210984.631   -20607716.279 7 -15889952.545 8
  23147291.279    -5126236.485 5  -3734262.914 4
  21162381.975   -17152958.859 6 -13266770.615 7
  22441665.076     9366146.674 5   7323968.805 5
  20633168.857    -3729836.320 7  -2856626.902 9
 94  2 13 12 20 29.9980000  0  8 17  9 28 21 31  1  3 23
  21449666.342     3055869.568 6   2396940.180 7
  23643092.975    -3007428.998 4  -2193401.080 4
  20743564.311   -21458804.672 6 -16625489.056 8
  20204089.896   -20643967.477 7 -15918200.225 8
  23128937.193    -5222675.200 5  -3809409.964 5
  21143077.662   -17254409.633 6 -13345823.153 7
  22460275.545     9463948.128 5   7400177.716 5
  20637880.006    -3705079.548 7  -2837335.913 9
 94  2 13 12 20 59.9980000  0  8 17  9 28 21 31  1  3 23
  21458577.326     3102694.869 6   2433427.414 7
  23634470.240    -3052725.652 4
  20734923.787   -21504201.876 6
  20197242.951   -20679942.516 7 -15946232.716 8
  23110651.568    -5318727.726 4  -3884256.098 4
  21123839.412   -17355508.077 6 -13424601.158 7
  22478944.326     9562059.376 5   7476628.034 5
  20642621.021    -3680164.907 7  -2817921.907 9
 94  2 13 12 21 29.9980000  0  8 17  9 28 21 31  1  3 23
  21467537.381     3149792.532 6   2470126.883 7
  23625933.803    -3097616.075 5
  20726401.186   -21548993.562 6 -16695766.119 8
  20190450.834   -20715638.198 7 -15974047.535 9
  23092453.389    -5414382.361 4  -3958792.179 4
  21104672.389   -17456229.937 6 -13503085.710 7
  22497675.303     9660482.288 5   7553321.185 5
  20647391.076    -3655097.549 7  -2798388.897 9
 94  2 13 12 21 59.9980000  0  8 17  9 28 21 31  1  3 23
  21476553.420     3197165.096 6   2507040.557 7
  23617465.756    -3142104.987 5        -0.35414
  20717995.248   -21593175.158 6 -16730193.332 8
  20183705.139   -20751074.980 7 -16001660.610 8
  23074326.857    -5509636.371 5  -4033016.083 4
  21085578.693   -17556571.255 6 -13581273.744 7
  22516460.818     9759207.824 5   7630250.180 5
  20652191.443    -3629870.772 7  -2778731.663 9
 94  2 13 12 22 29.9980000  0  8 17  9 28 21 31  1  3 23
  21485618.475     3244802.644 6   2544160.717 7
  23609067.607    -3186205.450 5    -34364.338 3
  20709700.318   -21636755.447 6 -16764152.006 8
  20177011.873   -20786266.943 7 -16029082.917 8
  23056283.912    -5604475.600 5  -4106916.799 5
  21066553.850   -17656538.576 6 -13659170.348 7
  22535309.068     9858231.367 5   7707411.366 5
  20657023.787    -3604477.303 7  -2758944.547 9
 94  2 13 12 22 59.9980000  0  8 17  9 28 21 31  1  3 23
  21494735.209     3292708.295 6   2581489.781 7
  23600749.795    -3229919.370 4    -68427.107 3
  20701524.045   -21679727.346 6 -16797636.598 8
  20170365.803   -20821189.893 7 -16056295.600 8
  23038315.443    -5698902.540 5  -4180496.226 4
  21047605.662   -17756120.101 6 -13736766.334 8
  22554204.014     9957559.141 5   7784809.613 4
  20661891.639    -3578897.899 7  -2739012.545 9
 94  2 13 12 23 29.9980000  0  8 17  9 28 21 31  1  3 23
  21503903.193     3340883.780 6   2619029.111 7
  23592511.920    -3273239.146 5   -102182.780 5
  20693457.693   -21722109.468 6 -16830661.632 8
  20163770.912   -20855845.642 7 -16083300.079 8
  23020419.897    -5792936.534 5  -4253769.452 4
  21028729.037   -17855317.805 6 -13814063.241 8
  22573164.201    10057184.869 5   7862440.043 5
  20666793.740    -3553131.319 7  -2718934.690 9
 94  2 13 12 23 59.9980000  0  8 17  9 28 21 31  1  3 23
  21513125.818     3389338.883 6   2656786.319 7
  23584335.076    -3316159.006 4   -135626.812 3
  20685505.475   -21763898.859 6 -16863224.794 8
  20157227.717   -20890236.242 7 -16110097.944 8
  23002602.022    -5886565.120 5  -4326726.813 4
  21009920.764   -17954150.565 6 -13891075.764 8
  22592178.279    10157108.065 5   7940302.265 5
  20671733.553    -3527174.146 7  -2698708.323 9
 94  2 13 12 24 29.9980000  0  8 17  9 28 21 31  1  3 23
  21522392.209     3438058.748 6   2694749.835 7
  23576248.232    -3358671.108 5   -168753.101 5
  20677667.139   -21805099.304 7 -16895329.046 8
  20150729.936   -20924367.785 7 -16136693.938 8
  22984864.553    -5979786.826 5  -4399367.099 4
  20991182.279   -18052619.970 6 -13967805.165 8
  22611250.115    10257321.753 5   8018390.839 5
  20676708.068    -3501041.563 7  -2678345.274 9
 94  2 13 12 25 29.9970000  0  8 17  9 28 21 31  1  3 23
  21541095.720     3536334.870 6   2771328.613 7
  23560327.462    -3442345.648 5   -233954.008 4
  20662332.587   -21885675.725 7 -16958115.870 8
  20137883.899   -20991880.659 7 -16189301.367 8
  22949604.821    -6165055.079 5  -4543731.950 3
  20953925.759   -18248417.528 6 -14120374.665 8
  22649555.774    10458609.314 5   8175238.265 5
  20686743.259    -3448304.900 7  -2637251.771 9
 94  2 13 12 25 59.9970000  0  8 17  9 28 21 31  1  3 23
  21550527.087     3585892.326 6   2809944.809 7
  23552500.954    -3483478.315 5   -266005.416 4
  20654843.642   -21925023.906 6 -16988776.792 8
  20131524.704   -21025301.036 7 -16215343.215 8
  22932092.438    -6257105.600 5  -4615459.625 5
  20935405.938   -18345734.193 6 -14196205.832 8
  22668786.368    10559680.428 5   8253994.962 5
  20691801.907    -3421721.997 7  -2616537.822 9
 94  2 13 12 26 29.9970000  0  8 17  9 28 21 31  1  3 23
  21560007.696     3635710.635 6   2848764.260 7
  23544761.946    -3524138.330 5   -297688.529 4
  20647479.892   -21963732.785 6 -17018939.551 8
  20125204.118   -21058503.118 7 -16241214.961 8
  22914644.337    -6348783.343 5  -4686896.823 5
  20916965.188   -18442637.374 6 -14271714.794 8
  22688071.821    10661033.394 5   8332971.283 5
  20696887.649    -3394991.419 7  -2595708.800 9
 94  2 13 12 26 59.9970000  0  8 17  9 28 21 31  1  3 23
  21569538.399     3685806.796 6   2887800.225 6
  23537116.603    -3564334.507 5   -329010.226 4
  20640236.673   -22001786.354 6 -17048591.684 8
  20118930.149   -21091486.041 7 -16266915.933 8
  22897270.962    -6440089.443 5  -4758044.425 5
  20898604.821   -18539119.896 6 -14346895.974 8
  22707410.962    10762668.476 5   8412167.436 4
  20702002.728    -3368115.285 7  -2574766.357 9
 94  2 13 12 27 29.9970000  0  8 17  9 28 21 31  1  3 23
  21579120.048     3736165.488 6   2927040.756 6
  23529544.274    -3604112.118 5   -360005.748 4
  20633117.478   -22039200.894 6 -17077745.876 8
  20112692.064   -21124267.712 7 -16292460.091 8
  22879967.470    -6531026.335 5  -4828904.344 5
  20880321.071   -18635201.861 7 -14421765.025 8
  22726805.673    10864565.137 5   8491567.430 4
  20707141.157    -3341110.733 7  -2553723.853 9
 94  2 13 12 27 59.9970000  0  8 17  9 28 21 31  1  3 23
  21588755.478     3786801.120 6   2966497.074 7
  23522053.415    -3643473.829 5   -390677.187 4
  20626121.548   -22075980.048 6 -17106404.965 8
  20106496.384   -21156815.948 7 -16317822.342 8
  22862735.454    -6621573.639 5  -4899460.677 5
  20862117.673   -18730871.159 7 -14496312.519 8
  22746249.173    10966732.420 5   8571178.279 5
  20712309.009    -3313953.656 7  -2532562.499 9
 94  2 13 12 28 29.9970000  0  8 17  9 28 21 31  1  3 23
  21598447.954     3837729.277 6   3006181.342 7
  23514640.938    -3682413.221 5   -421019.550 4
  20619235.431   -22112143.392 6 -17134584.197 8
  20100350.767   -21189122.902 7 -16342996.593 8
  22845583.587    -6711716.264 5  -4969701.678 4
  20843988.345   -18826135.379 7 -14570544.371 8
  22765732.001    11069165.780 5   8650996.464 4
  20717503.274    -3286654.796 7  -2511290.664 9
 94  2 13 12 28 59.9970000  0  8 17  9 28 21 31  1  3 23
  21608195.548     3888955.062 6   3046097.522 6
  23507312.196    -3720928.032 5   -451031.087 5
  20612471.118   -22147705.904 6 -17162295.249 8
  20094247.181   -21221188.141 7 -16367982.484 8
  22828507.587    -6801440.729 5  -5039616.845 5
  20825934.470   -18921004.780 7 -14644468.573 8
  22785284.220    11171862.564 5   8731019.937 3
  20722724.064    -3259224.449 7  -2489916.372 9
 94  2 13 12 29 29.9970000  0  8 17  9 28 21 31  1  3 23
  21617999.845     3940467.217 6   3086236.861 6
  23500066.353    -3759014.202 5   -480708.593 4
  20605814.368   -22182694.740 7 -17189559.278 8
  20088192.540   -21253005.166 7 -16392774.967 8
  22811515.595    -6890740.234 5  -5109200.876 5
  20807955.251   -19015485.063 7 -14718089.571 8
  22804874.345    11274818.149 5   8811245.050 4
  20727969.501    -3231652.118 7  -2468431.434 9
 94  2 13 12 29 59.9970000  0  8 17  9 28 21 31  1  3 23
  21627852.407     3992258.276 6   3126593.530 6
  23492909.681    -3796647.889 5   -510033.550 5
  20599263.142   -22217112.662 6 -17216378.442 8
  20082186.837   -21284565.251 7 -16417367.240 8
  22794602.337    -6979614.247 5  -5178453.351 5
  20790052.165   -19109571.858 7 -14791403.950 8
  22824515.634    11378032.794 5   8891672.030 2
  20733245.423    -3203937.186 7  -2446835.385 9
 94  2 13 12 30 29.9970000  0  8 17  9 28 21 31  1  3 23
  21637760.173     4044317.785 6   3167159.372 6
  23485829.540    -3833831.255 5   -539007.588 5
  20592823.259   -22250951.539 6 -17242746.401 8
  20076230.634   -21315873.218 7 -16441763.059 8
  22777767.907    -7068067.464 5  -5247377.915 5
  20772221.603   -19203268.380 7 -14864414.214 8
  22844204.243    11481501.988 5   8972297.390 3
  20738542.157    -3176096.936 7  -2425141.688 9
 94  2 13 12 30 59.9970000  0  8 17  9 28 21 31  1  3 23
  21647717.993     4096646.852 6   3207935.254 6
  23478839.064    -3870575.932 5   -567639.795 4
  20586500.009   -22284192.695 7 -17268648.600 8
  20070322.024   -21346909.571 7 -16465947.230 8
  22761019.579    -7156102.011 5  -5315976.267 5
  20754470.157   -19296556.589 7 -14937106.318 8
  22863933.454    11585226.136 4   9053121.382 3
  20743866.735    -3148114.853 7  -2403337.462 9
 94  2 13 12 31 29.9970000  0  8 17  9 28 21 31  1  3 23
  21657728.196     4149245.210 6   3248920.974 6
  23471933.212    -3906871.102 5   -595921.728 5
  20580289.993   -22316819.073 7 -17294071.758 8
  20064470.556   -21377657.974 7 -16489907.017 8
  22744344.196    -7243722.290 5  -5384251.782 5
  20736795.728   -19389429.119 7 -15009474.515 8
  22883724.571    11689202.676 4   9134142.054 4
  20749220.470    -3119981.148 7  -2381415.096 9
 94  2 13 12 31 59.9970000  0  8 17  9 28 21 31  1  3 23
  21667785.876     4202096.771 6   3290103.995 6
  23465109.220    -3942722.106 5   -623857.573 5
  20574203.689   -22348807.328 7 -17318997.674 8
  20058672.845   -21408128.534 7 -16513650.303 8
  22727746.306    -7330942.209 5  -5452215.363 5
  20719200.298   -19481896.146 7 -15081526.732 8
  22903557.681    11793422.935 5   9215352.632 4
  20754600.813    -3091707.925 7  -2359384.016 9
 94  2 13 12 32 29.9970000  0  8 17  9 28 21 31  1  3 23
  21677890.767     4255203.175 6   3331485.601 6
  23458374.290    -3978125.263 5   -651444.433 3
  20568239.462   -22380141.504 6 -17343413.912 8
  20052926.649   -21438327.820 7 -16537182.210 8
  22711228.470    -7417752.639 5  -5519859.850 5
  20701681.149   -19573957.769 7 -15153263.059 8
  22923440.853    11897891.595 5   9296756.787 4
  20760008.993    -3063283.582 7  -2337235.184 9
 94  2 13 12 32 59.9970000  0  8 17  9 28 21 31  1  3 23
  21688042.626     4308554.040 6   3373057.699 6
  23451724.431    -4013066.734 5   -678671.530 3
  20562401.759   -22410815.981 6 -17367316.106 8
  20047227.188   -21468274.764 7 -16560517.486 8
  22694785.540    -7504152.995 5  -5587184.793 5
  20684240.743   -19665613.415 7 -15224683.032 8
  22943365.274    12002602.624 5   9378349.782 4
  20765448.087    -3034706.469 7  -2314967.307 9
 94  2 13 12 33 29.9970000  0  8 17  9 28 21 31  1  3 23
  21698240.540     4362144.872 6   3414816.782 6
  23445166.759    -4047537.171 5   -705531.611 5
  20556689.517   -22440829.089 6
  20041572.048   -21498003.794 7
  22678420.017    -7590135.998 5  -5654184.540 5
  20666874.134   -19756870.157 7 -15295792.179 8
  22963333.345    12107553.375 5   9460129.591 3
  20770911.345    -3005991.915 7  -2292592.332 9
 94  2 13 12 33 59.9970000  0  8 17  9 28 21 31  1  3 23
  21708486.064     4415988.914 6   3456773.174 6
  23438695.642    -4081541.110 5   -732028.184 4
  20551102.446   -22470193.566 6 -17413584.366 8
  20035950.681   -21527540.983 6 -16606698.950 8
  22662147.196    -7675685.008 5  -5720846.097 5
  20649586.665   -19847721.271 7 -15366585.250 8
  22983356.118    12212740.873 5   9542093.874 3
  20776399.759    -2977151.329 7  -2270119.154 9
 94  2 13 12 34 29.9970000  0  8 17  9 28 21 31  1  3 23
  21718786.235     4470106.425 6   3498942.646 6
  23432315.298    -4115068.005 5   -758153.014 4
  20545637.548   -22498926.601 6 -17435973.753 8
  20030366.384   -21556880.975 7 -16629561.275 8
  22645954.470    -7760780.769 5  -5787154.475 5
  20632379.829   -19938145.140 7 -15437045.402 8
  23003415.970    12318165.364 5   9624242.810 3
  20781913.696    -2948180.261 7  -2247544.293 9
 94  2 13 12 34 59.9970000  0  8 17  9 28 21 31  1  3 23
  21729140.821     4524514.020 6   3541338.161 6
  23426023.907    -4148131.977 5   -783917.126 3
  20540284.399   -22527042.733 6 -17457882.434 8
  20024821.407   -21586023.382 6 -16652269.635 8
  22629845.298    -7845414.585 5  -5853102.904 5
  20615255.993   -20028131.347 7 -15507164.513 8
  23023520.759    12423818.095 5   9706569.608 3
  20787450.610    -2919081.619 7  -2224870.030 9
 94  2 13 12 35 29.9970000  0  8 17  9 28 21 31  1  3 23
  21739549.056     4579227.262 6   3583971.845 6
  23419814.993    -4180739.503 5   -809325.590 4
  20535049.376   -22554555.001 6 -17479320.560 8
  20019318.009   -21614953.529 7 -16674812.604 8
  22613827.642    -7929582.196 5  -5918688.043 5
  20598214.470   -20117679.835 7 -15576942.552 8
  23043670.181    12529698.573 5   9789073.877 3
  20793014.298    -2889848.266 7  -2202090.790 9
 94  2 13 12 35 59.9970000  0  8 17  9 28 21 31  1  3 23
  21750021.681     4634256.815 6   3626852.005 6
  23413699.235    -4212887.496 5   -834375.965 4
  20529929.915   -22581460.974 7 -17500286.261 8
  20013857.274   -21643632.775 6 -16697160.065 8
  22597900.782    -8013282.810 5  -5983909.313 5
  20581260.048   -20206779.941 7 -15646371.201 8
  23063863.759    12635810.501 5   9871758.495 4
  20798604.306    -2860466.893 7  -2179196.213 9
 94  2 13 12 36 29.9970000  0  8 17  9 28 21 31  1  3 23
  21760552.407     4689580.971 6   3669961.729 6
  23407668.360    -4244585.098 5   -859075.365 5
  20524928.970   -22607750.357 7 -17520771.493 8
  20008449.610   -21672052.320 7 -16719305.162 8
  22582060.931    -8096536.828 5  -6048782.571 5
  20564387.720   -20295439.012 7 -15715456.183 9
  23084096.001    12742147.557 5   9954618.532 2
  20804221.462    -2830944.752 7  -2156191.952 9
 94  2 13 12 36 59.9970000  0  8 17  9 28 21 31  1  3 23
  21771136.899     4745195.947 6   3713298.062 6
  23401726.087    -4275837.405 5   -883427.820 5
  20520044.126   -22633413.185 7 -17540768.510 8
  20003092.415   -21700218.909 7 -16741253.145 8
  22566301.407    -8179347.874 5  -6113310.645 5
  20547598.579   -20383663.922 7 -15784202.863 9
  23104377.282    12848709.375 5  10037653.713 4
  20809865.274    -2801287.009 7  -2133082.022 9
 94  2 13 12 37 29.9970000  0  8 17  9 28 21 31  1  3 23
  21781767.868     4801082.987 6   3756846.398 6
  23395858.063    -4306639.917 5   -907429.748 4
  20515280.212   -22658443.209 7 -17560272.427 8
  19997780.110   -21728131.462 7 -16763003.187 8
  22550624.884    -8261733.467 5  -6177507.213 5
  20530891.040   -20471472.941 7 -15852625.476 9
  23124698.657    12955488.998 5  10120858.618 4
  20815533.806    -2771503.602 7  -2109874.174 9
 94  2 13 12 37 59.9970000  0  8 17  9 28 21 31  1  3 23
  21792453.587     4857232.763 6   3800599.458 6
  23390081.181    -4336985.930 5   -931075.990 4
  20510639.751   -22682829.461 7 -17579274.707 8
  19992515.290   -21755797.218 7 -16784560.910 8
  22535028.009    -8343686.755 5  -6241366.907 5
  20514261.345   -20558863.637 7 -15920722.104 9
  23145059.478    13062487.483 5  10204234.039 2
  20821225.173    -2741588.768 7  -2086563.916 9
 94  2 13 12 38 29.9970000  0  8 17  9 28 21 31  1  3 23
  21803185.142     4913638.845 6   3844552.236 6
  23384399.399    -4366864.020 5   -954357.594 5
  20506122.728   -22706578.748 7 -17597780.646 8
  19987293.149   -21783234.780 7 -16805940.819 8
  22519518.165    -8425199.923 5  -6304883.655 5
  20497709.001   -20645832.639 7 -15988490.152 9
  23165457.610    13169700.206 4  10287776.429 2
  20826942.071    -2711546.951 7  -2063154.708 9
 94  2 13 12 38 59.9970000  0  8 17  9 28 21 31  1  3 23
  21813969.548     4970300.965 6   3888704.522 6
  23378802.735    -4396259.267 5   -977262.975 5
  20501719.345   -22729708.434 7 -17615803.788 8
  19982115.978   -21810438.233 7 -16827138.314 8
  22504089.126    -8506262.186 5  -6368049.063 5
  20481242.095   -20732373.891 7 -16055924.890 9
  23185897.157    13277122.081 4  10371481.744 3
  20832685.759    -2681369.156 7  -2039639.545 9
 94  2 13 12 39 29.9970000  0  8 17  9 28 21 31  1  3 23
  21824797.970     5027216.679 6   3933054.418 6
  23373305.985    -4425156.094 5   -999779.962 5
  20497434.071   -22752225.384 7 -17633349.465 8
  19976987.212   -21837393.620 7 -16848142.512 9
  22488753.517    -8586874.312 5  -6430863.707 5
  20464858.485   -20818475.587 7 -16123017.111 9
  23206378.024    13384753.118 4  10455350.089 3
  20838456.595    -2651049.581 7  -2016013.905 9
 94  2 13 12 39 59.9970000  0  8 17  9 28 21 31  1  3 23
  21835679.009     5084381.326 6   3977598.292 6
  23367899.189    -4453550.921 5  -1021905.793 4
  20493265.337   -22774138.616 7 -17650424.709 8
  19971905.056   -21864100.209 7 -16868952.841 9
  22473497.540    -8667025.012 5  -6493318.796 5
  20448563.407   -20904111.464 7 -16189746.357 9
  23226899.962    13492589.218 5  10539378.212 2
  20844249.243    -2620600.059 7  -1992287.005 9
 94  2 13 12 40 29.9970000  0  8 17  9 28 21 31  1  3 23
  21846607.446     5141810.747 6   4022348.478 6
  23362596.134    -4481445.489 5  -1043641.818 5
  20489210.439   -22795445.108 7 -17667027.181 8
  19966871.759   -21890548.900 7 -16889562.207 8
  22458337.587    -8746705.112 5  -6555407.178 5
  20432358.634   -20989264.248 7 -16256099.171 9
  23247461.540    13600628.728 5  10623564.834 2
  20850068.892    -2590026.160 7  -1968463.188 9
 94  2 13 12 40 59.9970000  0  8 17  9 28 21 31  1  3 23
  21857584.423     5199500.905 6   4067301.836 6
  23357380.321    -4508844.449 5  -1064991.643 5
  20485269.688   -22816149.968 7 -17683160.849 8
  19961886.798   -21916749.170 7 -16909977.999 8
  22443263.954    -8825917.414 5  -6617131.038 5
  20416242.126   -21073950.734 7 -16322088.632 9
  23268051.001    13708862.735 4  10707903.012 3
  20855908.899    -2559329.973 7  -1944544.088 9
 94  2 13 12 41 29.9970000  0  8 17  9 28 21 31  1  3 23
  21868613.634     5257468.684 6   4112471.520 6
  23352263.009    -4535749.207 5  -1085956.352 5
  20481446.946   -22836235.291 7 -17698811.751 8
  19956946.845   -21942716.775 7 -16930212.499 8
  22428281.907    -8904654.968 5  -6678484.967 5
  20400215.228   -21158174.184 7 -16387717.290 9
  23288689.251    13817293.506 5  10792394.508 2
  20861775.860    -2528508.476 7  -1920527.331 9
 94  2 13 12 41 59.9970000  0  8 17  9 28 21 31  1  3 23
  21879700.626     5315715.102 6   4157858.328 6
  23347237.056    -4562170.942 5  -1106544.728 5
  20477746.634   -22855682.171 7 -17713965.170 8
  19952047.204   -21968465.923 7 -16950276.763 8
  22413392.392    -8982899.258 5  -6739454.541 5
  20384274.384   -21241942.689 7 -16452991.436 8
  23309362.853    13925915.424 5  10877034.975 2
  20867663.657    -2497553.575 7  -1896406.629 9
 94  2 13 12 42 29.9970000  0  8 17  9 28 21 31  1  3 23
  21890838.314     5374247.329 6   4203467.843 6
  23342299.360    -4588096.368 5  -1126746.346 4
  20474170.915   -22874483.098 7 -17728615.244 8
  19947185.329   -21993998.894 7 -16970172.575 8
  22398595.423    -9060650.519 5  -6800039.930 5
  20368418.337   -21325269.782 7 -16517921.632 9
  23330066.095    14034732.871 4  10961827.804 1
  20873584.126    -2466448.469 7  -1872168.880 9
 94  2 13 12 42 59.9970000  0  8 17  9 28 21 31  1  3 23
  21902030.767     5433055.148 6   4249292.104 6
  23337468.126    -4613522.886 5
  20470713.024   -22892644.562 7 -17742767.039 8
  19942368.329   -22019318.566 7
  22383888.681    -9137931.820 5  -6860259.126 5
  20352643.032   -21408165.932 7 -16582516.024 9
  23350811.423    14143739.702 4  11046768.173 3
  20879530.571    -2435195.432 7  -1847815.868 9
 94  2 13 12 43 29.9970000  0  8 17  9 28 21 31  1  3 23
  21913272.259     5492138.769 6   4295331.268 6
  23332714.532    -4638473.841 5  -1166001.487 5
  20467379.071   -22910161.660 7 -17756416.735 8
  19937592.345   -22044420.449 7 -17009462.097 8
  22369270.548    -9214750.128 5  -6920117.541 5
  20336951.860   -21490625.409 7 -16646770.159 9
  23371588.360    14252927.737 3  11131849.737 3
  20885502.103    -2403810.736 7  -1823360.258 9
 94  2 13 12 43 59.9970000  0  8 17  9 28 21 31  1  3 23
  21924570.103     5551501.155 6   4341587.664 6
  23328053.517    -4662953.989 5  -1185076.922 5
  20464167.446   -22927040.161 7 -17769568.820 8
  19932860.470   -22069283.062 7 -17028835.554 8
  22354741.704    -9291101.453 5  -6979612.079 5
  20321346.290   -21572634.548 7 -16710673.375 9
  23392401.337    14362296.250 3  11217071.957 1
  20891498.962    -2372306.822 7  -1798811.753 9
 94  2 13 12 44 29.9970000  0  8 17  9 28 21 31  1  3 23
  21935918.931     5611142.126 6   4388061.133 6
  23323488.376    -4686962.526 5  -1203784.864 5
  20461073.868   -22943304.684 7 -17782242.483 8
  19928173.024   -22093911.619 7 -17048026.638 8
  22340299.524    -9367007.455 5  -7038759.612 5
  20305825.813   -21654190.413 7 -16774223.394 9
  23413241.360    14471839.033 3  11302429.972 3
  20897511.860    -2340702.872 7  -1774185.298 9
 94  2 13 12 44 59.9970000  0  8 17  9 28 21 31  1  3 23
  21947319.899     5671061.250 6   4434751.356 6
  23319001.556    -4710514.083 5  -1222136.708 4
  20458096.009   -22958952.806 7 -17794435.825 8
  19923530.923   -22118303.800 7 -17067033.529 9
  22325941.149    -9442454.318 5  -7097549.353 5
  20290393.548   -21735288.304 7 -16837416.545 9
  23434122.540    14581553.223 3  11387921.524 2
  20903546.384    -2308998.226 7  -1749480.380 9
 94  2 13 12 45 29.9970000  0  8 17  9 28 21 31  1  3 23
  21958777.157     5731254.993 6   4481655.550 6
  23314613.681    -4733610.828 5  -1240134.162 5
  20455238.173   -22973976.644 7 -17806142.720 8
  19918934.509   -22142460.173 7 -17085856.672 9
  22311673.876    -9517403.504 5  -7155951.306 5
  20275050.556   -21815916.760 7 -16900243.898 9
  23455034.524    14691439.047 3  11473546.836 2
  20909598.970    -2277187.976 7  -1724693.177 9
 94  2 13 12 45 59.9970000  0  8 17  9 28 21 31  1  3 23
  21970276.423     5791702.811 6   4528757.741 6
  23310301.673    -4756228.617 5  -1257758.405 4
  20452496.860   -22988382.046 7 -17817367.710 8
  19914380.259   -22166388.072 7 -17104501.787 8
  22297512.564    -9591843.386 5  -7213956.423 5
  20259797.376   -21896074.851 7 -16962704.738 9
  23475972.829    14801494.892 3  11559304.650 1
  20915675.688    -2245258.534 7  -1699813.091 9
 94  2 13 12 46 29.9970000  0  8 17  9 28 21 31  1  3 23
  21981826.728     5852388.501 6   4576045.272 6
  23306092.923    -4778357.015 5  -1275001.294 5
  20449871.415   -23002161.665 7 -17828105.082 8
  19909872.407   -22190089.988 7 -17122970.807 9
  22283445.251    -9665770.317 5  -7271561.824 5
  20244629.040   -21975781.156 7 -17024813.537 9
  23496949.110    14911714.151 3  11645189.759 1
  20921774.282    -2213206.224 7  -1674837.263 8
 94  2 13 12 46 59.9970000  0  8 17  9 28 21 31  1  3 23
  21993419.134     5913316.915 6   4623521.953 6
  23301977.610    -4799993.965 5  -1291861.265 5
  20447372.259   -23015306.999 6 -17838348.206 8
  19905405.438   -22213551.981 7 -17141252.877 9
  22269476.353    -9739169.429 5  -7328755.934 5
  20229549.946   -22055026.018 7 -17086562.771 9
  23517958.110    15022096.114 3  11731201.678 3
  20927897.392    -2181028.677 7  -1649763.847 9
 94  2 13 12 47 29.9970000  0  8 17  9 28 21 31  1  3 23
  22005058.610     5974488.815 6   4671188.365 6
  23297957.196    -4821123.103 5  -1308325.517 5
  20444992.532   -23027813.320 6 -17848093.397 8
  19900988.087   -22236770.218 7 -17159345.003 9
  22255608.142    -9812051.487 5  -7385547.142 5
  20214559.704   -22133800.227 7 -17147945.261 9
  23538991.009    15132638.231 3  11817338.421 2
  20934044.079    -2148730.569 7  -1624596.487 9
 94  2 13 12 47 59.9970000  0  8 17  9 28 21 31  1  3 23
  22016745.814     6035907.586 6   4719047.132 6
  23294034.415    -4841732.583 5  -1324384.831 5
  20442732.509   -23039687.713 7 -17857346.180 8
  19896614.618   -22259749.908 7 -17177251.250 9
  22241830.001    -9884451.769 5  -7441962.939 5
  20199657.251   -22212112.779 7 -17208968.019 9
  23560056.603    15243334.752 3  11903595.401 1
  20940209.142    -2116329.000 7  -1599348.512 9
 94  2 13 12 48 29.9970000  0  8 17  9 28 21 31  1  3 23
  22028486.274     6097596.642 6   4767116.506 6
  23290207.649    -4861826.465 5  -1340042.396 4
  20440593.149   -23050928.655 7 -17866105.365 8
  19892288.024   -22282488.567 7 -17194969.685 9
  22228143.204    -9956381.968 5  -7498012.445 5
  20184846.517   -22289947.219 7 -17269618.221 9
  23581150.259    15354187.063 3  11989973.839 1
  20946393.556    -2083829.501 7  -1574024.227 9
 94  2 13 12 48 59.9970000  0  8 17  9 28 21 31  1  3 23
  22040277.923     6159548.926 6   4815391.007 6
  23286478.790    -4881408.573 5  -1355301.195 5
  20438571.415   -23061545.428 7 -17874378.187 8
  19888005.056   -22305005.824 7 -17212515.592 9
  22214542.274   -10027856.368 5  -7553706.781 5
  20170127.087   -22367291.527 7 -17329886.508 9
  23602273.243    15465188.391 3  12076468.338 2
  20952598.228    -2051228.031 7  -1548620.480 9
 94  2 13 12 49 29.9970000  0  8 17  9 28 21 31  1  3 23
  22052112.274     6221750.351 6   4863859.641 6
  23282856.407    -4900476.470 5  -1370159.292 5
  20436670.415   -23071533.015 7 -17882160.726 8
  19883759.454   -22327315.434 7 -17229899.701 9
  22201027.181   -10098882.862 5  -7609052.102 5
  20155499.556   -22444162.617 7 -17389786.051 9
  23623420.454    15576334.182 3  12163075.451 1
  20958820.735    -2018527.862 7  -1523139.831 8
 94  2 13 12 49 59.9970000  0  8 17  9 28 21 31  1  3 23
  22064002.228     6284217.255 6   4912535.140 6
  23279330.556    -4919026.353 5  -1384613.722 4
  20434891.470   -23080888.336 7 -17889450.588 8
  19879551.806   -22349414.082 7 -17247119.418 9
  22187596.243   -10169444.338 5  -7664035.059 5
  20140962.439   -22520559.888 7 -17449316.380 9
  23644602.298    15687629.538 3  12249799.063 1
  20965064.782    -1985714.516 7  -1497570.988 8
 94  2 13 12 50 29.9970000  0  8 17  9 28 21 31  1  3 23
  22075935.837     6346941.608 6   4961411.245 6
  23275890.415    -4937070.085 5  -1398673.765 5
  20433230.634   -23089608.076 7 -17896245.201 8
  19875389.626   -22371297.718 7 -17264171.598 9
  22174261.048   -10239524.709 5  -7718643.140 5
  20126514.290   -22596485.979 7 -17508479.556 9
  23665809.821    15799065.133 3  12336631.986 2
  20971334.665    -1952766.607 7  -1471897.295 8
 94  2 13 12 50 59.9970000  0  8 17  9 28 21 31  1  3 23
  22087921.806     6409911.635 6   5010478.782 6
  23272554.056    -4954617.894 5  -1412347.388 5
  20431693.274   -23097699.952 6 -17902550.557 8
  19871265.071   -22392965.799 7 -17281055.815 8
  22161020.892   -10309116.302 6  -7772870.355 5
  20112152.853   -22671954.365 7 -17567286.079 9
  23687038.243    15910632.046 3  12423567.217 2
  20977628.728    -1919684.835 7  -1446119.292 9
 94  2 13 12 51 29.9970000  0  8 17  9 28 21 31  1  3 23
  22099953.923     6473151.794 6   5059756.812 6
  23269304.415    -4971665.653 5  -1425631.351 4
  20430272.259   -23105164.141 6 -17908366.808 8
  19867186.626   -22414400.322 7 -17297758.037 9
  22147874.931   -10378191.701 6  -7826695.349 5
  20097878.720   -22746954.421 7 -17625727.674 9
  23708294.587    16022338.884 3  12510611.501 2
  20983950.993    -1886466.925 7  -1420235.206 9
 94  2 13 12 51 59.9970000  0  8 17  9 28 21 31  1  3 23
  22112036.454     6536666.034 6   5109248.422 6
  23266162.439    -4988221.921 5  -1438532.328 3
  20428966.735   -23112020.136 6 -17913709.152 8
  19863152.439   -22435603.075 7 -17314279.659 9
  22134829.985   -10446750.192 6  -7880117.536 5
  20083697.821   -22821480.065 7 -17683799.593 9
  23729580.040    16134178.177 3  12597758.972 2
  20990297.876    -1853113.992 7  -1394245.907 8
 94  2 13 12 52 29.9970000  0  8 17  9 28 21 31  1  3 23
  22124177.251     6600447.407 5   5158948.177 6
  23263097.579    -5004285.013 5  -1451049.000 4
  20427779.524   -23118273.034 6 -17918581.548 8
  19859161.228   -22456569.784 7 -17330617.347 8
  22121882.181   -10514790.826 6  -7933136.216 5
  20069609.798   -22895517.150 7 -17741490.816 9
  23750881.204    16246150.006 3  12685009.749 1
  20996668.532    -1819639.407 7  -1368161.813 8
 94  2 13 12 52 59.9970000  0  8 17  9 28 21 31  1  3 23
  22136365.032     6664494.895 5   5208855.301 6
  23260128.587    -5019856.683 5  -1463182.759 5
  20426701.751   -23123937.827 6 -17922995.672 8
  19855213.595   -22477320.787 7 -17346786.961 9
  22109033.407   -10582314.165 6  -7985751.799 5
  20055612.290   -22969070.082 7 -17798804.776 9
  23772212.915    16358248.914 3  12772359.527 1
  21003054.196    -1786073.886 7  -1342006.864 8
 94  2 13 12 53 29.9970000  0  8 17  9 28 21 31  1  3 23
  22148603.079     6728809.365 5   5258970.465 6
  23257269.704    -5034933.099 5  -1474930.606 5
  20425736.337   -23129005.347 6 -17926944.388 8
  19851303.735   -22497858.426 7 -17362790.315 9
  22096280.673   -10649324.347 6  -8037967.524 5
  20041709.071   -23042134.100 7 -17855737.762 9
  23793573.735    16470471.933 3  12859805.996 1
  21009458.579    -1752417.995 7  -1315781.502 8
 94  2 13 12 53 59.9970000  0  8 17  9 28 21 31  1  3 23
  22160892.235     6793380.437 5   5309285.577 5
  23254496.767    -5049500.750 5  -1486282.029 5
  20424889.470   -23133459.821 6 -17930415.418 8
  19847437.431   -22518178.640 7 -17378624.244 9
  22083623.064   -10715831.166 6  -8089791.016 5
  20027899.368   -23114708.532 7 -17912289.261 9
  23814953.376    16582817.260 3  12947347.819 1
  21015880.368    -1718663.500 7  -1289479.298 8
 94  2 13 12 54 29.9970000  0  8 17  9 28 21 31  1  3 23
  22173224.462     6858199.714 5   5359794.095 5
  23251818.978    -5063559.586 5  -1497236.966 5
  20424159.665   -23137285.843 6 -17933396.737 8
  19843612.321   -22538283.791 7 -17394290.586 8
  22071064.579   -10781822.703 6  -8141212.987 5
  20014181.751   -23186795.864 7 -17968461.193 9
  23836350.821    16695281.005 3  13034981.896 1
  21022325.134    -1684810.418 7  -1263100.272 8
 94  2 13 12 54 59.9970000  0  8 17  9 28 21 31  1  3 23
  22185609.517     6923274.207 5   5410501.468 6
  23249252.415    -5077106.462 5  -1507792.961 5
  20423551.931   -23140472.097 6 -17935879.541 8
  19839827.517   -22558170.121 7 -17409786.434 9
  22058608.626   -10847284.144 6  -8192221.911 5
  20000558.110   -23258386.905 7 -18024246.410 9
  23857774.728    16807865.075 3  13122709.673 1
  21028790.595    -1650841.436 7  -1236630.936 8
 94  2 13 12 55 29.9970000  0  8 17  9 28 21 31  1  3 23
  22198038.884     6988595.715 5   5461401.330 6
  23246761.923    -5090147.642 5  -1517954.912 5
  20423065.931   -23143020.036 6 -17937864.952 8
  19836086.751   -22577824.464 7 -17425101.503 9
  22046251.360   -10912219.795 6  -8242821.117 5
  19987028.813   -23329476.161 7 -18079640.624 9
  23879225.251    16920564.253 3  13210527.234 1
  21035276.063    -1616745.641 7  -1210062.787 8
 94  2 13 12 55 59.9970000  0  8 17  9 28 21 31  1  3 23
  22210514.118     7054152.698 5   5512484.681 6
  23244375.564    -5102680.631 5  -1527720.874 5
  20422702.907   -23144940.869 6 -17939361.702 8
  19832390.415   -22597252.200 7 -17440239.997 8
  22033992.946   -10976627.367 6  -8293008.824 5
  19973596.907   -23400071.312 7 -18134649.823 9
  23900690.251    17033371.526 3
  21041787.821    -1582532.693 7  -1183403.350 8
 94  2 13 12 56 29.9970000  0  8 17  9 28 21 31  1  3 23
  22223035.681     7119949.625 5   5563755.002 5
  23242084.188    -5114713.957 5  -1537097.478 5
  20422454.282   -23146251.024 6 -17940382.605 8
  19828738.782   -22616450.905 7 -17455200.022 9
  22021840.501   -11040502.465 6  -8342781.629 5
  19960258.024   -23470165.783 7 -18189268.881 9
  23922176.376    17146281.192 3
  21048316.142    -1548221.784 7  -1156667.574 8
 94  2 13 12 56 59.9970000  0  8 17  9 28 21 31  1  3 23
  22235600.048     7185989.735 5   5615214.815 5
  23239893.798    -5126239.095 5  -1546078.103 5
  20422320.649   -23146958.102 7 -17940933.578 8
  19825131.884   -22635401.157 7 -17469966.451 9
  22009785.938   -11103852.973 6  -8392145.667 5
  19947013.853   -23539760.136 7 -18243498.236 9
  23943678.392    17259295.143 3        -0.16411
  21054864.446    -1513811.306 7  -1129854.222 8
 94  2 13 12 57 29.9970000  0  8 17  9 28 21 31  1  3 23
  22248215.454     7252274.760 5   5666865.479 6
  23237802.024    -5137243.289 5  -1554652.789 5
  20422301.118   -23147055.273 6
  19821575.188   -22654092.111 7 -17484530.827 9
  21997831.993   -11166676.273 6  -8441098.892 5
  19933863.907   -23608868.969 7 -18297349.268 9
  23965205.267    17372416.797 3     88146.620 1
  21061432.462    -1479298.370 7  -1102961.026 8
 94  2 13 12 57 59.9970000  0  8 17  9 28 21 31  1  3 23
  22260872.845     7318797.956 5   5718701.721 5
  23235807.860    -5147729.680 5  -1562823.999 5
  20422398.618   -23146546.991 6
  19818062.079   -22672542.419 7 -17498907.683 9
  21985974.032   -11228981.081 6  -8489648.097 5
  19920801.290   -23677507.846 7 -18350834.099 9
  23986753.157    17485636.741 3    176369.869 1
  21068018.173    -1444696.424 7  -1075998.474 8
 94  2 13 12 58 29.9970000  0  8 17  9 28 21 31  1 12 23
  22273579.579     7385566.513 5   5770729.156 5
  23233912.532    -5157696.734 5  -1570590.532 5
  20422611.837   -23145428.659 6 -17939741.817 8
  19814598.571   -22690757.688 7 -17513101.398 9
  21974221.399   -11290760.807 6  -8537788.135 5
  19907829.868   -23745674.470 7 -18403950.932 9
  23748430.032          -0.41813
  21074618.907    -1409997.772 7  -1048960.569 8
 94  2 13 12 58 59.9970000  0  8 17  9 28 21 31  1 12 23
  22286336.954     7452582.610 5   5822949.481 5
  23232109.946    -5167142.585 5  -1577950.927 5
  20422943.189   -23143685.304 6 -17938383.365 8
  19811173.657   -22708754.532 7 -17527124.913 9
  21962566.063   -11352009.050 6  -8585514.043 5
  19894948.353   -23813369.017 7 -18456699.919 9
  23736201.118      -64218.708 3
  21081243.837    -1375186.623 7  -1021834.998 8
 94  2 13 12 59 29.9970000  0  8 17  9 28 21 31  1 12 23
  22299132.845     7519849.274 5   5875365.051 5
  23230407.149    -5176066.886 5  -1584904.909 5
  20423391.774   -23141315.704 6 -17936536.933 8
  19807785.009   -22726560.216 7 -17540999.468 9
  21951008.313   -11412727.005 6  -8632826.749 6
  19882159.306   -23880572.405 7 -18509066.187 9
  23724074.485     -127976.361 3        -0.05112
  21087888.939    -1340268.122 7   -994625.778 8
 94  2 13 12 59 59.9970000  0  8 17  9 28 21 31  1 12 23
  22311986.353     7587381.628 5   5927987.644 5
  23228810.587    -5184472.566 5  -1591454.773 5
  20423961.665   -23138329.856 6 -17934210.295 8
  19804430.134   -22744182.044 7 -17554730.764 8
  21939555.048   -11472918.229 6  -8679728.997 5
  19869470.829   -23947254.745 7 -18561026.449 9
  23712036.462     -191269.313 3    -49319.175 2
  21094553.446    -1305246.593 7   -967336.273 8
 94  2 13 13  0 29.9970000  0  8 17  9 28 21 31  1 12 23
  22324886.095     7655182.621 5   5980819.570 6
  23227310.681    -5192354.478 5  -1597596.520 5
  20424643.782   -23134735.621 6 -17931409.601 8
  19801114.931   -22761614.685 7 -17568314.628 9
  21928201.610   -11532588.511 6  -8726225.316 6
  19856883.782   -24013401.601 7 -18612569.447 9
  23700075.149     -254096.221 3    -98275.231 2
  21101236.751    -1270119.932 6   -939964.847 7
 94  2 13 13  0 59.9970000  0  8 17  9 28 21 31  1 12 23
  22337834.110     7723246.608 5   6033856.433 6
  23225909.368    -5199716.272 5  -1603332.992 5
  20425442.978   -23130536.427 6 -17928137.501 8
  19797836.110   -22778848.608 7 -17581743.661 9
  21916945.282   -11591746.324 6  -8772322.319 5
  19844397.306   -24079011.832 7 -18663694.296 9
  23688215.087     -316453.795 4   -146865.527 2
  21107941.798    -1234886.728 6   -912510.403 8
 94  2 13 13  1 29.9970000  0  8 17  9 28 21 31  1 12 23
  22350839.126     7791571.138 5   6087096.313 5
  23224610.321    -5206566.116 5  -1608670.518 5
  20426355.470   -23125746.082 6 -17924404.772 8
  19794597.009   -22795871.440 7 -17595008.204 9
  21905780.610   -11650409.913 6  -8818034.205 5
  19832010.798   -24144106.156 7 -18714417.140 9
  23676428.985     -378345.952 4   -195093.124 2
  21114665.532    -1199550.458 7   -884975.649 8
 94  2 13 13  1 59.9970000  0  8 17  9 28 21 31  1 12 23
  22363888.985     7860154.641 5   6140537.984 5
  23223394.962    -5212911.857 5  -1613615.254 5
  20427380.415   -23120363.370 6 -17920210.460 8
  19791397.673   -22812667.990 7 -17608096.424 9
  21894712.134   -11708563.157 6  -8863348.418 6
  19819719.548   -24208702.719 7 -18764752.114 9
  23664741.243     -439768.468 4   -242954.830 2
  21121413.024    -1164107.113 7   -857357.463 8
 94  2 13 13  2 29.9970000  0  8 17  9 28 21 31  1 12 23
  22376990.134     7928984.729 5   6194171.808 6
  23222289.931    -5218745.772 5  -1618161.174 5
  20428519.493   -23114371.437 6 -17915541.420 8
  19788246.806   -22829238.207 7 -17621008.273 9
  21883748.017   -11766183.587 6  -8908247.451 5
  19807519.384   -24272813.120 7 -18814708.264 9
  23653148.556     -500715.568 4   -290446.066 2
  21128176.478    -1128548.471 7   -829649.434 8
 94  2 13 13  2 59.9970000  0  8 17  9 28 21 31  1 12 23
  22390133.087     7998061.623 5   6247997.945 5
  23221278.532    -5224086.196 5  -1622322.541 5
  20429776.712   -23107764.718 6 -17910393.336 8
  19785135.767   -22845585.141 7 -17633746.139 9
  21872889.032   -11823264.996 6  -8952726.478 6
  19795410.517   -24336442.178 7 -18864289.337 9
  23641636.290     -561185.462 4   -337565.462 2
  21134966.064    -1092879.253 7   -801855.235 8
 94  2 13 13  3 29.9970000  0  8 17  9 28 21 31  1 12 23
  22403328.782     8067390.304 5   6302020.292 5
  23220352.681    -5228922.158 5  -1626090.816 5
  20431150.001   -23100551.560 6 -17904772.703 8
  19782069.626   -22861699.998 7 -17646303.173 9
  21862132.079   -11879790.261 6  -8996772.137 5
  19783397.993   -24399569.288 7 -18913479.281 9
  23630220.470     -621170.284 4   -384306.872 2
  21141771.931    -1057109.160 6   -773982.436 8
 94  2 13 13  3 59.9970000  0  8 17  9 28 21 31  1 12 23
  22416562.649     8136943.487 5   6356217.565 5
  23219534.939    -5233244.963 5  -1629459.222 5
  20432637.329   -23092741.559 6 -17898686.992 8
  19779041.868   -22877594.537 7 -17658688.521 9
  21851481.071   -11935752.657 6  -9040379.199 5
  19771486.712   -24462168.639 7 -18962257.987 9
  23618896.532     -680670.491 4   -430670.651 3
  21148596.845    -1021249.509 6   -746039.847 8
 94  2 13 13  4 29.9970000  0  8 17  9 28 21 31  1 12 23
  22429843.384     8206713.968 5   6410584.186 5
  23218809.392    -5237047.136 5  -1632421.952 5
  20434234.087   -23084349.293 6 -17892147.570 8
  19776060.579   -22893272.210 7 -17670904.885 9
  21840935.306   -11991171.380 6  -9083562.622 5
  19759674.712   -24524233.816 7 -19010620.456 9
  23607662.728     -739684.336 4   -476655.432 2
  21155437.540     -985295.893 7   -718024.044 8
 94  2 13 13  4 59.9970000  0  8 17  9 28 21 31  1 12 23
  22443157.642     8276698.763 5   6465117.769 5
  23218181.485    -5240334.072 5  -1634983.185 5
  20435936.970   -23075393.872 7 -17885169.326 8
  19773122.282   -22908722.231 7 -17682943.858 9
  21830492.376   -12046051.558 6  -9126326.419 6
  19747964.063   -24585766.301 7 -19058567.840 9
  23596526.470     -798211.667 4   -522261.134 2
  21162296.228     -949250.971 7   -689937.094 8
 94  2 13 13  5 29.9970000  0  8 17  9 28 21 31  1 12 23
  22456515.282     8346890.430 5   6519812.560 5
  23217652.860    -5243087.519 5  -1637128.726 5
  20437750.415   -23065863.451 6 -17877743.023 8
  19770223.017   -22923950.669 7 -17694810.172 9
  21820152.962   -12100375.738 6  -9168656.936 6
  19736358.110   -24646771.114 7 -19106104.052 9
  23585482.689     -856247.524 4   -567483.876 2
  21169172.868     -913112.810 7   -661777.495 8
 94  2 13 13  5 59.9970000  0  8 17  9 28 21 31  1 12 23
  22469912.524     8417294.590 5   6574672.935 5
  23217231.595    -5245316.346 5  -1638865.460 5
  20439680.423   -23055740.406 6 -17869854.943 8
  19767363.423   -22938970.128 7 -17706513.645 9
  21809921.337   -12154149.452 6  -9210558.542 6
  19724843.899   -24707266.075 7 -19153242.968 9
  23574533.204     -913791.538 4   -612323.315 1
  21176068.392     -876874.179 7   -633539.602 8
 94  2 13 13  6 29.9970000  0  8 17  9 28 21 31  1 12 23
  22483353.462     8487937.585 5   6629719.407 5
  23216908.931    -5247029.374 5  -1640200.297 5
  20441719.353   -23045007.045 6 -17861491.294 8
  19764548.298   -22953774.176 7 -17718049.263 9
  21799796.431   -12207365.554 6  -9252025.635 6
  19713425.478   -24767271.089 7 -19200000.113 9
  23563687.009     -970837.714 5   -656774.881 2
  21182987.149     -840534.859 7   -605223.249 7
 94  2 13 13  6 59.9970000  0  8 17  9 28 21 31  1 12 23
  22496847.712     8558829.047 5   6684959.491 5
  23216683.720    -5248231.959 5  -1641137.364 5
  20443884.103   -23033643.000 6 -17852636.200 8
  19761770.798   -22968362.847 7 -17729417.055 9
  21789775.728   -12260013.965 6  -9293050.359 6
  19702102.407   -24826785.340 7 -19246374.846 9
  23552921.759    -1027383.016 4   -700836.122 2
  21189916.563     -804107.328 7   -576838.159 8
 94  2 13 13  7 29.9970000  0  8 17  9 28 21 31  1 12 23
  22510384.985     8629978.172 5   6740400.337 5
  23216550.313    -5248932.558 5  -1641683.274 5
  20446163.282   -23021654.352 6 -17843294.397 8
  19759035.001   -22982740.884 7 -17740620.720 9
  21779860.642   -12312120.497 6  -9333652.858 6
  19690867.688   -24885818.674 7 -19292374.841 9
  23542258.509    -1083429.622 5   -744508.806 1
  21196865.251     -767595.563 7   -548387.432 7
 94  2 13 13  7 59.9970000  0  8 17  9 28 21 31  1 12 23
  22523967.923     8701385.425 5   6796042.339 5
  23216507.321    -5249143.470 5
  20448557.595   -23009075.483 6 -17833492.678 8
  19756340.290   -22996894.841 7 -17751649.771 9
  21770045.728   -12363700.176 6  -9373844.819 6
  19679723.978   -24944377.495 7 -19338005.078 9
  23531689.064    -1138977.437 5   -787792.796 1
  21203831.454     -730994.213 7   -519866.896 8
 94  2 13 13  8 29.9970000  0  8 17  9 28 21 31  1 12 23
  22537608.892     8773047.827 5   6851883.159 5
  23216563.095    -5248853.573 5
  20451060.220   -22995921.245 6 -17823242.630 8
  19753690.540   -23010825.657 7 -17762504.955 9
  21760333.103   -12414746.649 6  -9413621.291 6
  19668673.337   -25002448.768 7 -19383255.406 9
  23521214.079    -1194018.165 4   -830681.663 2
  21210811.079     -694301.251 7   -491274.980 8
 94  2 13 13  8 59.9970000  0  8 17  9 28 21 31  1 12 23
  22551290.634     8844949.117 5   6907910.115 5
  23216712.173    -5248059.922 5  -1641003.281 5
  20453669.306   -22982218.212 7 -17812564.948 7
  19751079.868   -23024545.720 7 -17773195.912 9
  21750718.360   -12465264.650 6  -9452985.966 6
  19657716.946   -25060022.146 7 -19428117.765 9
  23510836.595    -1248555.928 4   -873178.619 1
  21217810.806     -657522.144 7   -462615.938 7
 94  2 13 13  9 29.9970000  0  8 17  9 28 21 31  1 12 23
  22565016.985     8917077.289 5   6964113.873 5
  23216960.845    -5246751.962 5  -1639984.079 5
  20456377.251   -22967973.160 6 -17801464.913 8
  19748509.321   -23038055.815 7 -17783723.250 9
  21741205.946   -12515240.788 6  -9491928.416 6
  19646858.399   -25117087.908 7 -19472584.581 9
  23500557.087    -1302584.376 4   -915278.704 1
  21224828.618     -620651.424 7   -433885.511 7
 94  2 13 13  9 59.9970000  0  8 17  9 28 21 31  1 12 23
  22578781.735     8989409.811 5   7020476.863 5
  23217309.478    -5244920.305 5  -1638556.826 5
  20459193.806   -22953180.261 6 -17789937.984 8
  19745973.579   -23051383.659 7 -17794108.578 9
  21731806.220   -12564660.524 6  -9530437.298 6
  19636098.868   -25173627.491 7 -19516641.387 9
  23490371.978    -1356105.203 5   -956983.221 2
  21231857.798     -583701.184 7   -405093.113 7
 94  2 13 13 10 29.9970000  0  8 17  9 28 21 31  1 12 23
  22592585.993     9061950.692 5   7077002.204 5
  23217765.220    -5242544.304 5  -1636705.375 5
  20462120.704   -22937815.368 6 -17777965.346 7
  19743467.313   -23064540.562 7 -17804360.705 9
  21722505.915   -12613521.207 6  -9568510.564 6
  19625444.064   -25229623.658 7 -19560274.753 9
  23480281.368    -1409110.257 4   -998285.835 4
  21238903.282     -546677.008 7   -376243.102 7
 94  2 13 13 10 59.9970000  0  8 17  9 28 21 31  1 12 23
  22606427.017     9134698.143 5   7133688.533 5
  23218311.212    -5239630.846 5  -1634435.139 5
  20465154.853   -22921853.905 6 -17765527.847 7
  19741001.931   -23077503.044 7 -17814461.346 9
  21713314.313   -12661827.708 6  -9606151.997 6
  19614889.524   -25285085.978 7 -19603492.136 9
  23470297.048    -1461599.046 5  -1039186.169 3
  21245966.274     -509571.802 7   -347329.957 7
 94  2 13 13 11 29.9970000  0  8 17  9 28 21 31  1 12 23
  22620308.540     9207646.863 5   7190531.684 5
  23218973.462    -5236186.008 5  -1631750.851 5
  20468310.446   -22905280.771 6 -17752613.722 8
  19738573.040   -23090266.550 7 -17824406.930 9
  21704227.579   -12709585.508 6  -9643365.863 6
  19604436.485   -25340015.774 7 -19646294.563 9
  23460402.290    -1513566.622 5  -1079680.352 3
  21253042.970     -472377.460 7   -318347.358 7
 94  2 13 13 11 59.9970000  0  8 17  9 28 21 31  1 12 23
  22634234.189     9280809.538 5   7247541.539 5
  23219726.235    -5232212.871 5  -1628654.896 5
  20471579.431   -22888097.432 6 -17739224.105 8
  19736183.001   -23102827.277 7 -17834194.506 9
  21695239.712   -12756802.337 6  -9680158.198 6
  19594084.478   -25394422.801 7 -19688689.635 9
  23450613.196    -1565012.288 4  -1119767.905 3
  21260137.868     -435096.181 7   -289297.016 7
 94  2 13 13 12 29.9970000  0  8 17  9 28 21 31  1 12 23
  22648199.056     9354189.439 5   7304720.664 5
  23220585.884    -5227726.256 5  -1625158.833 5
  20474964.712   -22870309.847 6 -17725363.659 8
  19733834.860   -23115163.380 7 -17843807.055 9
  21686356.423   -12803478.636 6  -9716529.342 6
  19583828.478   -25448319.124 7 -19730686.761 9
  23440926.860    -1615936.788 5  -1159449.299 4
  21267249.774     -397718.822 7   -260171.799 7
 94  2 13 13 12 59.9970000  0  8 17  9 28 21 31  1 12 23
  22662204.079     9427794.637 5   7362075.356 5
  23221536.126    -5222732.992 5  -1621267.971 5
  20478462.743   -22851923.916 6 -17711036.956 8
  19731535.251   -23127256.465 7 -17853230.225 9
  21677583.063   -12849600.424 6  -9752468.406 6
  19573673.321   -25501691.807 7 -19772275.855 9
  23431328.407    -1666333.768 4  -1198719.652 2
  21274381.024     -360232.013 6   -230961.301 7
 94  2 13 13 13 59.9960000  0  8 17  9 28 21 31  1 12 23
  22690353.191     9575717.893 5   7477340.192 4
  23223719.996    -5211206.069 5  -1612285.944 5
  20485784.856   -22813457.760 6 -17681063.344 8
  19727057.855   -23150778.956 7 -17871559.435 9
  21660347.496   -12940161.901 6  -9823035.790 6
  19553661.246   -25606845.044 7 -19854213.416 9
  23412456.035    -1765532.983 5  -1276017.730 2
  21288699.902     -284987.724 7   -172329.386 7
 94  2 13 13 14 29.9960000  0  8 17  9 28 21 31  1 12 23
  22704493.965     9650035.439 5   7535249.947 5
  23224969.715    -5204678.953 5  -1607199.873 5
  20489597.566   -22793400.440 6 -17665434.273 8
  19724884.293   -23162203.748 7 -17880461.872 9
  21651893.285   -12984593.629 6  -9857657.924 6
  19543803.074   -25658643.338 7 -19894575.711 9
  23403166.176    -1814336.325 4  -1314046.296 2
  21295888.066     -247231.363 6   -142908.848 7
 94  2 13 13 14 59.9960000  0  8 17  9 28 21 31  1 12 23
  22718682.809     9724597.786 5   7593350.450 5
  23226309.777    -5197636.071 5  -1601711.903 5
  20493522.652   -22772787.515 6 -17649372.259 8
  19722750.402   -23173407.188 7 -17889191.824 9
  21643547.645   -13028459.511 6  -9891839.133 6
  19534042.199   -25709931.406 7 -19934540.432 9
  23393981.324    -1862597.055 4  -1351652.031 4
  21303088.902     -209390.468 7   -113422.440 7
 94  2 13 13 15 29.9960000  0  8 17  9 28 21 31  1 12 23
  22732912.785     9799393.921 5   7651633.126 5
  23227744.145    -5190082.197 5  -1595825.762 5
  20497550.262   -22751619.144 6 -17632877.422 8
  19720658.012   -23184403.841 7 -17897760.645 9
  21635307.637   -13071758.989 6  -9925578.982 6
  19524376.223   -25760735.366 7 -19974127.928 9
  23384901.582    -1910315.425 4  -1388835.182 3
  21310303.590     -171469.065 6    -83873.296 7
 94  2 13 13 15 59.9960000  0  8 17  9 28 21 31  1 12 23
  22747190.348     9874409.586 5   7710086.866 5
  23229273.246    -5182021.220 5  -1589544.496 5
  20501685.387   -22729887.624 6 -17615943.774 8
  19718610.348   -23195180.187 7 -17906157.791 9
  21627176.621   -13114489.668 6  -9958875.623 6
  19514800.535   -25811053.489 7 -20013336.849 9
  23375929.113    -1957492.014 4  -1425596.152 4
  21317539.645     -133447.921 6    -54246.430 7
 94  2 13 13 16 29.9960000  0  8 17  9 28 21 31  1 12 23
  22761504.309     9949632.578 5   7768702.169 5
  23230907.871    -5173456.934 5  -1582871.022 5
  20505927.918   -22707591.215 6 -17598569.955 8
  19716598.441   -23205743.897 7 -17914389.252 9
  21619155.402   -13156657.013 6  -9991733.298 6
  19505322.629   -25860863.180 7 -20052149.592 9
  23367052.605    -2004119.827 4  -1461929.503 2
  21324794.254      -95322.113 6    -24538.005 7
 94  2 13 13 16 59.9960000  0  8 17  9 28 21 31  1 12 23
  22775860.277    10025066.952 5   7827482.175 5
  23232629.207    -5164388.332 5  -1575804.578 5
  20510276.340   -22684733.998 6 -17580759.140 8
  19714627.066   -23216109.144 7 -17922466.066 9
  21611234.199   -13198265.654 6 -10024155.622 6
  19495941.152   -25910161.559 7 -20090563.902 9
  23358286.270    -2050197.133 4  -1497833.867 3
  21332069.449      -57097.541 6      5247.370 7
 94  2 13 13 17 29.9960000  0  8 17  9 28 21 31  1 12 23
  22790250.848    10100691.134 5   7886410.079 5
  23234450.949    -5154816.320 5  -1568345.870 5
  20514731.480   -22661328.990 6 -17562521.474 8
  19712691.168   -23226282.819 7 -17930393.600 9
  21603423.488   -13239308.305 6 -10056136.910 6
  19486659.207   -25958933.566 7 -20128568.054 9
  23349620.066    -2095729.464 4  -1533313.603 2
  21339356.676      -18780.057 6     35105.151 7
 94  2 13 13 17 59.9960000  0  8 17  9 28 21 31  1 12 23
  22804675.363    10176510.410 4   7945490.013 5
  23236374.332    -5144736.429 5  -1560491.409 5
  20519288.856   -22637378.886 6 -17543859.056 8
  19710791.356   -23236261.036 7 -17938168.835 9
  21595723.449   -13279780.978 6 -10087674.052 6
  19477482.707   -26007162.134 7 -20166148.744 9
  23341064.738    -2140709.679 5  -1568363.111 2
  21346670.395       19630.369 6     65035.354 7
 94  2 13 13 18 29.9960000  0  8 17  9 28 21 31  1 12 23
  22819141.621    10252530.580 4   8004726.484 5
  23238391.551    -5134142.942 5  -1552236.742 4
  20523951.801   -22612884.639 6 -17524772.636 7
  19708924.684   -23246063.799 7 -17945807.351 9
  21588130.356   -13319686.614 6 -10118769.362 6
  19468404.957   -26054867.816 7 -20203321.996 9
  23332611.051    -2185135.325 5  -1602980.489 3
  21353991.434       58107.801 6     95017.758 7
 94  2 13 13 18 59.9960000  0  8 17  9 28 21 31  1 12 23
  22833652.871    10328749.910 5   8064118.128 5
  23240511.332    -5123018.934 5  -1543568.705 4
  20528714.441   -22587840.460 6 -17505257.710 8
  19707094.637   -23255690.609 7 -17953308.762 9
  21580643.590   -13359022.716 6 -10149420.870 6
  19459423.746   -26102057.822 7 -20240093.420 9
  23324261.449    -2229006.542 4  -1637165.845 4
  21361326.332       96645.917 6    125047.467 7
 94  2 13 13 19 29.9960000  0  8 17  9 28 21 31  1 12 23
  22848193.535    10405177.627 5   8123672.167 4
  23242725.566    -5111350.508 5  -1534476.414 4
  20533589.106   -22562242.498 6 -17485311.252 8
  19705299.824   -23265117.311 7 -17960654.233 9
  21573266.301   -13397792.410 6 -10179631.027 6
  19450542.809   -26148725.073 7 -20276457.506 9
  23316022.152    -2272313.453 5  -1670911.469 3
  21368671.957      135261.207 6    155137.302 7
 94  2 13 13 19 59.9960000  0  8 17  9 28 21 31  1 12 23
  22862775.277    10481812.286 5   8183387.466 5
  23245043.160    -5099153.284 5  -1524972.055 4
  20538562.160   -22536106.921 6 -17464945.878 7
  19703545.535   -23274347.304 7 -17967846.436 9
  21565988.941   -13436026.614 6 -10209423.917 6
  19441762.434   -26194876.127 7 -20312419.354 9
  23307888.887    -2315060.720 5  -1704221.014 3
  21376036.168      173954.694 6    185288.067 7
 94  2 13 13 20 29.9960000  0  8 17  9 28 21 31  1 12 23
  22877398.871    10558659.836 5   8243268.632 5
  23247474.051    -5086419.445 5  -1515049.578 4
  20543639.145   -22509422.473 6 -17444152.795 7
  19701831.238   -23283357.808 7 -17974867.605 9
  21558812.668   -13473719.030 6 -10238794.637 6
  19433081.496   -26240492.571 7 -20347964.629 9
  23299858.613    -2357237.533 4  -1737086.047 2
  21383416.043      212738.189 6    215508.965 7
 94  2 13 13 20 59.9960000  0  8 17  9 28 21 31  1 12 23
  22892061.457    10635712.342 5   8303309.531 4
  23249992.184    -5073171.146 5  -1504726.237 5
  20548818.316   -22482202.992 6 -17422942.826 7
  19700157.957   -23292132.747 7 -17981705.219 9
  21551745.402   -13510872.733 6 -10267745.579 6
  19424505.637   -26285555.511 7 -20383078.605 9
  23291949.238    -2398847.610 5  -1769509.479 2
  21390819.879      251636.121 6    245819.046 7
 94  2 13 13 21 29.9960000  0  8 17  9 28 21 31  1 12 23
  22906767.895    10712974.767 5   8363513.981 4
  23252605.824    -5059433.215 5  -1494021.348 5
  20554098.207   -22454459.262 6 -17401324.341 7
  19698537.090   -23300660.697 7 -17988350.373 9
  21544782.496   -13547474.635 6 -10296266.550 6
  19416033.816   -26330075.212 7 -20417769.268 9
  23284130.379    -2439893.253 4  -1801493.072 3
  21398243.840      290650.307 6    276219.710 7
 94  2 13 13 21 59.9960000  0  8 17  9 28 21 31  1 12 23
  22921506.270    10790444.185 5   8423879.733 5
  23255310.762    -5045208.515 5  -1482937.159 4
  20559481.254   -22426173.772 6 -17379283.706 7
  19696960.535   -23308946.982 7 -17994807.218 9
  21537929.145   -13583489.184 6 -10324329.843 6
  19407666.012   -26374043.361 7 -20452030.156 9
  23276424.215    -2480365.673 4  -1833030.009 2
  21405687.902      329774.367 6    306705.987 7
 94  2 13 13 22 29.9960000  0  8 17  9 28 21 31  1 12 23
  22936291.371    10868126.862 5   8484411.674 4
  23258110.488    -5030494.174 5  -1471471.438 5
  20564966.145   -22397341.314 6 -17356816.860 7
  19695428.277   -23316996.692 7 -18001079.713 9
  21531193.715   -13618894.370 6 -10351918.297 6
  19399401.801   -26417476.458 7 -20485874.118 9
  23268835.121    -2520263.624 5  -1864119.318 4
  21413152.957      369001.283 6    337272.424 7
 94  2 13 13 22 59.9960000  0  8 17  9 28 21 31  1 12 23
  22951112.824    10946020.622 5   8545108.087 3
  23261008.082    -5015287.565 5  -1459622.137 3
  20570558.645   -22367961.912 6 -17333923.830 7
  19693938.481   -23324822.235 7 -18007177.535 9
  21524564.402   -13653697.729 6 -10379037.812 6
  19391237.824   -26460386.285 7 -20519310.341 9
  23261360.535    -2559588.457 5  -1894762.023 2
  21420633.621      408315.986 6    367907.243 7
 94  2 13 13 23 29.9960000  0  8 17  9 28 21 31  1 12 23
  22965973.996    11024127.620 5   8605970.634 5
  23264000.496    -4999569.966 5  -1447374.661 4
  20576250.520   -22338033.233 6 -17310602.782 7
  19692490.090   -23332438.643 7 -18013112.396 9
  21518057.856   -13687903.827 6 -10405691.922 6
  19383171.465   -26502776.776 7 -20552341.882 9
  23253979.957    -2598333.311 5  -1924952.831 3
  21428125.840      447692.502 6    398590.240 7
 94  2 13 13 23 59.9960000  0  8 17  9 28 21 31  1 12 23
  22980878.176    11102444.040 5   8666996.385 4
  23267086.066    -4983334.908 5  -1434723.954 5
  20582053.746   -22307558.342 6 -17286856.121 7
  19691074.262   -23339865.000 7 -18018899.162 9
  21511659.129   -13721538.643 6 -10431900.877 6
  19375201.926   -26544646.962 7 -20584967.990 9
  23246713.645    -2636497.257 5  -1954690.970 1
  21435632.824      487134.472 6    429324.250 7
 94  2 13 13 24 29.9960000  0  8 17  9 28 21 31  1 12 23
  22995817.387    11180964.274 5   8728180.948 3
  23270278.152    -4966575.134 5  -1421664.404 5
  20587949.996   -22276561.661 6 -17262702.871 7
  19689699.988   -23347098.837 7 -18024535.918 9
  21505355.980   -13754633.205 6 -10457688.854 6
  19367332.059   -26586006.155 7 -20617195.924 9
  23239568.020    -2674087.024 5  -1983981.669 3
  21443151.824      526645.916 6    460112.383 7
 94  2 13 13 24 59.9960000  0  8 17  9 28 21 31  1 12 23
  23010796.941    11259685.636 4   8789522.252 5
  23273563.645    -4949281.811 5  -1408189.078 5
  20593947.113   -22245049.572 6 -17238147.997 7
  19688361.012   -23354133.418 7 -18030017.403 9
  21499165.199   -13787187.650 6 -10483055.957 6
  19359560.746   -26626844.243 7 -20649017.804 9
  23232520.762    -2711095.285 5  -2012819.262 2
  21450684.785      566238.341 6    490963.627 7
 94  2 13 13 25 29.9960000  0  8 17  9 28 21 31  1 12 23
  23025816.481    11338606.135 4   8851018.692 4
  23276955.988    -4931463.320 5  -1394304.538 5
  20600040.012   -22213029.388 6 -17213197.211 7
  19687061.621   -23360961.350 7 -18035337.868 9
  21493074.316   -13819186.775 6 -10507990.336 6
  19351889.426   -26667163.894 7 -20680435.706 9
  23225590.027    -2747520.686 5  -2041202.680 2
  21458238.512      605935.584 6    521896.539 7
 94  2 13 13 25 59.9960000  0  8 17  9 28 21 31  1 12 23
  23040872.559    11417720.335 5   8912666.097 3
  23280452.715    -4913131.318 5  -1380019.884 5
  20606228.949   -22180497.581 6 -17187847.753 7
  19685805.879   -23367572.922 7 -18040489.736 9
  21487092.691   -13850617.090 6 -10532481.498 6
  19344313.020   -26706968.673 7 -20711452.410 9
  23218770.285    -2783361.717 5  -2069130.763 2
  21465815.762      645749.644 6    552920.480 7
 94  2 13 13 26 29.9960000  0  8 17  9 28 21 31  1 12 23
  23055966.121    11497019.431 5   8974457.533 4
  23284033.731    -4894284.696 5  -1365334.207 5
  20612519.504   -22147456.418 6 -17162101.406 7
  19684585.145   -23373969.892 7 -18045474.386 9
  21481225.606   -13881459.872 6 -10556514.833 6
  19336839.262   -26746251.098 7 -20742062.080 9
  23212065.934    -2818617.620 5  -2096602.879 1
  21473410.832      685664.699 6    584023.110 6
 94  2 13 13 26 59.9960000  0  8 17  9 28 21 31  1 12 23
  23071090.184    11576509.781 5   9036398.035 3
  23287712.816    -4874940.882 5  -1350261.121 5
  20618905.410   -22113894.026 6 -17135948.889 7
  19683403.746   -23380169.306 7 -18050305.094 9
  21475469.691   -13911709.030 6 -10580085.616 6
  19329463.785   -26785008.829 7 -20772262.898 9
  23205463.355    -2853286.181 5  -2123617.344 3
  21481021.926      725668.363 6    615194.795 7
 94  2 13 13 27 29.9960000  0  8 17  9 28 21 31  1 12 23
  23086253.988    11656187.477 5   9098484.516 4
  23291486.981    -4855110.117 5  -1334808.569 5
  20625394.512   -22079800.842 6 -17109382.783 7
  19682261.121   -23386182.275 7 -18054990.525 9
  21469823.988   -13941376.224 6 -10603202.919 6
  19322187.910   -26823245.041 7 -20802057.337 9
  23198981.098    -2887368.220 5  -2150174.774 3
  21488650.770      765754.546 6    646430.781 6
 94  2 13 13 27 59.9960000  0  8 17  9 28 21 31  1 12 23
  23101453.512    11736061.266 5   9160723.802 4
  23295358.598    -4834777.845 5  -1318965.239 5
  20631982.254   -22045177.496 6 -17082403.559 7
  19681153.277   -23392020.730 7 -18059539.962 9
  21464286.762   -13970470.362 6 -10625873.677 6
  19315011.441   -26860951.009 7 -20831438.598 9
  23192606.512    -2920861.703 5  -2176273.554 4
  21496290.770      805901.544 6    677714.153 7
 94  2 13 13 28 29.9960000  0  8 17  9 28 21 31  1 12 23
  23116692.543    11816147.159 4   9223128.365 3
  23299324.926    -4813935.314 5  -1302724.302 5
  20638671.316   -22010027.007 6 -17055013.572 7
  19680074.863   -23397673.022 7 -18063944.340 9
  21458857.770   -13998991.661 6 -10648098.078 6
  19307940.379   -26898116.986 7 -20860399.096 9
  23186345.668    -2953761.757 5  -2201909.956 5
  21503942.387      846111.849 6    709046.858 6
 94  2 13 13 28 59.9960000  0  8 17  9 28 21 31  1 12 23
  23131974.090    11896446.330 3   9285699.108 3
  23303384.348    -4792588.413 5  -1286090.357 5
  20645459.715   -21974353.844 6 -17027216.305 7
  19679038.363   -23403125.695 7 -18068193.180 9
  21453543.652   -14026947.756 6 -10669882.039 6
  19300966.504   -26934751.216 7 -20888945.239 9
  23180197.832    -2986068.880 5  -2227084.344 4
  21511607.723      886386.205 6    740429.474 7
 94  2 13 13 29 29.9960000  0  8 17  9 28 21 31  1 12 23
  23147291.301    11976955.922 3   9348433.823 2
  23307547.668    -4770729.659 5  -1269057.577 5
  20652344.418   -21938171.465 6 -16999022.247 7
  19678045.246   -23408356.851 7 -18072269.404 8
  21448327.332   -14054324.017 6 -10691214.197 6
  19294097.848   -26970850.777 7 -20917074.759 9
  23174162.926    -3017779.443 5  -2251793.871 4
  21519285.402      926734.826 6    771869.955 7
 94  2 13 13 29 59.9960000  0  8 17  9 28 21 31  1 12 23
  23162650.309    12057660.791 3   9411320.697 4
  23311800.691    -4748371.189 5  -1251635.385 5
  20659323.996   -21901495.901 6 -16970443.887 7
  19677092.637   -23413351.163 7 -18076161.069 9
  21443229.160   -14081111.437 6 -10712087.513 6
  19287331.621   -27006415.527 7 -20944787.544 9
  23168239.816    -3048894.329 5  -2276039.216 5
  21526973.809      967150.972 6    803363.050 7
 94  2 13 13 30 29.9960000  0  8 17  9 28 21 31  1 12 23
  23178044.121    12138552.103 4   9474352.831 5
  23316145.496    -4725529.650 5  -1233836.785 5
  20666397.074   -21864330.997 6 -16941484.224 7
  19676186.910   -23418107.554 7 -18079867.344 8
  21438246.465   -14107320.189 6 -10732509.915 6
  19280663.871   -27041452.087 7 -20972088.755 9
  23162440.777    -3079410.199 5  -2299817.805 4
  21534682.387     1007652.856 6    834922.954 7
 94  2 13 13 30 59.9960000  0  8 17  9 28 21 31  1 12 23
  23193470.801    12219611.807 4   9537516.208 3
  23320581.520    -4702203.842 5  -1215660.829 5
  20673561.340   -21826678.452 6 -16912144.586 7
  19675324.309   -23422647.059 7 -18083404.620 8
  21433370.332   -14132953.204 6 -10752483.701 6
  19274092.668   -27075977.507 7 -20998991.673 9
  23156740.293    -3109326.493 5  -2323129.222 4
  21542404.496     1048241.440 6    866550.419 7
 94  2 13 13 31 29.9960000  0  8 17  9 28 21 31  1 12 23
  23208926.809    12300836.416 4   9600808.070 3
  23325116.168    -4678399.545 5  -1197112.031 5
  20680816.957   -21788547.937 6 -16882432.499 7
  19674499.707   -23426981.019 7 -18086781.730 8
  21428596.559   -14158019.436 6 -10772015.830 6
  19267620.496   -27109997.780 7 -21025500.970 9
  23151162.645    -3138643.123 5  -2345973.357 5
  21550150.918     1088925.173 6    898252.029 7
 94  2 13 13 31 59.9960000  0  8 17  9 28 21 31  1 12 23
  23224416.066    12382230.308 4   9664231.851 3
  23329730.910    -4654105.321 5  -1178181.462 5
  20688163.668   -21749935.312 6 -16852344.744 7
  19673712.652   -23431123.365 7 -18090009.531 9
  21423931.801   -14182536.286 6 -10791119.870 6
  19261242.965   -27143514.598 7 -21051617.956 9
  23145699.965    -3167356.520 5  -2368347.416 4
  21557908.652     1129706.494 6    930029.668 7
 94  2 13 13 32 29.9960000  0  8 17  9 28 21 31  1 12 23
  23239937.582    12463805.911 3   9727797.228 4
  23334450.379    -4629308.151 4  -1158859.003 5
  20695601.848   -21710843.332 6 -16821883.459 7
  19672957.496   -23435085.586 7 -18093096.976 9
  21419372.856   -14206501.846 6 -10809794.339 6
  19254960.285   -27176522.881 7 -21077338.685 9
  23140349.199    -3195468.823 5  -2390253.114 4
  21565688.066     1170585.243 6    961883.233 7
 94  2 13 13 32 59.9960000  0  8 17  9 28 21 31  1 12 23
  23255490.707    12545564.757 3   9791505.387 4
  23339273.387    -4604004.714 5  -1139142.051 4
  20703134.785   -21671266.598 6 -16791044.456 7
  19672240.848   -23438852.579 7 -18096032.291 8
  21414917.434   -14229898.975 6 -10828025.873 6
  19248777.207   -27209016.092 7 -21102658.063 9
  23135108.457    -3222978.310 5  -2411689.059 3
  21573484.035     1211555.637 6    993808.208 7
 94  2 13 13 33 29.9960000  0  8 17  9 28 21 31  1 12 23
  23271091.410    12627517.143 3   9855364.353 4
  23344184.059    -4578207.171 5  -1119040.087 4
  20710758.848   -21631207.781 6 -16759829.798 7
  19671561.285   -23442416.101 7 -18098809.058 8
  21410576.551   -14252731.397 6 -10845817.377 6
  19242696.527   -27240970.513 7 -21127557.605 9
  23129997.645    -3249881.451 5  -2432652.535 4
  21581298.645     1252628.589 6   1025813.100 7
 94  2 13 13 33 59.9960000  0  8 17  9 28 21 31  1 12 23
  23286719.191    12709649.862 3   9919363.828 4
  23349183.895    -4551919.079 5  -1098555.842 5
  20718472.566   -21590670.088 6 -16728241.986 7
  19670921.879   -23445777.921 7 -18101428.658 8
  21406340.684   -14274983.341 6 -10863156.550 6
  19236720.668   -27272380.680 7 -21152033.049 9
  23124987.926    -3276178.994 5  -2453144.138 3
  21589132.832     1293787.559 6   1057885.020 7
 94  2 13 13 34 29.9960000  0  8 17  9 28 21 31  1 12 23
  23302383.004    12791953.648 4   9983496.615 3
  23354283.809    -4525149.503 5  -1077696.439 4
  20726279.051   -21549641.984 6
  19670320.090   -23448933.770 7 -18103887.757 8
  21402215.996   -14296650.354 6 -10880039.951 6
  19230847.449   -27303244.495 7 -21176082.759 9
  23120096.832    -3301866.461 5  -2473160.340 4
  21596981.645     1335034.466 6
 94  2 13 13 34 59.9960000  0  8 17  9 28 21 31  1 12 23
  23318074.418    12874418.579 4  10047754.963 2
  23359460.465    -4497908.618 5  -1056469.767 5
  20734180.481   -21508126.576 6 -16663922.377 7
  19669760.535   -23451889.247 7 -18106190.720 8
  21398202.027   -14317757.903 6 -10896487.395 6
  19225074.707   -27333571.933 7 -21199714.529 9
  23115335.754    -3326941.055 5  -2492698.964 4
  21604849.090     1376373.992 6   1122238.069 7
 94  2 13 13 35 29.9960000  0  8 17  9 28 21 31  1 12 23
  23333795.285    12957035.276 4  10112131.571 2
  23364735.309    -4470197.908 5  -1034877.018 5
  20742169.801   -21466145.804 6 -16631210.095 7
  19669229.098   -23454661.772 7 -18108351.124 9
  21394287.137   -14338323.375 6 -10912512.443 6
  19219403.699   -27363378.003 7 -21222940.028 9
  23110676.684    -3351409.517 5  -2511765.310 5
  21612727.926     1417788.684 6   1154509.252 7
 94  2 13 13 35 59.9960000  0  8 17  9 28 21 31  1 12 23
  23349544.480    13039814.660 4  10176634.936 1
  23370108.246    -4441992.837 5  -1012899.037 5
  20750248.012   -21423685.216 6 -16598123.926 7
  19668743.074   -23457234.043 7 -18110355.493 9
  21390482.801   -14358327.075 6 -10928099.743 6
  19213827.168   -27392667.819 7 -21245763.251 9
  23106134.832    -3375262.112 5  -2530351.747 4
  21620623.457     1459272.792 6   1186834.531 6
 94  2 13 13 36 29.9960000  0  8 17  9 28 21 31  1 12 23
  23365336.051    13122777.695 3  10241281.432 2
  23375561.645    -4413295.503 4   -990537.491 4
  20758418.957   -21380739.700 6 -16564659.891 7
  19668291.996   -23459601.653 7 -18112200.379 9
  21386776.606   -14377792.693 6 -10943267.764 6
  19208354.340   -27421439.723 7 -21268182.913 9
  23101714.738    -3398501.285 5  -2548460.177 4
  21628531.652     1500828.091 6   1219215.271 7
 94  2 13 13 36 59.9960000  0  8 17  9 28 21 31  1 12 23
  23381156.293    13205937.382 3  10306081.139 3
  23381124.574    -4384102.285 5   -967789.535 4
  20766683.934   -21337317.499 6 -16530824.403 7
  19667884.270   -23461744.514 7 -18113870.137 9
  21383179.348   -14396696.167 6 -10957997.750 6
  19202980.777   -27449681.288 7 -21290189.314 8
  23097408.949    -3421119.659 5  -2566084.884 4
  21636450.895     1542447.995 6   1251646.362 6
 94  2 13 13 37 29.9960000  0  8 17  9 28 21 31  1 12 23
  23397017.879    13289289.180 3  10371030.534 2
  23386764.621    -4354420.056 5   -944660.522 4
  20775036.348   -21293422.369 6 -16496620.413 7
  19667522.410   -23463662.007 7 -18115364.295 9
  21379691.277   -14415009.947 6 -10972268.228 6
  19197706.605   -27477391.889 7 -21311781.983 9
  23093223.230    -3443122.706 5  -2583230.133 4
  21644380.652     1584118.759 6   1284117.085 6
 94  2 13 13 37 59.9960000  0  8 17  9 28 21 31  1 12 23
  23412918.684    13372830.046 3  10436127.293 2
  23392505.066    -4324254.153 5   -921154.649 5
  20783481.707   -21249045.712 6 -16462041.210 7
  19667196.637   -23465352.506 7 -18116681.560 9
  21376321.590   -14432728.130 6 -10986074.615 6
  19192536.277   -27504573.922 7 -21332962.779 8
  23089153.355    -3464510.915 5  -2599896.272 4
  21652321.910     1625850.792 6   1316635.545 7
 94  2 13 13 38 29.9960000  0  8 17  9 28 21 31  1 12 23
  23428848.410    13456537.958 3  10501354.193 2
  23398338.137    -4293602.412 5   -897270.155 4
  20792017.168   -21204196.075 6 -16427093.449 7
  19666916.566   -23466818.056 7 -18117823.540 9
  21373062.590   -14449859.322 6 -10999423.615 6
  19187460.152   -27531231.343 7 -21353734.789 8
  23085200.457    -3485279.838 5  -2616079.830 4
  21660277.168     1667656.423 6   1349211.360 6
 94  2 13 13 38 59.9960000  0  8 17  9 28 21 31  1 12 23
  23444802.027    13540382.375 3  10566687.450 2
  23404264.918    -4262459.395 5   -873002.869 4
  20800638.098   -21158888.645 6 -16391788.965 7
  19666681.941   -23468072.145 7 -18118800.751 9
  21369919.066   -14466388.669 6 -11012303.628 6
  19182481.098   -27557391.301 7 -21374119.162 8
  23081364.535    -3505429.063 5  -2631780.530 5
  21668248.402     1709543.469 6   1381850.605 6
 94  2 13 13 39 29.9960000  0  8 17  9 28 21 31  1 12 23
  23460783.840    13624366.746 3  10632129.755 2
  23410290.848    -4230812.245 5   -848342.747 5
  20809344.363   -21113127.976 6 -16356131.306 7
  19666478.590   -23469126.066 7 -18119621.988 9
  21366885.637   -14482324.358 6 -11024721.052 6
  19177595.262   -27583075.838 7 -21394133.076 8
  23077651.207    -3524956.373 5  -2646996.622 5
  21676241.980     1751534.752 6   1414571.074 6
 94  2 13 13 39 59.9960000  0  8 17  9 28 21 31  1 12 23
  23476794.832    13708493.706 3  10697683.199 1
  23416402.723    -4198656.013 5   -823285.949 2
  20818136.238   -21066933.771 6 -16320135.831 7
  19666318.660   -23469985.681 7 -18120291.817 9
  21363959.824   -14497698.931 6 -11036701.248 6
  19172795.246   -27608296.387 7 -21413785.445 8
  23074053.856    -3543862.342 5  -2661728.538 4
  21684251.043     1793632.646 6   1447374.623 6
 94  2 13 13 40 29.9960000  0  8 17  9 28 21 31  1 12 23
  23492837.473    13792777.594 3  10763358.900 2
  23422621.301    -4165998.912 5   -797838.856 3
  20827008.879   -21020321.315 6 -16283814.445 7
  19666185.488   -23470659.513 7 -18120816.881 9
  21361138.621   -14512510.261 6 -11048242.547 6
  19168090.191   -27633038.427 7 -21433064.950 8
  23070570.035    -3562142.547 5  -2675972.842 4
  21692280.293     1835832.992 6   1480257.996 6
 94  2 13 13 40 59.9960000  0  8 17  9 28 21 31  1 12 23
  23508904.441    13877248.559 3  10829180.373 1
  23428931.106    -4132859.444 5   -772015.911 5
  20835954.598   -20973291.366 6 -16247167.733 7
  19666095.918   -23471154.745 7 -18121202.777 9
  21358426.027   -14526761.516 6 -11059347.426 6
  19163473.668   -27657283.541 7 -21451957.235 8
  23067213.535    -3579799.469 5  -2689731.507 4
  21700328.543     1878129.675 6   1513216.439 6
 94  2 13 13 41 29.9960000  0  8 25  9 28 21 31  1 12 23
  23502171.668          -0.70414
  23435325.777    -4099250.195 5   -745826.876 4
  20844984.871   -20925839.302 6 -16210192.119 7
  19666034.457   -23471464.767 7
  21355824.020   -14540463.972 6 -11070024.679 6
  19158960.418   -27680998.971 7 -21470436.787 8
  23063976.098    -3596830.811 5  -2703002.664 4
  21708396.551     1920520.293 6   1546248.082 6
 94  2 13 13 41 59.9960000  0  8 25  9 28 21 31  1 12 23
  23480321.043     -114799.715 3        -0.10012
  23441804.840    -4065185.387 4   -719282.882 4
  20854095.754   -20877964.319 6 -16172886.943 7
  19666014.785   -23471580.873 7
  21353312.426   -14553631.049 6 -11080284.749 6
  19154554.699   -27704153.655 7 -21488479.389 8
  23060849.215    -3613239.576 5  -2715788.711 5
  21716476.605     1962988.618 6   1579340.268 6
 94  2 13 13 42 29.9960000  0  8 25  9 28 21 31  1 12 23
  23458469.387     -229649.756 4    -89493.643 2
  23448375.254    -4030663.553 3   -692382.719 4
  20863288.660   -20829645.410 6 -16135235.848 6
  19666028.441   -23471489.286 7
  21350916.465   -14566250.219 6 -11090117.869 6
  19150257.098   -27726738.760 7 -21506078.167 8
  23057852.262    -3629021.684 5  -2728086.461 5
  21724574.340     2005538.181 6   1612495.753 6
 94  2 13 13 42 59.9960000  0  8 25  9 28 21 31  1 12 23
  23436603.238     -344552.378 4   -179028.147 3
  23455031.410    -3995673.066 4   -665117.422 5
  20872570.051   -20780874.772 6 -16097232.764 7
  19666089.488   -23471173.075 7
  21348615.512   -14578329.992 6 -11099530.682 6
  19146067.082   -27748763.943 7 -21523240.633 8
  23054960.606    -3644178.045 5  -2739896.609 4
  21732689.199     2048177.802 6   1645721.428 6
 94  2 13 13 43 29.9960000  0  8 25  9 28 21 31  1 12 23
  23414724.559     -459514.682 4   -268609.195 2
  23461778.285    -3960210.417 5   -637484.214 4
  20881935.152   -20731664.965 6 -16058887.468 7
  19666189.504   -23470628.598 7 -18120792.784 9
  21346422.738   -14589862.619 6 -11108517.147 6
  19141977.238   -27770257.085 7 -21539988.531 8
  23052198.207    -3658711.297 5  -2751221.202 4
  21740817.895     2090901.833 6   1679012.870 6
 94  2 13 13 43 59.9960000  0  8 25  9 28 21 31  1 12 23
  23392836.160     -574540.456 4   -358239.662 2
  23468625.496    -3924279.058 5   -609485.764 5
  20891383.746   -20682013.611 6 -16020198.102 6
  19666339.527   -23469856.005 7 -18120190.767 9
  21344330.621   -14600839.751 6 -11117070.762 6
  19137985.449   -27791235.929 7 -21556335.674 8
  23049547.012    -3672618.543 5  -2762058.042 5
  21748964.059     2133703.147 6   1712364.531 6
 94  2 13 13 44 29.9960000  0  8 25  9 28 21 31  1 12 23
  23370936.621     -689622.060 4   -447913.630 2
  23475541.277    -3887882.559 4   -581124.855 4
  20900918.770   -20631918.171 6 -15981162.699 6
  19666523.027   -23468875.709 7 -18119426.900 9
  21342352.699   -14611250.793 6 -11125183.268 6
  19134084.731   -27811727.204 7 -21572302.888 8
  23047029.238    -3685899.719 5  -2772407.006 5
  21757125.520     2176593.916 6   1745785.899 6
 94  2 13 13 44 59.9960000  0  8 25  9 28 21 31  1 12 23
  23349032.652     -804739.820 4   -537615.787 4
  23482552.066    -3851029.794 4   -552408.424 5
  20910534.098   -20581381.077 6 -15941783.156 6
  19666750.105   -23467695.685 7 -18118507.395 9
  21340483.004   -14621075.820 6 -11132839.137 6
  19130278.184   -27831733.807 7 -21587892.445 8
  23044617.957    -3698547.307 5  -2782262.270 3
  21765304.855     2219584.765 6   1779285.248 6
 94  2 13 13 45 29.9960000  0  8 25  9 28 21 31  1 12 23
  23327113.496     -919890.558 4   -627343.650 1
  23489658.488    -3813731.359 5   -523344.708 5
  20920235.223   -20530414.041 6 -15902068.590 6
  19667014.965   -23466323.045 7 -18117437.808 9
  21338722.082   -14630310.626 6 -11140035.104 6
  19126560.762   -27851262.610 7 -21603109.688 8
  23042329.691    -3710563.338 5  -2791625.417 2
  21773503.543     2262659.228 6   1812849.741 6
 94  2 13 13 45 59.9960000  0  8 25  9 28 21 31  1 12 23
  23305198.730    -1035067.482 4   -717091.920 4
  23496840.090    -3775977.247 5   -493925.945 5
  20930011.301   -20479018.962 6 -15862020.484 6
  19667310.645   -23464759.068 7 -18116219.125 9
  21337075.965   -14638967.452 6 -11146780.690 6
  19122939.215   -27870301.435 7 -21617945.130 8
  23040170.848    -3721946.482 5  -2800495.397 2
  21781720.254     2305820.975 6   1846482.252 6
 94  2 13 13 46 29.9960000  0  8 25  9 28 21 31  1 12 23
  23283276.238    -1150271.344 4   -806861.150 3
  23504111.395    -3737743.702 4   -464133.544 5
  20939872.574   -20427213.164 6 -15821652.339 6
  19667642.637   -23462995.593 7 -18114844.985 9
  21335541.652   -14647048.216 6 -11153077.410 6
  19119411.176   -27888844.272 7 -21632394.089 8
  23038124.027    -3732694.072 5  -2808870.140 2
  21789946.465     2349080.028 6   1880190.602 6
 94  2 13 13 46 59.9960000  0  8 25  9 28 21 31  1 12 23
  23261341.762    -1265529.482 4   -896672.700 3
  23511478.051    -3699026.737 5   -433964.501 5
  20949805.559   -20375013.091 6 -15780976.966 6
  19668016.520   -23461017.443 7 -18113303.571 9
  21334110.457   -14654568.920 6 -11158937.694 6
  19115976.629   -27906889.464 7 -21646455.267 8
  23036198.051    -3742809.879 5  -2816752.578 3
  21798192.465     2392405.777 6   1913950.903 6
 94  2 13 13 47 29.9960000  0  8 25  9 28 21 31  1 12 23
  23239398.738    -1380856.437 4   -986537.853 2
  23518946.941    -3659812.243 5   -403407.768 5
  20959808.012   -20322432.875 6 -15740005.376 6
  19668441.441   -23458811.577 7 -18111584.719 9
  21332782.551   -14661544.929 6 -11164373.553 6
  19112638.973   -27924429.835 7 -21660123.080 8
  23034393.520    -3752293.267 5  -2824142.215 4
  21806449.184     2435788.992 6   1947755.986 6
 94  2 13 13 47 59.9960000  0  8 25  9 28 21 31  1 12 23
  23217441.441    -1496252.702 4  -1076457.007 3
  23526504.004    -3620105.090 5   -372467.142 5
  20969891.934   -20269466.121 6 -15698732.593 6
  19668905.691   -23456383.538 7 -18109692.738 9
  21331555.668   -14667974.980 6 -11169383.990 6
  19109397.215   -27941460.736 7 -21673393.901 8
  23032705.809    -3761142.571 5  -2831037.784 3
  21814717.160     2479240.320 6   1981614.155 6
 94  2 13 13 48 29.9960000  0  8 25  9 28 21 31  1 12 23
  23195466.559    -1611715.376 4  -1166427.925 4
  23534142.309    -3579936.257 5   -341166.731 4
  20980044.934   -20216099.127 6 -15657147.924 6
  19669404.926   -23453733.864 7 -18107628.061 9
  21330434.738   -14673852.911 6 -11173964.208 6
  19106254.262   -27957987.644 7 -21686272.005 8
  23031142.316    -3769358.188 5  -2837439.554 4
  21823001.246     2522763.700 6   2015528.458 6
 94  2 13 13 48 59.9960000  0  8 25  9 28 21 31  1 12 23
  23173482.996    -1727244.017 5  -1256450.256 3
  23541874.363    -3539336.940 5   -309530.933 5
  20990277.785   -20162328.839 6 -15615249.013 6
  19669952.910   -23450867.635 7 -18105394.638 9
  21329422.387   -14679179.375 6 -11178114.695 6
  19103203.363   -27974014.284 7 -21698760.288 8
  23029696.551    -3776942.494 5  -2843349.409 4
  21831294.512     2566354.850 6   2049495.575 6
 94  2 13 13 49 29.9960000  0  8 25  9 28 21 31  1 12 23
  23151497.231    -1842810.766 5  -1346502.259 3
  23549679.176    -3498315.344 5   -277566.051 5
  21000585.457   -20108152.141 6 -15573033.405 6
  19670538.535   -23447795.512 7 -18103000.768 9
  21328513.527   -14683951.588 6 -11181833.310 6
  19100249.465   -27989531.214 7 -21710851.392 8
  23028384.488    -3783892.377 5  -2848764.902 5
  21839608.168     2610049.317 6   2083543.190 6
 94  2 13 13 49 59.9960000  0  8 25  9 28 21 31  1 12 23
  23129497.059    -1958399.767 5  -1436571.603 3
  23557556.301    -3456891.833 4   -245288.002 4
  21010974.598   -20053556.687 6 -15530491.507 6
  19671158.270   -23444532.426 7 -18100458.106 9
  21327710.238   -14688171.680 6 -11185121.698 6
  19097395.816   -28004540.888 7 -21722547.237 8
  23027172.371    -3790212.870 5  -2853689.975 3
  21847947.660     2653853.242 6   2117676.100 6
 94  2 13 13 50 29.9960000  0  8 25  9 28 21 31  1 12 23
  23107500.231    -2074001.217 5  -1526650.685 2
  23565526.113    -3415048.546 4   -212682.852 4
  21021439.605   -19998554.194 6 -15487632.426 6
  19671817.457   -23441059.843 7 -18097752.196 9
  21327014.691   -14691841.112 6 -11187980.998 6
  19094636.856   -28019032.729 7 -21733839.569 8
  23026087.027    -3795896.385 5  -2858118.687 4
  21856303.301     2697771.353 6   2151897.990 6
 94  2 13 13 50 59.9960000  0  8 25  9 28 21 31  1 12 23
  23085498.621    -2189609.610 5  -1616735.132 1
  23573566.660    -3372763.539 4   -179733.515 5
  21031976.941   -19943175.584 6 -15444480.257 6
  19672519.488   -23437383.499 7 -18094887.514 9
  21326418.527   -14694964.933 6 -11190415.154 6
  19091975.051   -28033017.008 7 -21744736.402 8
  23025132.270    -3800947.918 5  -2862054.952 5
  21864678.262     2741786.818 6   2186195.737 6
 94  2 13 13 51 29.9960000  0  8 25  9 28 21 31  1 12 23
  23063496.207    -2305218.340 5  -1706819.848 3
  23581706.207    -3330023.665 5   -146429.743 4
  21042592.457   -19887407.073 6 -15401024.282 6
  19673256.988   -23433509.639 7 -18091868.924 9
  21325928.316   -14697537.817 6 -11192420.016 6
  19089409.629   -28046493.734 7 -21755237.740 8
  23024290.996    -3805367.531 5  -2865498.809 5
  21873071.996     2785895.683 6   2220566.266 6
 94  2 13 13 51 59.9960000  0  8 25  9 28 21 31  1 12 23
  23041498.207    -2420842.176 5  -1796916.356 3
  23589915.574    -3286834.752 4   -112776.067 3
  21053279.043   -19831252.759 6 -15357267.682 6
  19674033.496   -23429434.875 7 -18088693.778 9
  21325546.082   -14699557.749 6 -11193993.996 6
  19086939.051   -28059474.004 7 -21765352.226 8
  23023569.863    -3809157.640 5  -2868452.163 5
  21881479.590     2830062.328 6   2254981.805 6
 94  2 13 13 52 29.9960000  0  8 25  9 28 21 31  1 12 23
  23019490.152    -2536484.894 5  -1887027.556 3
  23598232.660    -3243187.154 5    -78764.961 5
  21064036.441   -19774718.059 6 -15313214.673 6
  19674850.387   -23425150.781 7 -18085355.528 9
  21325265.402   -14701021.703 6 -11195134.740 6
  19084561.590   -28071960.956 7 -21775082.314 8
  23022966.051    -3812312.227 5  -2870910.303 4
  21889890.457     2874280.587 6   2289437.571 6
 94  2 13 13 52 59.9960000  0  8 25  9 28 21 31  1 12 23
  22997480.629    -2652141.982 5  -1977149.960 4
  23606616.371    -3199098.314 4
  21074870.465   -19717784.992 6 -15268851.252 6
  19675698.082   -23420673.058 7 -18081866.392 9
  21325101.309   -14701930.651 6 -11195843.017 6
  19082279.043   -28083963.121 7 -21784434.640 8
  23022488.559    -3814834.866 5  -2872875.997 4
  21898315.996     2918547.131 6
 94  2 13 13 53 29.9960000  0  7 25 28 21 31  1 12 23
  22975467.152    -2767814.501 5  -2067284.400 4
  21085780.059   -19660443.915 6 -15224169.909 6
  19676587.934   -23415994.358 7 -18078220.651 9
  21325025.762   -14702299.344 6
  19080092.535   -28095463.388 7 -21793395.879 8
  23022131.223    -3816722.223 5  -2874346.674 5
  21906753.293     2962883.998 6   2358479.145 6
 94  2 13 13 53 59.9960000  0  7 25 28 21 31  1 12 23
  22953457.879    -2883488.222 5  -2157419.767 4
  21096765.504   -19602733.894 6 -15179201.061 6
  19677518.223   -23411100.972 7 -18074407.625 9
  21325052.309   -14702147.582 6
  19078002.129   -28106457.233 7 -21801962.505 8
  23021889.066    -3817976.333 5  -2875323.895 5
  21915205.246     3007304.374 6   2393092.403 6
 94  2 13 13 54 29.9960000  0  7 25 28 21 31  1 12 23
  22931446.848    -2999149.284 5  -2247545.253 4
  21107810.699   -19544670.591 6 -15133956.942 6
  19678490.941   -23405988.351 7 -18070423.767 9
  21325181.340   -14701479.981 6 -11195491.866 6
  19076003.441   -28116946.630 7 -21810136.055 8
  23021775.480    -3818594.786 5  -2875805.825 4
  21923680.746     3051838.643 6   2427794.414 6
 94  2 13 13 54 59.9960000  0  7 25 28 21 31  1 12 23
  22909440.504    -3114797.537 5  -2337660.775 4
  21118927.481   -19486265.871 6 -15088446.780 6
  19679504.895   -23400658.603 7 -18066270.719 9
  21325407.387   -14700304.660 6 -11194576.044 6
  19074104.981   -28126925.937 7 -21817912.126 8
  23021770.332    -3818580.470 5
  21932175.981     3096488.381 6   2462586.400 6
 94  2 13 13 55 29.9960000  0  7 25 28 21 31  1 12 23
  22887436.223    -3230438.740 5  -2427770.801 4
  21130098.481   -19427543.974 6 -15042689.468 6
  19680562.059   -23395112.577 7 -18061949.143 9
  21325725.293   -14698619.644 6 -11193263.053 6
  19072303.059   -28136397.792 7 -21825292.795 8
  23021898.746    -3817932.497 5  -2875289.775 4
  21940691.918     3141241.715 6   2497459.102 6
 94  2 13 13 55 59.9960000  0  8 25 15 28 21 31  1 12 23
  22865426.559    -3346081.998 5  -2517882.435 4
  23380311.723          -0.11713
  21141335.449   -19368509.353 6 -14996688.467 6
  19681658.832   -23389367.117 7 -18057472.161 9
  21326140.949   -14696406.692 6 -11191538.675 6
  19070592.871   -28145378.466 7 -21832290.709 8
  23022142.426    -3816649.555 5  -2874290.088 4
  21949223.715     3186081.625 6   2532399.269 6
 94  2 13 13 56 29.9960000  0  8 25 15 28 21 31  1 12 23
  22843413.723    -3461754.962 5  -2608017.211 4
  23357075.473     -122113.323 3        -0.35511
  21152631.785   -19309137.037 6 -14950424.335 6
  19682784.230   -23383441.572 7 -18052854.853 9
  21326672.363   -14693650.882 6 -11189391.307 6
  19068974.973   -28153885.221 7 -21838919.344 8
  23022510.926    -3814737.567 5  -2872800.236 5
  21957773.535     3230986.964 6   2567390.420 6
 94  2 13 13 56 59.9960000  0  8 25 15 28 21 31  1 12 23
  22821400.496    -3577458.061 5  -2698175.463 5
  23333838.262     -244202.694 3    -95134.902 2
  21163994.449   -19249417.130 6 -14903889.351 6
  19683943.754   -23377337.262 7 -18048098.249 9
  21327300.059   -14690348.438 6 -11186817.974 6
  19067447.379   -28161914.576 7 -21845175.978 8
  23022988.777    -3812196.028 5  -2870819.802 5
  21966323.465     3275941.690 6   2602420.058 6
 94  2 13 13 57 29.9960000  0  8 25 15 28 21 31  1 12 23
  22799382.973    -3693179.873 5  -2788348.299 5
  23310613.332     -366263.552 3   -190247.249 3
  21175424.426   -19189357.929 6 -14857089.974 6
  19685139.762   -23371047.155 7 -18043196.865 9
  21328036.957   -14686479.369 6 -11183803.114 6
  19066009.230   -28169480.230 7 -21851071.287 8
  23023590.223    -3809023.079 5  -2868347.402 4
  21974894.848     3320960.365 6   2637499.520 6
 94  2 13 13 57 59.9960000  0  8 25 15 28 21 31  1 12 23
  22777354.379    -3808918.642 5  -2878534.350 5
  23287392.535     -488303.277 3   -285343.111 2
  21186918.684   -19128956.141 6 -14810023.644 6
  19686376.660   -23364557.489 7 -18038139.982 8
  21328878.957   -14682047.957 6 -11180350.076 6
  19064653.770   -28176588.131 7 -21856609.903 8
  23024320.402    -3805227.991 5  -2865390.201 4
  21983474.395     3366054.314 6   2672637.637 6
 94  2 13 13 58 29.9960000  0  8 25 15 28 21 31  1 12 23
  22755332.965    -3924645.070 5  -2968710.796 4
  23264170.668     -610313.751 3   -380416.202 1
  21198480.441   -19068202.019 6 -14762682.774 6
  19687659.309   -23357842.577 7 -18032907.581 9
  21329825.152   -14677058.565 6 -11176462.243 6
  19063390.113   -28183222.632 7 -21861779.640 8
  23025159.973    -3800805.177 5  -2861943.847 4
  21992069.004     3411235.566 6   2707843.787 6
 94  2 13 13 58 59.9960000  0  8 25 15 28 21 31  1 12 23
  22733316.496    -4040333.456 5  -3058857.585 4
  23240962.613     -732289.981 3   -475462.604 2
  21210106.223   -19007118.950 6 -14715085.575 6
  19688972.465   -23350912.171 7 -18027507.266 9
  21330880.129   -14671523.183 6 -11172148.960 6
  19062221.840   -28189379.685 7 -21866577.339 8
  23026124.918    -3795752.009 5  -2858006.329 4
  22000689.527     3456513.767 6   2743125.480 6
 94  2 13 13 59 29.9960000  0  8 25 15 28 21 31  1 12 23
  22711310.285    -4155975.065 5  -3148967.921 5
  23217756.066     -854229.439 3   -570480.363 3
  21221790.980   -18945699.228 6 -14667226.057 6
  19690331.254   -23343774.721 7 -18021945.616 8
  21332040.606   -14665445.634 6 -11167413.218 6
  19061137.754   -28195059.706 7 -21871003.321 8
  23027200.559    -3790068.034 5  -2853577.275 5
  22009324.887     3501896.710 6   2778488.793 6
 94  2 13 13 59 59.9960000  0  8 25 15 28 21 31  1 12 23
  22689314.168    -4271568.379 5  -3239040.635 5
  23194560.949     -976133.729 3   -665470.703 1
  21233549.254   -18883936.281 6 -14619099.096 6
  19691730.754   -23336444.361 7 -18016233.646 8
  21333287.738   -14658866.294 6 -11162286.472 6
  19060147.941   -28200259.289 7 -21875054.940 8
  23028406.738    -3783757.264 5  -2848659.803 5
  22017972.957     3547361.348 6   2813915.771 6
 94  2 13 14  0 29.9960000  0  8 25 15 28 21 31  1 12 23
  22667327.231    -4387105.719 5  -3329069.739 5
  23171370.363    -1097999.490 3   -760431.009 2
  21245359.129   -18821850.495 6 -14570720.561 6
  19693156.434   -23328937.815 7 -18010384.389 9
  21334637.184   -14651801.306 6
  19059246.738   -28204992.957 7 -21878743.510 8
  23029724.191    -3776818.761 5
  22026639.371     3592901.515 6   2849401.578 6
 94  2 13 14  0 59.9960000  0  8 25 15 28 21 31  1 12 23
  22645355.418    -4502600.190 5  -3419065.432 5
  23148182.090    -1219825.105 3   -855360.056 3
  21257235.981   -18759448.974 6 -14522096.012 6
  19694614.652   -23321254.844 7
  21336073.973   -14644248.727 6
  19058431.145   -28209283.815 7 -21882087.029 8
  23031162.621    -3769253.492 5
  22035321.356     3638514.386 6   2884944.058 6
 94  2 13 14  1 29.9960000  0  8 25 15 28 21 31  1 12 23
  22623375.551    -4618066.469 5  -3509039.155 5
  23125009.887    -1341605.690 4   -950253.983 2
  21269170.684   -18696725.338 6 -14473220.450 6
  19696119.926   -23313356.635 7 -17998243.210 8
  21337600.770   -14636212.181 6 -11144633.936 6
  19057701.027   -28213123.816 7 -21885079.234 8
  23032724.879    -3761059.453 5  -2830973.235 5
  22044014.543     3684204.694 6   2920546.870 6
 94  2 13 14  1 59.9960000  0  8 25 15 28 21 31  1 12 23
  22601410.965    -4733512.140 5  -3598996.833 5
  23101842.395    -1463341.953 4  -1045113.413 2
  21281167.402   -18633699.278 6 -14424109.239 6
  19697667.613   -23305225.903 7 -17991907.581 8
  21339221.426   -14627695.890 6 -11137997.877 6
  19057056.723   -28216515.775 7 -21887722.312 8
  23034401.668    -3752239.626 5  -2824100.681 3
  22052723.395     3729973.449 6   2956210.800 6
 94  2 13 14  2 29.9960000  0  8 25 15 28 21 31  1 12 23
  22579447.996    -4848944.624 5  -3688944.230 5
  23078690.082    -1585030.374 5  -1139935.528 1
  21293216.566   -18570373.087 6 -14374764.151 6
  19699264.106   -23296857.105 7 -17985386.443 8
  21340941.230   -14618668.019 6 -11130963.179 6
  19056492.957   -28219454.441 7 -21890012.177 8
  23036194.957    -3742793.416 5  -2816740.020 5
  22061450.199     3775827.844 6   2991941.462 6
 94  2 13 14  3 29.9950000  0  8 25 15 28 21 31  1 12 23
  22535518.679    -5079763.733 5  -3868803.282 5
  23032403.296    -1828252.690 4  -1329459.390 1
  21317495.687   -18442786.959 6 -14275346.412 6
  19702576.483   -23279426.719 7 -17971804.329 8
  21344668.398   -14599067.548 6 -11115690.095 6
  19055657.358   -28223868.472 7 -21893451.669 8
  23040148.046    -3722025.160 5  -2800556.986 5
  22078955.413     3867807.030 6   3063613.492 5
 94  2 13 14  3 59.9950000  0  8 25 15 28 21 31  1 12 23
  22513571.515    -5195116.282 5  -3958688.399 5
  23009278.085    -1949783.261 5  -1424158.532 2
  21329721.023   -18378530.933 6 -14225276.783 6
  19704298.827   -23270388.006 7 -17964761.179 9
  21346683.749   -14588479.067 6 -11107439.332 6
  19055379.554   -28225327.865 7 -21894588.858 9
  23042305.140    -3710700.224 5  -2791732.395 5
  22087734.233     3913937.419 6   3099559.212 6
 94  2 13 14  4 29.9950000  0  8 25 15 28 21 31  1 12 23
  22491635.046    -5310414.353 5  -4048531.039 5
  22986164.054    -2071258.128 4  -1518814.284 3
  21342008.827   -18313970.744 6 -14174970.153 6
  19706053.093   -23261153.897 7 -17957565.780 8
  21348798.679   -14577356.529 6 -11098772.425 6
  19055195.976   -28226301.001 7 -21895347.143 8
  23044580.929    -3698751.412 5  -2782421.651 4
  22096527.390     3960153.680 5   3135571.840 5
 94  2 13 14  4 59.9950000  0  8 25 15 28 21 31  1 12 23
  22469701.101    -5425653.367 5  -4138327.677 5
  22963059.358    -2192680.945 4  -1613429.442 2
  21354347.733   -18249122.281 6 -14124438.894 6
  19707850.780   -23251719.977 7 -17950214.666 8
  21351014.702   -14565723.717 6 -11089707.904 6
  19055097.015   -28226802.452 7
  23046966.382    -3686185.548 5  -2772630.059 5
  22105335.366     4006450.399 5   3171647.170 6
 94  2 13 14  5 29.9950000  0  8 25 15 28 21 31  1 12 23
  22447783.796    -5540825.520 5  -4228072.215 5
  22939965.015    -2314043.591 4  -1707997.720 2
  21366742.523   -18183989.187 6 -14073685.847 6
  19709685.851   -23242070.965 7 -17942695.965 9
  21353326.765   -14553574.287 6 -11080240.833 6
  19055091.890   -28226846.290 7
  23049480.351    -3672997.377 5  -2762353.576 4
  22114161.155     4052826.921 5   3207784.671 6
 94  2 13 14  5 59.9950000  0  8 25 15 28 21 31  1 12 23
  22425881.124    -5655932.857 5  -4317766.257 5
  22916881.093    -2435343.534 4  -1802517.136 4
  21379190.937   -18118564.772 6 -14022705.794 5
  19711557.241   -23232219.286 7 -17935019.338 9
  21355738.976   -14540909.364 6 -11070372.067 6
  19055165.218   -28226449.058 7
  23052107.640    -3659187.295 5  -2751592.500 5
  22123000.804     4099275.169 5   3243978.071 6
 94  2 13 14  6 29.9950000  0  8 25 15 28 21 31  1 12 23
  22403986.890    -5770980.545 5  -4407413.806 5
  22893810.218    -2556576.609 4  -1896984.465 4
  21391695.148   -18052851.488 6 -13971500.647 6
  19713472.710   -23222166.768 7 -17927186.217 8
  21358242.812   -14527745.025 6 -11060114.147 6
  19055328.890   -28225599.557 7 -21894800.552 8
  23054852.249    -3644753.889 5  -2740345.717 4
  22131849.913     4145788.165 5   3280221.925 5
 94  2 13 14  6 59.9950000  0  8 25 15 28 21 31  1 12 23
  22382108.921    -5885984.945 5  -4497027.633 5
  22870754.585    -2677745.446 4  -1991401.710 3
  21404255.054   -17986851.064 6 -13920071.752 6
  19715423.874   -23211914.104 7 -17919197.135 9
  21360839.530   -14514084.901 6 -11049469.903 6
  19055574.468   -28224301.535 7 -21893789.109 8
  23057718.351    -3629702.349 5  -2728617.255 4
  22140717.937     4192369.886 5   3316519.320 6
 94  2 13 14  7 29.9950000  0  8 25 15 28 21 31  1 12 23
  22360229.069    -6000953.445 5  -4586613.472 5
  22847705.148    -2798849.219 4  -2085768.275 4
  21416868.265   -17920572.284 6 -13868425.949 6
  19717413.523   -23201468.652 7 -17911057.826 9
  21363537.780   -14499922.621 6 -11038434.344 6
  19055902.640   -28222563.128 7 -21892434.503 8
  23060701.507    -3614035.052 5  -2716409.002 5
  22149596.163     4239022.884 5   3352872.252 6
 94  2 13 14  7 59.9950000  0  8 25 15 28 21 31  1 12 23
  22338354.140    -6115874.638 5  -4676162.457 5
  22824677.077    -2919881.415 4  -2180079.045 3
  21429530.913   -17854019.096 6 -13816566.331 5
  19719433.858   -23190831.014 7 -17902768.770 8
  21366322.343   -14485259.847 6 -11027008.819 6
  19056324.101   -28220379.280 7 -21890732.799 8
  23063798.101    -3597748.925 5  -2703718.534 4
  22158482.819     4285753.689 5   3389285.819 6
 94  2 13 14  8 29.9950000  0  8 25 15 28 21 31  1 12 23
  22316498.257    -6230746.805 5  -4765673.229 5
  22801655.905    -3040838.301 5  -2274331.134 3
  21442247.749   -17787204.646 6 -13764503.127 5
  19721502.898   -23179985.549 7 -17894317.766 9
  21369210.765   -14470089.063 6 -11015187.435 6
  19056818.694   -28217745.664 7 -21888680.626 9
  23067016.429    -3580843.118 5  -2690545.184 4
  22167395.499     4332570.989 5   3425766.786 5
 94  2 13 14  8 59.9950000  0  8 25 15 28 21 31  1 12 23
  22294643.062    -6345567.960 5  -4855144.261 5
  22778651.366    -3161717.739 4  -2368522.890 3
  21455011.147   -17720139.435 6 -13712244.531 5
  19723607.077   -23168927.621 7 -17885701.208 9
  21372195.382   -14454411.242 6 -11002970.962 6
  19057404.679   -28214670.693 7 -21886284.537 9
  23070353.054    -3563318.708 5  -2676889.834 3
  22176324.780     4379491.725 5   3462328.343 5
 94  2 13 14  9 29.9950000  0  8 25 15 28 21 31  1 12 23
  22272812.460    -6460318.823 5  -4944560.522 5
  22755667.358    -3282519.995 5  -2462654.499 4
  21467815.741   -17652830.797 6 -13659796.243 5
  19725749.335   -23157678.127 7 -17876935.374 9
  21375271.405   -14438254.671 6 -10990381.433 6
  19058072.030   -28211158.578 7 -21883547.828 9
  23073794.694    -3545178.911 5  -2662754.949 5
  22185271.577     4426501.039 5   3498958.939 5
 94  2 13 14  9 59.9950000  0  8 25 15 28 21 31  1 12 23
  22250992.116    -6574980.080 5  -5033906.955 5
  22732694.046    -3403237.477 5  -2556720.038 3
  21480674.507   -17585263.956 6 -13607146.770 5
  19727922.921   -23146241.070 7 -17868023.387 9
  21378439.343   -14421623.779 6 -10977422.309 6
  19058825.780   -28207203.247 7 -21880465.746 9
  23077376.249    -3526419.483 5  -2648137.232 4
  22194231.866     4473594.584 5   3535655.156 5
 94  2 13 14 10 29.9950000  0  8 25 15 28 21 31  1 12 23
  22229190.030    -6689553.802 5  -5123185.197 5
  22709739.851    -3523872.768 5  -2650721.532 3
  21493580.265   -17517442.429 6 -13554298.840 5
  19730132.358   -23134618.707 7 -17858967.013 9
  21381685.819   -14404528.112 6 -10964101.011 6
  19059666.179   -28202811.035 7 -21877043.243 9
  23081062.062    -3507045.885 5  -2633040.940 4
  22203210.077     4520776.553 5   3572420.287 6
 94  2 13 14 10 59.9950000  0  8 25 15 28 21 31  1 12 23
  22207402.202    -6804028.538 5  -5212386.279 5
  22686798.866    -3644417.350 5  -2744652.353 5
  21506538.663   -17449354.339 6 -13501243.188 5
  19732383.843   -23122802.676 7 -17849759.725 9
  21385029.030   -14386972.724 6 -10950421.490 6
  19060583.288   -28197979.318 7 -21873278.264 9
  23084859.921    -3487053.204 5  -2617462.240 3
  22212205.968     4568048.079 5   3609255.189 6
 94  2 13 14 11 29.9950000  0  8 25 15 28 21 31  1 12 23
  22185642.101    -6918398.476 5  -5301505.714 5
  22663877.054    -3764871.574 5  -2838512.779 5
  21519543.523   -17380998.201 5 -13447978.677 5
  19734664.944   -23110788.639 7 -17840398.148 9
  21388461.874   -14368957.737 6 -10936383.841 6
  19061586.694   -28192707.714 7 -21869170.522 9
  23088791.523    -3466444.994 5  -2601403.923 4
  22221209.515     4615390.568 5   3646145.389 5
 94  2 13 14 11 59.9950000  0  8 25 15 28 21 31  1 12 23
  22163897.476    -7032677.471 5  -5390554.291 5
  22640978.351    -3885232.886 5  -2932300.792 4
  21532605.319   -17312382.652 5 -13394512.031 5
  19736996.437   -23098554.541 7 -17830865.089 9
  21391979.296   -14350463.195 6 -10921972.506 6
  19062673.796   -28186991.771 7 -21864716.539 9
  23092824.827    -3445221.711 5  -2584866.324 5
  22230236.577     4662809.740 5   3683095.332 5
 94  2 13 14 12 29.9950000  0  8 25 15 28 21 31  1 12 23
  22142163.632    -7146881.046 5  -5479544.087 5
  22618087.085    -4005504.839 5  -3026019.176 4
  21545708.960   -17243520.127 6 -13340852.932 5
  19739370.265   -23086088.273 7 -17821151.129 9
  21395584.663   -14331490.144 6 -10907188.314 6
  19063846.210   -28180830.899 7 -21859915.859 9
  23096976.804    -3423391.078 5  -2567855.466 5
  22239275.452     4710311.703 5   3720109.791 5
 94  2 13 14 12 59.9950000  0  8 25 15 28 21 31  1 12 23
  22120443.179    -7261003.933 5  -5568471.003 5
  22595218.522    -4125676.455 5  -3119659.383 3
  21558863.273   -17174400.939 6 -13286993.829 5
  19741786.132   -23073381.963 7 -17811250.118 9
  21399293.866   -14312023.714 6 -10892019.679 6
  19065104.483   -28174214.556 7 -21854760.269 9
  23101246.866    -3400945.393 5  -2550365.342 4
  22248333.171     4757898.763 5   3757190.571 5
 94  2 13 14 13 29.9950000  0  8 25 15 28 21 31  1 12 23
  22098747.452    -7375038.869 5  -5657329.405 5
  22572372.030    -4245745.776 5  -3213219.872 4
  21572061.960   -17105031.140 5 -13232939.462 6
  19744245.569   -23060446.388 7 -17801170.462 9
  21403091.874   -14292062.381 6 -10876465.396 6
  19066452.640   -28167142.605 7 -21849249.659 9
  23105641.483    -3377885.927 5  -2532396.936 3
  22257403.335     4805580.763 5   3794345.323 5
 94  2 13 14 13 59.9950000  0  8 25 15 28 21 31  1 12 23
  22077063.890    -7488969.403 5  -5746106.442 5
  22549544.530    -4365707.406 5  -3306696.458 5
  21585312.733   -17035403.039 5 -13178683.810 5
  19746752.835   -23047271.422 7 -17790904.273 8
  21406986.155   -14271602.045 6 -10860522.287 6
  19067883.648   -28159624.239 7 -21843391.193 9
  23110141.398    -3354210.681 5  -2513948.729 5
  22266503.765     4853377.198 5   3831589.245 5
 94  2 13 14 14 29.9950000  0  8 25 15 28 21 31  1 12 23
  22055405.202    -7602781.877 5  -5834791.482 5
  22526736.382    -4485562.167 5  -3400089.762 4
  21598607.874   -16965526.921 5 -13124234.901 5
  19749305.515   -23033869.815 7 -17780461.479 9
  21410973.108   -14250666.931 6 -10844209.209 6
  19069394.663   -28151668.278 7 -21837191.742 9
  23114770.382    -3329924.275 5  -2495024.272 4
  22275616.249     4901287.011 5   3868921.499 5
 94  2 13 14 14 59.9950000  0  8 25 15 28 21 31  1 12 23
  22033777.952    -7716456.599 6  -5923369.193 5
  22503949.319    -4605305.903 5  -3493396.546 4
  21611950.054   -16895415.273 5 -13069602.461 5
  19751897.429   -23020247.182 7 -17769846.454 9
  21415038.546   -14229270.270 6 -10827536.496 6
  19070994.327   -28143275.867 7 -21830652.202 9
  23119504.241    -3305025.899 5  -2475622.956 5
  22284755.030     4949301.567 5   3906335.392 5
 94  2 13 14 15 29.9950000  0  8 25 15 28 21 31  1 12 23
  22012172.116    -7829975.969 5  -6011825.843 5
  22481188.663    -4724930.600 5  -3586610.570 4
  21625335.343   -16825074.429 5 -13014791.429 5
  19754530.671   -23006393.708 7 -17759051.545 9
  21419204.155   -14207409.292 6 -10810501.963 6
  19072675.687   -28134444.499 7 -21823770.621 9
  23124358.140    -3279511.453 5  -2455741.609 4
  22293917.937     4997428.783 5   3943837.058 5
 94  2 13 14 15 59.9950000  0  8 25 15 28 21 31  1 12 23
  21990602.718    -7943352.613 6  -6100171.270 5
  22458443.124    -4844442.556 5  -3679736.756 4
  21638763.538   -16754520.341 5 -12959814.219 5
  19757209.273   -22992321.374 7 -17748086.109 9
  21423442.843   -14185096.856 6 -10793115.663 6
  19074438.804   -28125182.788 7 -21816553.700 9
  23129323.374    -3253390.955 5  -2435388.011 4
  22303089.913     5045644.952 5   3981408.041 5
 94  2 13 14 16 29.9950000  0  8 25 15 28 21 31  1 12 23
  21969047.890    -8056593.301 5  -6188410.784 5
  22435724.999    -4963834.943 5  -3772769.769 3
  21652226.983   -16683763.303 5 -12904678.881 5
  19759925.694   -22978045.645 7 -17736962.179 8
  21427782.827   -14162327.175 6 -10775373.065 5
  19076283.593   -28115483.832 7 -21808996.077 9
  23134409.851    -3226660.983 5  -2414559.492 4
  22312285.608     5093948.081 5   4019046.793 5
 94  2 13 14 16 59.9950000  0  8 25 15 28 21 31  1 12 23
  21947523.452    -8169706.264 5  -6276550.750 5
  22413029.444    -5083103.678 5  -3865706.431 5
  21665730.023   -16612789.509 5 -12849374.637 5
  19762682.569   -22963563.133 7 -17725677.120 8
  21432202.155   -14139072.825 6 -10757252.793 6
  19078212.343   -28105353.712 7 -21801102.479 9
  23139620.718    -3199321.121 5  -2393255.725 4
  22321489.351     5142336.938 5   4056752.330 5
 94  2 13 14 17 29.9950000  0  8 25 15 28 21 31  1 12 23
  21926023.663    -8282699.237 5  -6364597.223 5
  22390355.538    -5202244.794 5  -3958543.651 4
  21679279.648   -16541594.155 5 -12793897.752 5
  19765481.952   -22948876.125 7 -17714232.716 8
  21436724.702   -14115322.447 6 -10738746.022 6
  19080214.476   -28094805.270 7 -21792882.921 9
  23144935.616    -3171371.031 5  -2371476.488 4
  22330712.827     5190819.506 5   4094530.902 5
 94  2 13 14 17 59.9950000  0  8 25 15 28 21 31  1 12 23
  21904539.726    -8395581.434 5  -6452557.379 5
  22367709.007    -5321256.721 5  -4051280.217 4
  21692868.640   -16470176.334 5 -12738247.511 5
  19768312.780   -22933983.236 7 -17702627.873 8
  21441334.874   -14091080.709 6 -10719856.355 6
  19082303.687   -28083845.007 7 -21784342.458 9
  23150364.554    -3142813.034 5  -2349223.531 3
  22339959.835     5239392.543 5   4132379.964 5
 94  2 13 14 18 29.9950000  0  8 25 15 28 21 31  1 12 23
  21883079.726    -8508355.854 5  -6540433.550 5
  22345089.233    -5440141.189 5  -4143917.446 5
  21706502.999   -16398538.346 5 -12682425.710 5
  19771191.687   -22918872.648 7 -17690853.401 8
  21446043.163   -14066349.142 6 -10700585.006 6
  19084462.999   -28072482.706 7 -21775488.719 9
  23155919.694    -3113652.677 5  -2326501.217 4
  22349221.171     5288066.554 5   4170307.708 5
 94  2 13 14 18 59.9950000  0  8 25 15 28 21 31  1 12 23
  21861647.093    -8621006.802 6  -6628213.509 5
  22322490.077    -5558887.985 5  -4236447.409 5
  21720172.530   -16326675.134 5 -12626428.409 5
  19774107.233   -22903517.776 7 -17678888.586 8
  21450843.038   -14041138.323 6 -10680940.219 6
  19086708.562   -28060703.528 7 -21766310.150 9
  23161584.218    -3083883.734 5  -2303304.671 4
  22358506.116     5336846.916 5   4208318.314 5
 94  2 13 14 19 29.9950000  0  8 25 15 28 21 31  1 12 23
  21840237.515    -8733528.566 6  -6715892.811 5
  22299921.093    -5677495.796 5  -4328869.074 5
  21733885.483   -16254601.008 5 -12570266.766 5
  19777075.523   -22887918.865 7 -17666733.609 8
  21455724.374   -14015474.149 6 -10660942.181 6
  19089030.085   -28048496.366 7 -21756798.078 9
  23167360.976    -3053508.996 5  -2279636.075 4
  22367808.249     5385740.583 5   4246417.207 5
 94  2 13 14 19 59.9950000  0  8 25 15 28 21 31  1 12 23
  21818848.257    -8845916.654 6  -6803467.936 6
  22277376.038    -5795960.894 5  -4421179.521 4
  21747646.960   -16182317.083 5 -12513941.651 5
  19780091.749   -22872081.036 7 -17654392.463 8
  21460688.585   -13989361.377 6 -10640594.558 6
  19091439.077   -28035842.030 7 -21746937.566 9
  23173257.546    -3022528.199 5  -2255495.208 3
  22377132.976     5434748.345 5   4284605.028 5
 94  2 13 14 20 29.9950000  0  8 25 15 28 21 31  1 12 23
  21797485.874    -8958159.758 6  -6890930.102 6
  22254858.819    -5914282.026 5  -4513377.801 4
  21761443.835   -16109829.350 5 -12457457.717 5
  19783149.382   -22856009.842 7 -17641869.469 8
  21465744.937   -13962805.996 6 -10619902.070 6
  19093932.187   -28022740.392 7 -21736728.503 9
  23179270.280    -2990944.381 5  -2230884.450 4
  22386482.421     5483873.806 5   4322884.544 5
 94  2 13 14 20 59.9950000  0  8 25 15 28 21 31  1 12 23
  21776157.194    -9070248.958 6  -6978272.335 5
  22232370.796    -6032452.968 5  -4605459.039 5
  21775272.554   -16037142.143 5 -12400818.348 5
  19786251.718   -22839714.021 7 -17629171.444 8
  21470884.257   -13935813.359 6 -10598868.853 6
  19096511.273   -28009189.639 7 -21726169.478 9
  23185396.562    -2958755.029 5  -2205801.880 4
  22395848.741     5533110.278 5   4361250.558 5
 94  2 13 14 21 29.9950000  0  8 25 15 28 21 31  1 12 23
  21754854.765    -9182189.285 6  -7065498.560 6
  22209911.265    -6150481.177 5  -4697429.070 5
  21789143.585   -15964255.854 5 -12344023.849 5
  19789394.788   -22823216.459 7 -17616316.217 8
  21476101.202   -13908384.788 6 -10577495.936 6
  19099167.374   -27995213.041 7 -21715278.627 9
  23191630.663    -2925971.929 5  -2180256.634 5
  22405237.952     5582441.055 5   4399690.061 5
 94  2 13 14 21 59.9950000  0  8 25 15 28 21 31  1 12 23
  21733588.874    -9293959.294 6  -7152592.081 6
  22187480.523    -6268360.003 5  -4789282.678 5
  21803053.343   -15891166.363 5 -12287071.018 5
  19792566.819   -22806516.168 7 -17603303.026 8
  21481405.882   -13880508.649 6 -10555774.279 6
  19101909.616   -27980820.084 7 -21704063.345 9
  23197987.093    -2892592.382 5  -2154246.613 4
  22414646.913     5631857.666 5   4438196.451 5
 94  2 13 14 22 29.9950000  0  8 25 15 28 21 31  1 12 23
  21712354.562    -9405547.645 6  -7239544.050 6
  22165078.265    -6386087.504 5  -4881018.386 5
  21816995.569   -15817881.109 5 -12229965.644 5
  19795788.858   -22789600.639 7 -17590122.114 8
  21486797.616   -13852188.427 6 -10533706.579 6
  19104721.733   -27966021.325 7 -21692531.859 9
  23204447.132    -2858618.225 5  -2127773.264 3
  22424062.812     5681356.262 5   4476766.712 5
 94  2 13 14 22 59.9950000  0  8 25 15 28 21 31  1 12 23
  21691149.741    -9516959.670 6  -7326358.622 6
  22142705.968    -6503660.324 5  -4972633.557 5
  21830980.218   -15744399.767 5 -12172707.465 5
  19799051.468   -22772463.472 7 -17576768.494 8
  21492271.468   -13823424.784 6 -10511293.368 5
  19107616.835   -27950810.212 7 -21680679.041 9
  23211036.476    -2824050.776 5  -2100837.633 4
  22433493.999     5730930.304 5   4515395.766 5
 94  2 13 14 23 29.9950000  0  8 25 15 28 21 31  1 12 23
  21669981.718    -9628189.765 6  -7413031.431 6
  22120362.280    -6621073.443 5  -5064124.310 5
  21844998.546   -15670729.525 5 -12115302.098 5
  19802354.913   -22755092.901 7 -17563233.007 8
  21497830.374   -13794212.889 6 -10488530.849 6
  19110593.679   -27935175.635 7 -21668496.262 9
  23217719.898    -2788888.866 5  -2073438.775 3
  22442947.437     5780599.705 5   4554099.145 5
 94  2 13 14 23 59.9950000  0  8 25 15 28 21 31  1 12 23
  21648853.054    -9739247.091 6  -7499569.620 6
  22098048.843    -6738323.168 5  -5155487.721 5
  21859051.155   -15596892.769 5 -12057766.980 5
  19805705.851   -22737472.434 7 -17549502.792 8
  21503470.476   -13764558.871 6 -10465423.840 6
  19113652.015   -27919108.677 7 -21655976.562 9
  23224529.741    -2753133.171 5  -2045577.227 4
  22452422.148     5830374.723 5   4592884.797 5
 94  2 13 14 24 29.9950000  0  8 25 15 28 21 31  1 12 23
  21627744.093    -9850161.393 6  -7585996.349 6
  22075766.843    -6855417.254 5  -5246729.852 5
  21873130.194   -15522902.923 5 -12000112.569 5
  19809107.866   -22719612.427 7 -17535585.918 8
  21509195.804   -13734481.999 6 -10441987.327 6
  19116787.140   -27902622.103 7 -21643129.893 9
  23231439.093    -2716795.367 5  -2017262.099 3
  22461908.398     5880253.073 5   4631750.975 5
 94  2 13 14 24 59.9950000  0  8 25 15 28 21 31  1 12 23
  21606666.733    -9960928.920 6  -7672308.723 6
  22053512.694    -6972349.680 5  -5337846.032 5
  21887239.132   -15448758.872 5 -11942338.009 5
  19812552.421   -22701517.405 7 -17521485.924 8
  21514999.999   -13703976.755 6 -10418217.011 6
  19120002.093   -27885721.460 7 -21629960.568 9
  23238464.702    -2679874.327 5  -1988492.499 2
  22471428.562     5930243.258 5   4670704.299 5
 94  2 13 14 25 29.9950000  0  8 25 15 28 21 31  1 12 23
  21585619.194   -10071527.827 6  -7758489.691 6
  22031297.124    -7089111.146 5  -5428828.985 5
  21901379.796   -15374462.249 5 -11884444.560 5
  19816034.444   -22683194.935 7 -17507208.693 8
  21520889.937   -13673027.242 6 -10394100.528 5
  19123299.202   -27868410.420 7 -21616471.451 9
  23245599.429    -2642364.392 5  -1959264.007 2
  22480957.437     5980348.620 5   4709747.368 5
 94  2 13 14 25 59.9950000  0  8 25 15 28 21 31  1 12 23
  21564605.468   -10181958.535 6  -7844539.604 6
  22009108.124    -7205698.627 5  -5519676.360 5
  21915544.991   -15300002.390 5 -11826423.906 5
  19819565.476   -22664658.988 7 -17492765.124 8
  21526862.062   -13641636.986 6 -10369640.595 5
  19126666.437   -27850704.199 7 -21602674.413 9
  23252848.913    -2604267.094 5  -1929577.851 2
  22490509.585     6030551.889 5   4748866.719 5
 94  2 13 14 26 29.9950000  0  8 25 15 28 21 31  1 12 23
  21543626.523   -10292202.320 6  -7930443.855 6
  21986961.218    -7322108.388 5  -5610385.271 5
  21929751.351   -15225367.556 5 -11768266.925 5
  19823128.616   -22645915.499 7 -17478159.836 8
  21532925.851   -13609797.489 6 -10344830.605 5
  19130111.351   -27832613.484 7 -21588577.760 9
  23260217.421    -2565583.197 5  -1899434.625 2
  22500084.101     6080859.866 5   4788067.674 5
 94  2 13 14 26 59.9950000  0  8 25 15 28 21 31  1 12 23
  21522687.202   -10402246.720 6  -8016192.745 6
  21964842.171    -7438339.420 5  -5700954.898 5
  21943984.210   -15150556.774 5 -11709972.831 5
  19826742.257   -22626946.601 7 -17463378.900 8
  21539071.116   -13577503.841 6 -10319666.736 6
  19133624.976   -27814131.324 7 -21574176.094 9
  23267679.796    -2526316.231 5  -1868837.000 3
  22509680.155     6131267.611 5   4827346.364 5
 94  2 13 14 27 29.9950000  0  8 25 15 28 21 31  1 12 23
  21501781.733   -10512096.861 6  -8101790.262 6
  21942755.538    -7554390.922 5  -5791384.622 5
  21958255.210   -15075566.362 5 -11651538.774 5
  19830397.085   -22607747.660 7 -17448418.718 8
  21545296.710   -13544770.190 6 -10294160.010 5
  19137218.569   -27795250.359 7 -21559463.667 9
  23275273.851    -2486469.319 5  -1837787.538 3
  22519290.983     6181778.148 5   4866705.151 5
 94  2 13 14 27 59.9950000  0  8 25 15 28 21 31  1 12 23
  21480916.483   -10621756.140 6  -8187239.046 6
  21920707.374    -7670256.674 5  -5881669.624 5
  21972556.366   -15000395.009 5 -11592963.707 5
  19834097.327   -22588295.462 7
  21551607.179   -13511609.947 6 -10268320.864 5
  19140887.413   -27775974.032 7
  23282964.108    -2446040.770 5  -1806284.801 2
  22528924.218     6232406.544 5   4906155.772 5
 94  2 13 14 28 29.9950000  0  8 25 15 28 21 31  1 12 23
  21460085.898   -10731220.825 6  -8272536.210 6
  21898694.898    -7785939.139 5  -5971811.799 5
  21986898.866   -14925051.205 5 -11534254.274 5
  19837847.296   -22568582.638 7
  21557994.569   -13478035.688 6 -10242159.123 5
  19144630.249   -27756306.799 7
  23290768.030    -2405037.445 5  -1774334.187 4
  22538576.554     6283159.491 5   4945703.460 5
 94  2 13 14 28 59.9950000  0  8 25 15 28 21 31  1 12 23
  21439291.804   -10840487.987 6  -8357679.456 6
  21876721.898    -7901427.534 5  -6061802.740 5
  22001266.616   -14849535.915 5 -11475411.232 5
  19841648.171   -22548614.590 7
  21564461.812   -13444053.631 6 -10215679.615 6
  19148447.671   -27736244.011 7
  23298675.218    -2363453.439 5  -1741931.108 3
  22548266.171     6334042.642 5   4985352.586 5
 94  2 13 14 29 29.9950000  0  8 25 15 28 21 31  1 12 23
  21418537.202   -10949563.895 6  -8442673.671 6
  21854776.921    -8016724.429 5  -6151644.486 5
  22015665.733   -14773870.835 5 -11416451.436 5
  19845493.429   -22528419.152 7 -17386604.396 8
  21571007.140   -13409676.642 6 -10188892.352 5
  19152336.007   -27715805.394 7 -21497558.559 9
  23306704.233    -2321295.273 5  -1709080.649 3
  22557969.491     6385043.748 5   5025093.636 5
 94  2 13 14 29 59.9950000  0  8 25 15 28 21 31  1 12 23
  21397818.999   -11058430.534 6  -8527504.820 6
  21832877.663    -8131820.182 5  -6241329.489 5
  22030092.265   -14698060.222 5 -11357378.256 5
  19849377.421   -22507990.711 7 -17370686.160 8
  21577624.585   -13374894.870 6 -10161789.683 5
  19156296.187   -27694999.663 7 -21481346.313 9
  23314833.999    -2278558.389 5  -1675779.246 3
  22567693.077     6436154.104 5   5064919.814 5
 94  2 13 14 30 29.9950000  0  8 25 15 28 21 31  1 12 23
  21377146.491   -11167074.151 6  -8612162.185 6
  21811012.515    -8246710.677 5  -6330854.543 5
  22044545.991   -14622106.793 5 -11298193.808 5
  19853305.702   -22487343.222 7 -17354597.231 8
  21584317.421   -13339699.245 6 -10134364.533 5
  19160331.640   -27673809.778 7 -21464834.731 9
  23323073.773    -2235243.015 5  -1642027.041 4
  22577438.491     6487360.361 5   5104820.714 5
 94  2 13 14 30 59.9950000  0  8 25 15 28 21 31  1 12 23
  21356515.804   -11275494.142 6  -8696645.296 6
  21789188.819    -8361401.679 5  -6420224.152 5
  22059019.280   -14546040.816 5 -11238921.637 5
  19857278.022   -22466483.709 7 -17338343.094 8
  21591095.140   -13304094.582 6 -10106620.644 5
  19164433.358   -27652235.177 7 -21448023.373 9
  23331430.757    -2191359.665 5  -1607832.293 4
  22587198.085     6538641.079 5   5144779.630 5
 94  2 13 14 31 29.9950000  0  8 25 15 28 21 31  1 12 23
  21335924.577   -11383678.991 6  -8780945.171 6
  21767401.835    -8475888.435 5  -6509434.630 5
  22073520.476   -14469865.222 5 -11179564.063 5
  19861286.796   -22445394.322 7 -17321909.834 8
  21597949.804   -13268078.009 6 -10078555.801 5
  19168617.327   -27630269.736 7 -21430907.460 9
  23339887.507    -2146908.180 5  -1573194.830 3
  22596969.640     6589995.663 5   5184796.106 5
 94  2 13 14 31 59.9950000  0  8 25 15 28 21 31  1 12 23
  21315383.163   -11491620.677 6  -8865055.573 6
  21745653.397    -8590168.915 5  -6598484.349 5
  22088032.507   -14393580.736 5 -11120121.645 5
  19865347.226   -22424067.770 7 -17305291.763 8
  21604878.023   -13231658.943 6 -10050177.324 5
  19172872.366   -27607900.660 7 -21413477.022 9
  23348446.741    -2101891.193 5  -1538116.713 3
  22606759.601     6641446.301 5   5224887.431 4
 94  2 13 14 32 29.9950000  0  8 25 15 28 21 31  1 12 23
  21294889.804   -11599315.293 6  -8948973.453 6
  21723946.437    -8704241.294 5  -6687371.914 5
  22102567.155   -14317188.150 5 -11060595.001 5
  19869453.499   -22402505.002 7 -17288489.633 8
  21611884.218   -13194839.932 6 -10021487.201 5
  19177204.851   -27585118.961 7 -21395725.071 9
  23357129.593    -2056311.547 5  -1502600.163 2
  22616578.327     6693016.206 5   5265071.682 5
 94  2 13 14 32 59.9950000  0  8 25 15 28 21 31  1 12 23
  21274442.335   -11706773.588 6  -9032707.186 6
  21702280.827    -8818099.746 5  -6776092.785 5
  22117128.780   -14240671.896 5 -11000971.961 4
  19873603.562   -22380691.872 7 -17271492.417 8
  21618966.038   -13157623.823 5  -9992487.646 5
  19181614.054   -27561946.689 7 -21377668.766 9
  23365906.210    -2010168.504 5  -1466644.590 3
  22626416.804     6744724.814 5   5305364.005 5
 94  2 13 14 33 29.9950000  0  8 25 15 28 21 31  1 12 23
  21254036.374   -11814016.011 6  -9116272.703 6
  21680653.718    -8931746.806 5  -6864648.936 5
  22131716.538   -14164022.623 5 -10941245.299 4
  19877800.726   -22358637.674 7 -17254307.357 8
  21626124.546   -13120016.264 5  -9963183.076 5
  19186096.905   -27538392.579 7 -21359314.934 9
  23374795.952    -1963468.885 5  -1430255.331 2
  22636285.101     6796578.282 5   5345769.229 5
 94  2 13 14 33 59.9950000  0  8 25 15 28 21 31  1 12 23
  21233670.069   -11921038.543 6  -9199666.889 6
  21659070.577    -9045178.011 5  -6953036.890 5
  22146327.835   -14087237.609 5 -10881412.852 5
  19882043.687   -22336343.344 7 -17236935.180 8
  21633357.804   -13082011.900 5  -9933569.293 5
  19190652.554   -27514454.109 7 -21340661.597 9
  23383788.983    -1916213.224 4  -1393432.764 2
  22646181.390     6848572.177 5   5386283.853 5
 94  2 13 14 34 29.9950000  0  8 25 15 28 21 31  1 12 23
  21213344.687   -12027858.036 6  -9282902.855 6
  21637529.288    -9158394.977 5  -7041257.899 5
  22160965.054   -14010317.508 5 -10821475.137 4
  19886331.358   -22313807.417 7 -17219374.731 7
  21640665.554   -13043603.588 5  -9903640.757 5
  19195277.890   -27490151.360 7 -21321724.406 9
  23392884.319    -1868407.593 4  -1356181.661 2
  22656091.718     6900683.498 5   5426890.000 4
 94  2 13 14 34 59.9950000  0  8 25 15 28 21 31  1 12 23
  21193052.921   -12134477.908 6  -9365983.276 6
  21616023.710    -9271390.280 6  -7129306.197 5
  22175623.132   -13933268.908 5 -10761437.302 4
  19890663.866   -22291025.002 7 -17201622.240 7
  21648048.655   -13004790.061 5  -9873396.473 5
  19199973.718   -27465484.069 7 -21302503.152 9
  23402089.062    -1820049.941 4  -1318500.425 4
  22666031.796     6952903.419 5   5467580.754 4
 94  2 13 14 35 29.9950000  0  8 25 15 28 21 31  1 12 23
  21172806.241   -12240870.426 6  -9448886.542 6
  21594561.882    -9384160.236 6  -7217178.899 5
  22190311.882   -13856111.069 5 -10701314.327 5
  19895045.538   -22267994.480 7 -17183676.410 8
  21655512.562   -12965576.615 5  -9842840.550 5
  19204740.452   -27440434.524 7 -21282984.048 9
  23411388.866    -1771141.146 4  -1280389.699 3
  22675991.257     7005225.798 5   5508351.364 4
 94  2 13 14 35 59.9950000  0  8 25 15 28 21 31  1 12 23
  21152607.679   -12347016.945 6  -9531598.123 6
  21573148.374    -9496700.373 6  -7304872.516 5
  22205014.655   -13778841.856 5 -10641104.598 5
  19899480.788   -22244707.744 7 -17165530.931 8
  21663049.319   -12925970.952 5  -9811979.009 5
  19209575.632   -27415009.592 7 -21263172.430 9
  23420808.437    -1721681.702 4  -1241849.891 1
  22685963.898     7057653.613 5   5549204.105 4
 94  2 13 14 36 29.9950000  0  8 25 15 28 21 31  1 12 23
  21132456.515   -12452917.336 6  -9614117.905 6
  21551774.944    -9609010.777 6  -7392387.122 5
  22219740.671   -13701466.849 5 -10580812.423 4
  19903955.937   -22221162.262 7 -17147183.830 8
  21670659.085   -12885990.867 5  -9780825.717 5
  19214487.155   -27389219.556 7 -21243076.312 9
  23430320.921    -1671676.383 5  -1202884.754 3
  22695963.015     7110198.360 5   5590147.983 4
 94  2 13 14 36 59.9950000  0  8 25 15 28 21 31  1 12 23
  21112356.687   -12558550.323 6  -9696429.329 6
  21530450.007    -9721090.458 6  -7479721.953 6
  22234482.366   -13623995.079 5 -10520444.860 4
  19908490.468   -22197365.502 7 -17128640.928 7
  21678335.624   -12845648.888 5  -9749390.431 5
  19219462.202   -27363057.095 7 -21222689.997 9
  23439933.273    -1621129.417 5  -1163497.548 3
  22705990.116     7162863.941 5   5631186.007 3
 94  2 13 14 37 29.9950000  0  8 25 15 28 21 31  1 12 23
  21092302.507   -12663913.049 6  -9778530.163 6
  21509164.546    -9832937.345 6  -7566875.372 6
  22249242.405   -13546424.870 5 -10460000.594 3
  19913062.749   -22173316.846 7 -17109901.735 7
  21686076.804   -12804951.781 5  -9717678.417 5
  19224514.171   -27336527.675 7 -21202017.733 9
  23449658.452    -1570043.636 5  -1123690.462 3
  22716029.796     7215642.111 4   5672311.743 4
 94  2 13 14 37 59.9950000  0  8 25 15 28 21 31  1 12 23
  21072303.765   -12769022.393 6  -9860433.548 6
  21487927.944    -9944549.452 6  -7653845.852 6
  22264020.093   -13468758.990 5 -10399481.770 3
  19917683.601   -22149028.321 7 -17090975.644 7
  21693889.444   -12763908.060 5  -9685696.321 5
  19229628.265   -27309649.918 7 -21181074.049 9
  23459483.171    -1518421.827 5  -1083465.744 3
  22726098.655     7268532.920 4   5713525.286 3
 94  2 13 14 38 29.9950000  0  8 25 15 28 21 31  1 12 23
  21052348.343   -12873886.333 6  -9942145.720 6
  21466731.226   -10055922.077 6  -7740629.731 5
  22278818.476   -13391011.612 5 -10338899.442 4
  19922353.780   -22124509.465 7 -17071870.062 7
  21701769.101   -12722507.095 5  -9653435.847 5
  19234806.483   -27282424.842 7 -21159859.719 9
  23469402.913    -1466264.688 5  -1042823.855 3
  22736173.913     7321531.359 4   5754822.680 2
 94  2 13 14 38 59.9950000  0  8 25 15 28 21 31  1 12 23
  21032440.655   -12978513.540 6 -10023673.413 6
  21445586.319   -10167052.350 6  -7827224.757 6
  22293621.655   -13313197.002 5 -10278264.736 5
  19927061.632   -22099771.416 7 -17052593.693 7
  21709715.233   -12680739.579 5  -9620889.749 5
  19240050.593   -27254862.377 7 -21138382.489 9
  23479436.077    -1413574.265 5
  22746283.132     7374622.169 4
 94  2 13 14 39 29.9950000  0  8 25 15 28 21 31  1 12 23
  21012573.858   -13082908.815 6 -10105020.384 6
  21424482.687   -10277939.102 6  -7913630.032 6
  22308445.398   -13235313.715 5 -10217576.499 4
  19931810.398   -22074814.002 7 -17033146.384 8
  21717729.593   -12638612.102 5  -9588063.168 5
  19245360.194   -27226970.682 7 -21116648.717 9
  23489568.937    -1360354.272 5   -960296.344 3
  22756399.366     7427806.562 4   5837634.289 3
 94  2 13 14 39 59.9950000  0  8 25 15 28 21 31  1 12 23
  20992755.038   -13187058.945 6 -10186176.321 6
  21403431.054   -10388578.032 6  -7999842.197 6
  22323280.851   -13157357.680 5 -10156831.559 4
  19936601.944   -22049637.555 7 -17013528.396 8
  21725822.038   -12596116.570 5  -9554949.782 5
  19250731.812   -27198740.651 7 -21094651.311 9
  23499794.147    -1306605.525 5   -918414.259 2
  22766543.249     7481096.454 5   5879158.784 4
 94  2 13 14 40 29.9950000  0  8 25 15 28 21 31  1 12 23
  20972981.968   -13290958.599 6 -10267137.094 6
  21382423.530   -10498976.142 6  -8085866.717 6
  22338125.468   -13079335.680 5 -10096035.265 2
  19941433.944   -22024242.667 7 -16993740.200 7
  21733980.640   -12553246.338 5  -9521544.420 5
  19256167.585   -27170167.552 7 -21072386.577 9
  23510122.460    -1252340.118 5   -876129.578 2
  22776705.601     7534476.561 5   5920753.564 4
 94  2 13 14 40 59.9950000  0  8 25 15 28 21 31  1 12 23
  20953265.897   -13394576.589 6 -10347878.378 7
  21361462.147   -10609116.844 6  -8171690.657 6
  22352988.585   -13001226.699 5 -10035171.140 2
  19946313.132   -21998601.896 7 -16973760.410 7
  21742207.015   -12510002.425 5  -9487847.881 5
  19261674.702   -27141230.378 7 -21049838.153 9
  23520543.687    -1197546.770 5   -833433.507 3
  22786879.460     7587970.559 4   5962437.095 4
 94  2 13 14 41 29.9950000  0  8 25 15 28 21 31  1 12 23
  20933604.257   -13497904.389 6 -10428393.544 7
  21340549.694   -10719005.690 6  -8257318.332 6
  22367870.679   -12923024.626 5  -9974234.513 4
  19951237.007   -21972718.521 7 -16953591.570 7
  21750496.460   -12466406.003 5  -9453876.667 5
  19267252.702   -27111924.535 7 -21027002.448 9
  23531069.632    -1142236.250 5   -790334.460 2
  22797085.327     7641580.133 5   6004210.681 4
 94  2 13 14 41 59.9950000  0  8 25 15 28 21 31  1 12 23
  20913999.296   -13600924.274 6 -10508668.774 7
  21319690.304   -10828633.092 6  -8342742.291 6
  22382770.858   -12844733.383 5  -9913228.396 4
  19956206.546   -21946588.786 7 -16933230.779 7
  21758869.866   -12422449.538 5  -9419624.898 5
  19272901.773   -27082250.032 7 -21003879.486 9
  23541690.085    -1086403.913 5   -746828.788 2
  22807309.515     7695315.941 4   6046082.619 3
 94  2 13 14 42 29.9950000  0  8 25 15 28 21 31  1 12 23
  20894449.608   -13703647.875 6 -10588713.139 7
  21298878.468   -10937999.777 6  -8427963.092 6
  22397684.077   -12766365.679 5  -9852162.712 2
  19961229.515   -21920217.488 7 -16912681.749 7
  21767295.468   -12378152.906 5  -9385108.074 5
  19278612.585   -27052222.874 7 -20980481.726 9
  23552410.421    -1030055.849 4   -702921.260 2
  22817555.241     7749178.110 4   6088053.028 4
 94  2 13 14 42 59.9950000  0  7 25 15 28 21 31  1 23
  20874958.273   -13806079.818 6 -10668530.226 7
  21278115.179   -11047107.741 6  -8512982.307 6
  22412607.444   -12687928.790 4  -9791043.095 3
  19966287.819   -21893616.375 7 -16891953.647 7
  21775785.171   -12333541.720 5  -9350346.128 5
  19284394.163   -27021860.768 7 -20956822.969 9
  22827831.858     7803165.184 4   6130120.762 3
 94  2 13 14 43 29.9950000  0  7 25 15 28 21 31  1 23
  20855521.155   -13908221.328 6 -10748121.026 7
  21257405.257   -11155950.087 6  -8597794.540 6
  22427543.249   -12609436.463 5  -9729880.296 4
  19971396.155   -21866786.827 7 -16871047.542 7
  21784336.108   -12288607.000 5  -9315332.080 5
  19290229.460   -26991179.097 7 -20932915.193 9
  22838121.718     7857268.012 4   6172278.722 4
 94  2 13 14 43 59.9950000  0  7 25 15 28 21 31  1 23
  20836139.421   -14010079.008 6 -10827490.635 7
  21236744.312   -11264518.944 6  -8682393.656 6
  22442487.929   -12530911.269 5  -9668691.887 3
  19976542.241   -21839724.933 7 -16849960.387 7
  21792951.413   -12243329.606 5  -9280051.016 5
  19296130.304   -26960179.221 7 -20908759.469 9
  22848444.640     7911488.235 4   6214528.145 4
 94  2 13 14 44 29.9950000  0  7 25 15 28 21 31  1 23
  20816806.937   -14111670.313 6 -10906652.693 7
  21216136.765   -11372815.503 6  -8766780.593 6
  22457434.007   -12452361.709 5  -9607484.495 2
  19981740.577   -21812429.443 7 -16828691.213 7
  21801636.944   -12197707.942 5  -9244501.697 5
  19302086.882   -26928863.041 7 -20884357.278 9
  22858779.819     7965807.658 4   6256854.838 4
 94  2 13 14 44 59.9950000  0  7 25 15 28 21 31  1 23
  20797526.382   -14212983.844 6 -10985598.298 7
  21195580.483   -11480843.466 6  -8850958.243 6
  22472382.937   -12373804.052 5  -9546270.778 3
  19986976.726   -21784904.011 7 -16807242.861 7
  21810379.749   -12151741.235 5  -9208683.507 5
  19308108.601   -26897234.415 7 -20859711.622 9
  22869131.671     8020213.917 3   6299249.225 3
 94  2 13 14 45 29.9950000  0  7 25 15 28 21 31  1 23
  20778299.905   -14314022.796 6 -11064329.963 7
  21175073.608   -11588601.303 6  -8934925.394 6
  22487338.062   -12295242.738 4  -9485054.237 4
  19992255.937   -21757147.327 7 -16785614.309 7
  21819194.741   -12105427.623 5  -9172594.999 5
  19314188.265   -26865289.254 7 -20834819.312 9
  22879510.819     8074714.384 3   6341717.003 3
 94  2 13 14 45 59.9950000  0  7 25 15 28 21 31  1 23
  20759126.983   -14414778.871 6 -11142841.192 7
  21154619.335   -11696080.809 6  -9018675.680 6
  22502290.382   -12216644.471 5  -9423808.883 4
  19997585.163   -21729160.328 7 -16763806.298 7
  21828075.999   -12058777.575 5  -9136244.346 5
  19320329.483   -26833000.586 7 -20809659.337 9
  22889897.101     8129324.865 3   6384270.499 2
 94  2 13 14 46 29.9950000  0  7 25 15 28 21 31  1 23
  20740007.226   -14515244.880 6 -11221126.408 7
  21134220.069   -11803284.156 6  -9102210.759 6
  22517256.046   -12137994.916 5  -9362523.566 3
  20002956.749   -21700945.206 7 -16741820.529 7
  21837005.991   -12011821.000 5  -9099654.842 5
  19326535.687   -26800380.766 7 -20784241.320 9
  22900306.483     8184040.643 3   6426906.034 3
 94  2 13 14 46 59.9950000  0  7 25 15 28 21 31  1 23
  20720947.015   -14615411.063 6 -11299177.985 7
  21113873.655   -11910208.418 6  -9185528.382 6
  22532231.046   -12059291.800 4  -9301196.526 3
  20008369.937   -21672497.627 7 -16719653.617 7
  21845995.702   -11964573.784 5  -9062838.841 5
  19332806.233   -26767433.213 7 -20758567.926 9
  22910744.374     8238875.771 3   6469634.616 3
 94  2 13 14 47 29.9950000  0  7 25 15 28 21 31  1 23
  20701941.155   -14715289.161 6 -11377005.091 7
  21093581.296   -12016850.553 6  -9268626.162 6
  22547219.476   -11980527.744 4  -9239821.975 3
  20013829.101   -21643806.805 7 -16697297.168 7
  21855044.483   -11917039.224 5  -9025798.947 5
  19339139.773   -26734154.981 7 -20732636.861 9
  22921205.616     8293831.311 3   6512456.982 4
 94  2 13 14 47 59.9950000  0  7 25 15 28 21 31  1 23
  20682991.741   -14814874.402 6 -11454603.981 7
  21073340.632   -12123208.287 6  -9351502.342 6
  22562218.710   -11901719.268 4  -9178412.828 3
  20019339.765   -21614851.634 7 -16674734.738 7
  21864146.327   -11869224.551 5  -8988540.776 5
  19345534.124   -26700553.228 7 -20706453.699 9
  22931684.991     8348899.671 3   6555367.255 1
 94  2 13 14 48 29.9950000  0  7 25 15 28 21 31  1 23
  20664099.038   -14914160.160 6 -11531969.520 7
  21053155.335   -12229281.633 6  -9434156.909 6
  22577216.390   -11822902.169 3  -9116996.982 2
  20024901.374   -21585621.055 7 -16651957.703 7
  21873297.476   -11821114.947 5  -8951052.807 5
  19351984.921   -26666646.623 7 -20680032.986 9
  22942179.358     8404072.739 3   6598359.131 3
 94  2 13 14 48 59.9950000  0  7 25 15 28 21 31  1 23
  20645261.265   -15013145.682 6 -11609101.109 7
  21033026.921   -12335069.456 6  -9516588.984 6
  22592217.921   -11744082.847 4  -9055579.393 3
  20030517.101   -21556111.834 7 -16628963.546 7
  21882506.405   -11772703.764 5  -8913329.839 5
  19358497.804   -26632425.943 7 -20653367.544 9
  22952700.187     8459353.057 3   6641434.566 2
 94  2 13 14 49 29.9950000  0  7 25 15 28 21 31  1 23
  20626486.562   -15111824.831 6 -11685993.969 7
  21012946.460   -12440561.828 6  -9598790.847 6
  22607216.679   -11665258.317 4  -8994157.734 3
  20036182.937   -21526326.580 7 -16605754.293 7
  21891779.491   -11723983.886 5  -8875366.321 5
  19365071.241   -26597881.142 7 -20626449.542 9
  22963247.452     8514745.438 3   6684597.311 2
 94  2 13 14 49 59.9950000  0  7 25 15 28 21 31  1 23
  20607766.179   -15210184.018 6 -11762637.507 7
  20992933.046   -12545762.573 6  -9680765.460 6
  22622214.702   -11586439.432 4  -8932740.495 4
  20041896.327   -21496293.175 7 -16582351.677 7
  21901114.163   -11674955.392 5  -8837162.322 5
  19371705.085   -26563027.741 7 -20599291.058 9
  22973798.046     8570250.288 3   6727847.729 2
 94  2 13 14 50 29.9950000  0  7 25 15 28 21 31  1 23
  20589111.569   -15308219.709 6 -11839028.972 7
  20972967.515   -12650670.351 6  -9762511.802 6
  22637215.179   -11507616.383 4  -8871319.979 3
  20047651.952   -21466042.189 7 -16558779.513 7
  21910501.062   -11625618.920 5  -8798718.341 5
  19378396.319   -26527868.968 7 -20571894.638 9
  22984392.733     8625866.149 3   6771184.643 2
 94  2 13 14 50 59.9950000  0  7 25 15 28 21 31  1 23
  20570516.499   -15405931.173 6 -11915167.795 7
  20953063.288   -12755278.802 6  -9844024.889 6
  22652219.601   -11428775.107 4  -8809885.285 2
  20053449.726   -21435593.955 7 -16535053.658 7
  21919943.851   -11575987.345 5  -8760044.424 5
  19385146.507   -26492394.215 7 -20544251.993 9
  22994995.812     8681605.600 3   6814617.827 2
 94  2 13 14 51 29.9950000  0  7 25 15 28 21 31  1 23
  20551985.835   -15503317.826 6 -11991053.516 7
  20933212.101   -12859590.362 6  -9925306.639 6
  22667221.796   -11349931.527 4  -8748448.784 3
  20059280.601   -21404951.804 7 -16511176.702 7
  21929438.882   -11526065.327 5  -8721144.171 5
  19391951.663   -26456624.855 7 -20516379.784 9
  23005626.124     8737453.186 3   6858135.282 2
 94  2 13 14 51 59.9950000  0  7 25 15 28 21 31  1 23
  20533514.843   -15600375.736 6 -12066683.066 7
  20913421.702   -12963601.569 6 -10006354.345 6
  22682226.038   -11271094.046 4  -8687017.059 3
  20065145.577   -21374108.117 7 -16487142.702 7
  21939001.366   -11475853.509 5  -8682018.100 5
  19398814.397   -26420572.935 7 -20488287.398 9
  23016274.202     8793406.025 3   6901734.743 2
 94  2 13 14 52 29.9950000  0  7 25 15 28 21 31  1 23
  20515106.038   -15697122.633 6 -12142070.281 7
  20893683.757   -13067309.513 6 -10087165.743 6
  22697222.148   -11192262.713 3  -8625590.127 2
  20071062.062   -21343049.018 7 -16462940.844 7
  21948606.046   -11425370.970 5  -8642681.100 5
  19405726.069   -26384236.410 7 -20459973.246 9
  23026925.023     8849456.362 3   6945410.172 2
 94  2 13 14 52 59.9950000  0  6 25 15 28 21 31  1
  20496753.054   -15793561.899 6 -12217217.769 7
  20874008.116   -13170712.729 6 -10167739.698 6
  22712224.124   -11113448.809 4  -8564176.759 3
  20077012.648   -21311752.834 7 -16438554.247 7
  21958262.718   -11374623.322 5  -8603137.508 5
  19412695.632   -26347623.723 7 -20431443.897 9
 94  2 13 14 53 29.9950000  0  6 25 15 28 21 31  1
  20478460.390   -15889691.773 6 -12292124.175 7
  20854389.327   -13273806.959 6 -10248072.891 6
  22727217.921   -11034662.273 4  -8502784.726 2
  20083022.273   -21280191.973 7 -16413961.412 7
  21967969.030   -11323611.618 5  -8563388.150 5
  19419712.187   -26310750.843 7 -20402711.803 9
 94  2 13 14 54 29.9940000  0  6 25 15 28 21 31  1
  20442051.088   -16081032.044 6 -12441220.517 7
  20815326.369   -13479075.789 6 -10408022.664 6
  22757188.549   -10877175.284 4  -8380067.774 2
  20095167.869   -21216356.495 7 -16364219.560 7
  21987518.424   -11220879.478 5  -8483337.201 5
  19433890.471   -26236241.801 7 -20344652.856 9
 94  2 13 14 54 59.9940000  0  6 25 15 28 21 31  1
  20423933.854   -16176226.588 7 -12515398.086 7
  20795886.807   -13581249.401 6 -10487638.502 7
  22772165.221   -10798465.993 4  -8318735.914 2
  20101308.791   -21184085.754 7 -16339073.568 7
  21997359.166   -11169164.974 5  -8443040.227 5
  19441052.565   -26198600.510 7 -20315322.004 9
 94  2 13 14 55 29.9940000  0  6 25 15 28 21 31  1
  20405883.955   -16271091.847 7 -12589319.071 7
  20776501.893   -13683107.908 6 -10567008.782 7
  22787141.885   -10719768.937 4  -8257413.628 2
  20107493.846   -21151582.444 7 -16313746.368 7
  22007242.814   -11117215.119 5  -8402559.859 5
  19448266.525   -26160693.205 7 -20285783.871 9
 94  2 13 14 55 59.9940000  0  6 25 15 28 21 31  1
  20387892.190   -16365621.010 7 -12662978.169 8
  20757180.588   -13784650.055 6 -10646132.546 7
  22802115.143   -10641080.201 4  -8196097.835 2
  20113721.315   -21118849.890 7 -16288240.531 7
  22017181.533   -11065026.457 5  -8361893.404 4
  19455532.205   -26122513.125 7 -20256033.187 9
 94  2 13 14 56 29.9940000  0  6 25 15 28 21 31  1
  20369968.447   -16459827.168 6 -12736385.567 7
  20737914.400   -13885881.138 6 -10725013.927 7
  22817080.135   -10562420.156 4  -8134804.355 2
  20120000.416   -21085873.053 7 -16262544.334 7
  22027155.268   -11012593.031 5  -8321036.239 5
  19462847.205   -26084070.113 7 -20226077.623 9
 94  2 13 14 56 59.9940000  0  6 25 15 28 21 31  1
  20352102.057   -16553707.046 7 -12809538.720 7
  20718712.690   -13986795.405 6 -10803648.445 7
  22832041.963   -10483801.435 4  -8073543.112 2
  20126319.143   -21052646.228 7 -16236653.345 7
  22037182.830   -10959903.958 5  -8279979.857 5
  19470214.158   -26045365.177 7 -20195917.960 9
 94  2 13 14 57 29.9940000  0  6 25 15 28 21 31  1
  20334303.369   -16647240.673 7 -12882422.067 7
  20699571.111   -14087388.263 6 -10882032.504 7
  22846989.752   -10405233.179 3  -8012321.178 3
  20132691.174   -21019185.525 7 -16210580.116 7
  22047263.877   -10906943.616 5  -8238712.119 5
  19477625.885   -26006402.767 7 -20165557.676 9
 94  2 13 14 57 59.9940000  0  6 25 15 28 21 31  1
  20316571.385   -16740431.755 7 -12955038.505 7
  20680487.893   -14187661.390 6 -10960167.421 7
  22861926.385   -10326736.651 3  -7951155.167 2
  20139096.197   -20985510.478 7 -16184339.864 7
  22057385.596   -10853721.695 5  -8197240.539 4
  19485092.627   -25967185.760 7 -20134999.013 9
 94  2 13 14 58 29.9940000  0  6 25 15 28 21 31  1
  20298901.822   -16833280.593 7 -13027388.251 7
  20661471.369   -14287608.974 6 -11038048.675 7
  22876851.854   -10248318.803 3  -7890050.434 2
  20145543.916   -20951636.848 6 -16157944.864 7
  22067561.494   -10800252.958 5  -8155576.631 5
  19492601.713   -25927705.000 7 -20104234.814 9
 94  2 13 14 58 59.9940000  0  6 25 15 28 21 31  1
  20281300.315   -16925777.289 7 -13099463.603 8
  20642513.666   -14387228.598 6 -11115674.380 7
  22891759.815   -10169982.046 3  -7829008.902 2
  20152027.096   -20917578.163 7 -16131405.675 7
  22077774.174   -10746552.410 5  -8113732.086 5
  19500166.440   -25887956.970 7 -20073262.355 9
 94  2 13 14 59 29.9940000  0  6 25 15 28 21 31  1
  20263766.439   -17017921.332 7 -13171264.162 8
  20623619.479   -14486513.868 6 -11193039.541 7
  22906649.315   -10091731.034 3  -7768034.183 1
  20158539.752   -20883330.620 7 -16104719.321 7
  22088038.174   -10692639.226 5  -8071721.855 4
  19507782.158   -25847946.213 7 -20042085.171 9
 94  2 13 14 59 59.9940000  0  6 25 15 28 21 31  1
  20246293.346   -17109736.072 7 -13242808.117 8
  20604790.557   -14585469.080 6 -11270147.517 7
  22921521.744   -10013581.841 3  -7707138.786 2
  20165094.986   -20848880.235 6 -16077874.910 7
  22098327.619   -10638545.101 5  -8029570.634 4
  19515444.588   -25807681.210 7 -20010709.874 9
 94  2 13 15  0 29.9940000  0  6 25 15 28 21 31  1
  20228891.049   -17201204.168 7 -13314081.964 8
  20586020.604   -14684087.100 6 -11346992.747 7
  22936377.338    -9935534.001 3  -7646322.358 2
  20171695.190   -20814209.711 6 -16050858.964 7
  22108658.697   -10584269.753 5  -7987278.185 4
  19523150.971   -25767170.989 7 -19979143.500 9
 94  2 13 15  0 59.9940000  0  6 25 15 28 21 31  1
  20211549.752   -17292316.213 7 -13385078.375 8
  20567320.713   -14782365.006 6 -11423572.955 7
  22951209.721    -9857585.271 3  -7585583.196 1
  20178338.143   -20779311.128 6 -16023665.313 7
  22119032.315   -10529798.419 5  -7944833.055 4
  19530904.041   -25726431.368 7 -19947398.369 9
 94  2 13 15  1 29.9940000  0  6 25 15 28 21 31  1
  20194279.025   -17383070.725 7 -13455796.179 8
  20548684.924   -14880301.856 6 -11499887.405 7
  22966021.346    -9779734.263 3  -7524920.192 1
  20185020.736   -20744182.109 6 -15996292.104 7
  22129427.471   -10475129.892 5  -7902234.231 4
  19538700.463   -25685470.169 7 -19915480.574 9
 94  2 13 15  1 59.9940000  0  6 25 15 28 21 31  1
  20177078.908   -17473463.760 7 -13526232.318 8
  20530111.479   -14977897.375 6 -11575935.881 7
  22980817.963    -9701971.091 3  -7464325.603 2
  20191748.174   -20708814.959 6 -15968733.339 7
  22139875.330   -10420248.793 5  -7859469.788 3
  19546539.650   -25644275.581 7 -19883380.928 9
 94  2 13 15  2 29.9940000  0  6 25 15 28 21 31  1
  20159948.033   -17563490.273 7 -13596382.856 8
  20511604.424   -15075153.041 6 -11651719.533 7
  22995603.361    -9624280.584 3  -7403787.680 3
  20198522.002   -20673221.182 7 -15940997.974 7
  22150360.057   -10365151.615 5  -7816536.978 5
  19554421.158   -25602848.492 7 -19851100.109 9
 94  2 13 15  2 59.9940000  0  6 25 15 28 21 31  1
  20142884.697   -17653150.246 7 -13666247.783 8
  20493165.229   -15172060.509 6 -11727231.862 7
  23010376.729    -9546644.628 3  -7343292.216 1
  20205345.525   -20637386.519 7 -15913074.914 7
  22160883.854   -10309826.162 5  -7773426.284 4
  19562351.838   -25561166.255 7 -19818620.470 9
 94  2 13 15  3 29.9940000  0  6 25 15 28 21 31  1
  20125892.986   -17742446.150 7 -13735829.016 8
  20474788.486   -15268618.150 6 -11802471.605 6
  23025143.424    -9469063.669 3  -7282839.578 1
  20212214.268   -20601298.466 7 -15884954.391 6
  22171456.150   -10254281.462 5  -7730144.729 5
  19570336.291   -25519210.585 7 -19785927.763 9
 94  2 13 15  3 59.9940000  0  6 25 15 28 21 31  1
  20108969.119   -17831381.058 7 -13805128.953 8
  20456479.244   -15364828.175 6 -11877440.475 7
  23039894.244    -9391547.118 3  -7222437.216 2
  20219125.713   -20564962.645 7 -15856640.815 7
  22182066.916   -10198533.510 5  -7686704.828 4
  19578370.885   -25476992.072 7 -19753030.248 9
 94  2 13 15  4 29.9940000  0  6 25 15 28 21 31  1
  20092114.713   -17919951.564 7 -13874144.944 8
  20438241.190   -15460686.368 6 -11952135.199 7
  23054626.775    -9314105.821 3  -7162093.454 2
  20226084.143   -20528388.562 7 -15828141.571 7
  22192706.361   -10142601.268 5  -7643121.312 5
  19586453.416   -25434528.460 7 -19719941.743 9
 94  2 13 15  4 59.9940000  0  6 25 15 28 21 31  1
  20075328.939   -18008162.209 7 -13942880.515 8
  20420067.908   -15556190.829 6 -12026554.276 7
  23069344.510    -9236761.369 3  -7101825.145 1
  20233085.721   -20491578.374 7 -15799458.356 7
  22203385.674   -10086490.606 5  -7599398.767 5
  19594575.065   -25391844.448 7 -19686681.490 9
 94  2 13 15  5 29.9940000  0  5 25 15 21 31  1
  20058613.791   -18096008.555 7 -14011332.220 8
  20401959.815   -15651335.185 6 -12100692.761 7
  20240137.986   -20454544.849 7 -15770601.101 6
  22214092.791   -10030218.697 5  -7555550.586 5
  19602731.564   -25348968.969 7 -19653272.045 9
 94  2 13 15  5 59.9940000  0  5 25 15 21 31  1
  20041967.385   -18183487.991 7 -14079498.024 8
  20383922.916   -15746119.372 6 -12174550.588 7
  20247226.440   -20417309.488 7 -15741586.564 6
  22224831.025    -9973798.969 5  -7511587.218 5
  19610923.986   -25305922.462 7 -19619729.338 9
 94  2 13 15  6 29.9940000  0  5 25 15 21 31  1
  20025387.010   -18270607.630 7 -14147383.456 8
  20365957.854   -15840540.692 6 -12248125.659 7
  20254346.643   -20379884.270 7 -15712424.097 6
  22235597.439    -9917218.073 5  -7467498.244 4
  19619150.408   -25262692.889 7 -19586043.971 9
 94  2 13 15  6 59.9940000  0  5 25 15 21 31  1
  20008875.713   -18357377.243 7 -14214996.134 8
  20348059.611   -15934599.510 6 -12321418.273 7
  20261498.361   -20342272.161 6 -15683115.993 6
  22246396.432    -9860475.907 5  -7423283.621 4
  19627417.322   -25219266.053 7 -19552204.894 9
 94  2 13 15  7 29.9940000  0  5 25 15 21 31  1
  19992435.666   -18443783.360 7 -14282325.569 8
  20330228.799   -16028289.858 6 -12394423.753 7
  20268695.283   -20304463.772 6 -15653654.944 6
  22257218.244    -9803577.051 5  -7378946.904 4
  19635722.088   -25175612.793 7 -19518189.383 9
 94  2 13 15  7 59.9940000  0  5 25 15 21 31  1
  19976060.244   -18529824.816 7 -14349370.868 8
  20312470.057   -16121611.715 6 -12467142.102 7
  20275932.041   -20266450.446 6 -15624034.200 6
  22268080.877    -9746512.293 5  -7334480.893 5
  19644074.041   -25131719.698 7 -19483986.995 9
 94  2 13 15  8 29.9940000  0  5 25 15 21 31  1
  19959755.885   -18615496.585 7 -14416128.092 8
  20294785.127   -16214559.708 6 -12539569.126 7
  20283211.549   -20228205.716 6 -15594233.141 6
  22278976.846    -9689272.080 5  -7289878.172 5
  19652470.385   -25087591.475 7 -19449601.390 9
 94  2 13 15  8 59.9940000  0  5 25 15 21 31  1
  19943531.307   -18700767.177 7 -14482572.701 8
  20277167.315   -16307132.803 6 -12611704.019 7
  20290535.955   -20189708.136 6 -15564235.057 6
  22289900.393    -9631871.982 5  -7245150.889 5
  19660909.213   -25043251.053 7 -19415050.433 9
 94  2 13 15  9 29.9940000  0  5 25 15 21 31  1
  19927385.205   -18785619.367 7 -14548691.292 8
  20259620.658   -16399330.771 6 -12683546.596 7
  20297906.471   -20150951.388 6 -15534035.021 7
  22300848.885    -9574310.487 5  -7200297.827 4
  19669385.721   -24998714.986 7 -19380347.037 9
 94  2 13 15  9 59.9940000  0  5 25 15 21 31  1
  19911317.791   -18870053.942 7 -14614484.465 8
  20242149.346   -16491149.609 6 -12755093.756 7
  20305334.775   -20111938.618 6 -15503635.489 6
  22311828.791    -9516584.020 5  -7155316.218 3
  19677894.377   -24953993.107 7 -19345498.848 9
 94  2 13 15 10 29.9940000  0  5 25 15 21 31  1
  19895327.088   -18954074.621 7 -14679955.123 8
  20224750.635   -16582588.974 6 -12826345.218 7
  20312807.260   -20072678.247 6 -15473043.034 6
  22322857.432    -9458702.351 5  -7110213.669 3
  19686439.002   -24909095.754 7 -19310513.925 9
 94  2 13 15 10 59.9940000  0  5 25 15 21 31  1
  19879414.549   -19037690.900 7 -14745110.658 8
  20207424.416   -16673646.566 6 -12897299.201 7
  20320316.627   -20033189.231 6 -15442272.409 6
  22333898.877    -9400681.377 5  -7065002.592 2
  19695018.299   -24864015.761 7 -19275386.691 9
 94  2 13 15 11 29.9940000  0  5 25 15 21 31  1
  19863574.080   -19120936.087 7 -14809977.038 8
  20190168.408   -16764319.420 6 -12967953.379 7
  20327875.314   -19993486.707 6 -15411335.406 6
  22344959.361    -9342527.557 4  -7019687.983 3
  19703631.111   -24818748.094 7 -19240113.208 9
 94  2 13 15 11 59.9940000  0  5 25 15 21 31  1
  19847806.869   -19203809.154 7 -14874553.447 8
  20172986.729   -16854599.395 7 -13038301.429 7
  20335468.205   -19953579.798 6 -15380239.139 6
  22356041.963    -9284238.028 4  -6974267.612 3
  19712280.963   -24773298.471 7 -19204697.957 9
 94  2 13 15 12 29.9940000  0  5 25 15 21 31  1
  19832105.815   -19286314.315 7 -14938843.182 8
  20155880.408   -16944494.723 6 -13108349.741 7
  20343098.416   -19913479.655 6 -15348992.305 6
  22367166.775    -9225829.193 5  -6928754.296 4
  19720960.369   -24727681.191 7 -19169152.056 9
 94  2 13 15 12 59.9940000  0  5 25 15 21 31  1
  19816476.494   -19368436.018 7 -15002834.113 8
  20138849.432   -17034000.635 6 -13178094.615 7
  20350769.518   -19873183.509 6 -15317592.744 6
  22378300.557    -9167301.851 4  -6883148.625 3
  19729673.080   -24681893.896 7 -19133473.676 9
 94  2 13 15 13 29.9940000  0  5 25 15 21 31  1
  19800926.291   -19450157.287 7 -15066513.020 8
  20121892.518   -17123113.247 6 -13247533.034 7
  20358470.705   -19832688.153 6 -15286037.961 6
  22389464.627    -9108651.510 5  -6837447.117 4
  19738419.682   -24635934.396 7 -19097661.114 9
 94  2 13 15 13 59.9940000  0  5 25 15 21 31  1
  19785454.025   -19531464.818 7 -15129869.527 8
  20105009.877   -17211831.196 7 -13316663.917 7
  20366220.666   -19791987.526 6 -15254323.220 6
  22400650.127    -9049879.243 5  -6791650.601 3
  19747199.877   -24589789.850 7 -19061704.360 9
 94  2 13 15 14 29.9940000  0  5 25 15 21 31  1
  19770060.432   -19612365.698 7 -15192909.171 9
  20088202.166   -17300148.835 7 -13385482.877 7
  20374003.049   -19751071.903 6 -15222440.961 6
  22411846.369    -8990999.903 4  -6745770.671 3
  19756023.033   -24543434.486 7 -19025583.324 9
 94  2 13 15 14 59.9940000  0  5 25 15 21 31  1
  19754743.408   -19692858.907 7 -15255631.145 9
  20071471.002   -17388061.483 7 -13453986.250 7
  20381832.768   -19709938.132 6 -15190388.709 6
  22423073.830    -8932008.430 4  -6699803.356 2
  19764882.346   -24496865.285 7 -18989295.663 9
 94  2 13 15 15 29.9940000  0  5 25 15 21 31  1
  19739499.471   -19772956.768 7 -15318045.057 9
  20054821.979   -17475569.638 7 -13522174.441 7
  20389698.119   -19668587.664 6 -15158167.594 6
  22434325.025    -8872911.873 4  -6653754.151 2
  19773787.158   -24450077.311 7 -18952837.530 9
 94  2 13 15 15 59.9940000  0  5 25 15 21 31  1
  19724329.096   -19852669.147 7 -15380158.592 9
  20038247.455   -17562675.129 7 -13590048.862 7
  20397612.283   -19627020.084 6 -15125777.315 6
  22445588.588    -8813711.617 4  -6607624.133 3
  19782730.455   -24403083.899 7 -18916219.311 9
 94  2 13 15 16 29.9940000  0  5 25 15 21 31  1
  19709237.197   -19931983.859 7 -15441962.255 9
  20021749.494   -17649370.306 7 -13657603.558 7
  20405561.549   -19585222.074 6 -15093207.477 6
  22456876.229    -8754402.598 4  -6561409.380 3
  19791708.190   -24355906.989 7 -18879458.109 9
 94  2 13 15 16 59.9940000  0  5 25 15 21 31  1
  19694227.502   -20010874.300 7 -15503435.322 9
  20005328.721   -17735649.836 7 -13724834.372 7
  20413568.002   -19543181.872 6 -15060448.917 6
  22468185.408    -8694977.381 4  -6515104.080 4
  19800713.893   -24308570.100 7 -18842572.246 9
 94  2 13 15 17 29.9940000  0  5 25 15 21 31  1
  19679294.838   -20089343.294 7 -15564579.985 9
  19988986.479   -17821520.807 7 -13791746.827 7
  20421606.736   -19500906.618 6 -15027507.193 6
  22479516.268    -8635448.699 4  -6468718.151 4
  19809749.150   -24261095.668 7 -18805579.207 9
 94  2 13 15 17 59.9940000  0  5 25 15 21 31  1
  19664443.674   -20167378.445 7 -15625386.593 9
  19972726.869   -17906976.363 7 -13858335.578 7
  20429698.299   -19458389.372 6 -14994376.908 6
  22490853.065    -8575825.198 4  -6422258.353 5
  19818806.322   -24213503.657 7 -18768494.549 9
 94  2 13 15 18 29.9940000  0  5 25 15 21 31  1
  19649677.252   -20244978.232 7 -15685853.949 9
  19956546.330   -17992017.828 7 -13924601.662 7
  20437835.979   -19415642.544 6 -14961067.738 6
  22502215.111    -8516122.124 4  -6375736.545 5
  19827882.088   -24165801.283 7 -18731323.889 9
 94  2 13 15 18 59.9940000  0  6 25 15 14 21 31  1
  19634993.494   -20322143.570 7 -15745982.771 9
  19940442.440   -18076642.445 7 -13990542.935 8
  23114017.815          -0.15613
  20446006.588   -19372684.017 6 -14927593.601 6
  22513595.338    -8456340.697 4  -6329153.683 4
  19836982.221   -24117977.008 7 -18694058.244 9
 94  2 13 15 19 29.9940000  0  6 25 15 14 21 31  1
  19620389.447   -20398884.702 7 -15805781.054 9
  19924418.721   -18160844.952 7 -14056155.274 8
  23095344.541      -98139.899 2
  20454222.854   -19329521.794 6 -14893960.739 6
  22524985.104    -8396488.954 4  -6282516.029 3
  19846109.432   -24070016.036 7 -18656686.084 9
 94  2 13 15 19 59.9940000  0  6 25 15 14 21 31  1
  19605864.815   -20475212.915 7 -15865257.577 8
  19908472.518   -18244628.026 7 -14121440.805 8
  23076647.268     -196349.906 2        -0.49413
  20462472.736   -19286165.357 6 -14860176.547 6
  22536387.940    -8336575.242 4  -6235830.080 3
  19855265.182   -24021908.822 7 -18619199.974 9
 94  2 13 15 20 29.9940000  0  6 25 15 14 21 31  1
  19591420.275   -20551123.604 7 -15924408.756 8
  19892608.979   -18327988.510 6 -14186397.033 8
  23057947.729     -294642.009 2    -76591.791 2
  20470759.002   -19242613.183 6 -14826239.824 6
  22547804.643    -8276582.546 4  -6189082.598 3
  19864452.939   -23973626.977 7 -18581577.784 9
 94  2 13 15 20 59.9940000  0  6 25 15 14 21 31  1
  19577054.564   -20626614.206 7 -15983232.610 9
  19876827.572   -18410926.792 7 -14251024.275 8
  23039226.229     -393018.459 3   -153248.804 1
  20479083.361   -19198857.962 6 -14792144.885 6
  22559234.510    -8216515.840 4  -6142277.428 2
  19873676.229   -23925161.985 7 -18543812.886 9
 94  2 13 15 21 29.9940000  0  6 25 15 14 21 31  1
  19562767.416   -20701684.648 7 -16041729.051 8
  19861128.736   -18493437.778 7 -14315318.565 8
  23020489.322     -491473.468 3   -229967.032 2
  20487452.900   -19154886.358 6 -14757881.336 6
  22570676.197    -8156375.078 4  -6095414.566 3
  19882934.260   -23876511.308 7 -18505903.302 9
 94  2 13 15 21 59.9940000  0  6 25 15 14 21 31  1
  19548563.463   -20776330.637 7 -16099894.753 8
  19845510.135   -18575518.162 7 -14379277.315 8
  23001742.424     -590005.824 3   -306745.573 2
  20495861.197   -19110698.399 6 -14723449.204 6
  22582136.135    -8096156.208 4  -6048490.822 3
  19892225.807   -23827679.186 7 -18467852.328 9
 94  2 13 15 22 29.9940000  0  6 25 15 14 21 31  1
  19534440.018   -20850551.796 7 -16157729.418 9
  19829970.408   -18657169.082 7 -14442901.422 8
  22982976.869     -688631.145 4   -383596.514 3
  20504309.791   -19066307.537 6 -14688858.956 6
  22593605.494    -8035874.058 3  -6001517.793 3
  19901548.197   -23778691.621 7 -18429680.238 9
 94  2 13 15 22 59.9940000  0  6 25 15 14 21 31  1
  19520397.104   -20924353.042 7 -16215236.883 9
  19814513.174   -18738388.853 7 -14506189.572 8
  22964187.408     -787345.610 4   -460516.936 1
  20512794.963   -19021725.651 6 -14654119.865 6
  22605085.440    -7975544.145 3  -5954507.529 2
  19910894.119   -23729574.892 7 -18391407.490 9
 94  2 13 15 23 29.9940000  0  6 25 15 14 21 31  1
  19506432.650   -20997738.929 7 -16272420.693 9
  19799138.830   -18819176.262 7 -14569140.809 8
  22945386.846     -886152.577 4   -537509.465 3
  20521310.807   -18976960.011 6 -14619237.592 6
  22616578.236    -7915163.320 3  -5907457.605 2
  19920263.619   -23680342.654 7 -18353044.744 8
 94  2 13 15 23 59.9940000  0  6 25 15 14 21 31  1
  19492546.549   -21070695.748 7 -16329270.162 8
  19783851.799   -18899526.931 7 -14631751.732 8
  22926567.963     -985050.262 3   -614572.656 1
  20529868.736   -18932002.870 6 -14584206.101 6
  22628072.432    -7854735.172 3  -5860370.821 2
  19929650.885   -23631005.312 7 -18314600.098 9
 94  2 13 15 24 29.9940000  0  6 25 15 14 21 31  1
  19478745.705   -21143221.815 7 -16385783.991 9
  19768646.846   -18979441.242 7 -14694022.638 8
  22907727.815    -1084031.858 3   -691701.238 2
  20538461.799   -18886847.833 6 -14549020.398 6
  22639583.338    -7794266.092 3  -5813252.112 3
  19939060.541   -23581562.406 7 -18276073.186 8
 94  2 13 15 24 59.9940000  0  6 25 15 14 21 31  1
  19465028.088   -21215312.920 7 -16441958.884 9
  19753521.697   -19058915.821 7 -14755950.899 8
  22888878.291    -1183098.796 3   -768896.300 2
  20547094.643   -18841474.802 6 -14513664.835 6
  22651102.455    -7733756.068 4  -5766101.507 2
  19948494.065   -23531995.310 7 -18237449.510 8
 94  2 13 15 25 29.9940000  0  6 25 15 14 21 31  1
  19451395.190   -21286958.236 7 -16497786.415 9
  19738479.674   -19137945.565 7 -14817532.532 8
  22870006.541    -1282253.426 3   -846159.681 1
  20555775.963   -18795868.513 6 -14478127.517 6
  22662623.697    -7673207.511 4  -5718920.873 4
  19957946.955   -23482303.130 7 -18198728.373 8
 94  2 13 15 25 59.9940000  0  6 25 15 14 21 31  1
  19437847.283   -21358156.516 7 -16553265.599 9
  19723523.940   -19216533.826 7 -14878770.156 8
  22851133.150    -1381491.404 3   -923488.014 1
  20564495.424   -18750037.030 6 -14442414.720 6
  22674153.283    -7612640.551 3  -5671725.924 2
  19967425.822   -23432491.883 7 -18159914.450 9
 94  2 13 15 26 29.9940000  0  6 25 15 14 21 31  1
  19424383.565   -21428903.932 7 -16608393.465 9
  19708657.385   -19294676.520 7 -14939660.587 8
  22832224.057    -1480809.890 3  -1000879.024 2
  20573255.104   -18703992.118 6 -14406535.617 6
  22685680.377    -7552056.647 3  -5624517.774 3
  19976929.908   -23382554.367 7 -18121002.141 9
 94  2 13 15 26 59.9940000  0  6 25 15 14 21 31  1
  19411006.080   -21499199.660 7 -16663169.367 9
  19693873.541   -19372375.028 7 -15000204.898 8
  22813309.822    -1580213.134 3  -1078336.149 1
  20582062.143   -18657734.317 6 -14370490.631 6
  22697210.815    -7491455.436 4  -5577296.098 2
  19986452.400   -23332512.661 7 -18082008.645 9
 94  2 13 15 27 29.9940000  0  6 25 15 14 21 31  1
  19397716.658   -21569039.263 7 -16717589.847 9
  19679170.596   -19449625.519 7 -15060400.110 8
  22794388.479    -1679683.436 3  -1155845.467 4
  20590901.697   -18611272.052 6 -14334286.318 6
  22708742.252    -7430827.967 4  -5530054.006 2
  19995993.760   -23282378.344 7 -18042942.985 9
 94  2 13 15 27 59.9940000  0  6 25 15 14 21 31  1
  19384515.635   -21638419.092 7 -16771652.065 9
  19664555.291   -19526421.577 7 -15120241.210 8
  22775444.205    -1779213.207 4  -1233401.146 2
  20599779.502   -18564609.125 6 -14297925.655 6
  22720285.994    -7370168.079 3  -5482786.630 2
  20005555.791   -23232132.410 7 -18003790.347 9
 94  2 13 15 28 29.9940000  0  6 25 15 14 21 31  1
  19371398.065   -21707348.356 7 -16825363.189 9
  19650027.440   -19602761.832 7 -15179727.146 8
  22756490.463    -1878814.585 4  -1311012.635 3
  20608702.127   -18517736.098 6 -14261401.276 6
  22731841.221    -7309463.709 3  -5435484.606 1
  20015138.994   -23181768.081 7 -17964545.452 8
 94  2 13 15 28 59.9940000  0  6 25 15 14 21 31  1
  19358365.432   -21775831.925 7 -16878727.016 9
  19635589.627   -19678641.152 7 -15238853.908 8
  22737517.369    -1978492.212 4  -1388683.552 3
  20617664.065   -18470644.115 6 -14224706.291 6
  22743402.658    -7248707.812 3  -5388142.397 2
  20024745.502   -23131279.407 7 -17925203.666 9
 94  2 13 15 29 29.9940000  0  6 25 15 14 21 31  1
  19345415.588   -21843878.396 7 -16931750.247 9
  19621242.229   -19754057.856 7 -15297620.191 7
  22718537.486    -2078251.635 4  -1466418.175 1
  20626662.260   -18423345.567 6 -14187850.338 6
  22754973.268    -7187915.548 3  -5340771.884 2
  20034381.799   -23080641.975 7 -17885745.972 8
 94  2 13 15 29 59.9940000  0  6 25 15 14 21 31  1
  19332549.900   -21911487.491 7 -16984432.672 9
  19606978.080   -19829008.891 7 -15356023.617 7
  22699537.729    -2178094.990 4  -1544218.268 2
  20635704.135   -18375833.145 6 -14150827.741 6
  22766542.572    -7127105.008 3  -5293387.122 1
  20044047.783   -23029851.779 7 -17846169.238 8
 94  2 13 15 30 29.9940000  0  6 25 15 14 21 31  1
  19319767.916   -21978669.834 7 -17036782.552 9
  19592800.080   -19903498.023 7 -15414067.105 7
  22680523.393    -2278028.688 3  -1622088.713 2
  20644783.072   -18328108.855 6 -14113640.045 6
  22778114.166    -7066292.999 3  -5246001.219 2
  20053738.275   -22978925.650 7 -17806486.581 8
 94  2 13 15 30 59.9940000  0  6 25 15 14 21 31  1
  19307067.096   -22045410.440 7 -17088788.226 9
  19578715.690   -19977520.534 7 -15471747.005 8
  22661491.463    -2378048.053 4  -1700025.931 3
  20653905.182   -18280177.003 6 -14076290.602 6
  22789681.846    -7005500.788 3  -5198630.753 2
  20063457.072   -22927866.787 7 -17766700.489 8
 94  2 13 15 31 29.9940000  0  6 25 15 14 21 31  1
  19294449.135   -22111705.826 7 -17140446.973 9
  19564721.041   -20051077.221 7 -15529063.922 8
  22642446.205    -2478140.346 4  -1778019.939 4
  20663064.611   -18232046.287 6 -14038786.214 6
  22801238.463    -6944760.161 3  -5151300.472 3
  20073194.900   -22876688.900 7 -17726821.656 8
 94  2 13 15 31 59.9940000  0  6 25 15 14 21 31  1
  19281922.658   -22177543.831 7 -17191749.320 9
  19550810.252   -20124164.255 7 -15586014.881 8
  22623374.768    -2578309.863 3  -1856074.149 5
  20672261.744   -18183716.726 6 -14001126.876 6
  22812793.549    -6884068.429 3  -5104008.278 2
  20082951.221   -22825417.469 7 -17686869.923 8
 94  2 13 15 32 29.9940000  0  6 25 15 14 21 31  1
  19269482.533   -22242919.742 7 -17242691.593 9
  19536989.236   -20196782.253 7 -15642600.352 8
  22604295.822    -2678565.453 3  -1934195.390 2
  20681497.791   -18135195.726 6 -13963318.367 6
  22824330.408    -6823420.047 3  -5056749.910 2
  20092721.385   -22774065.932 7 -17646855.771 8
 94  2 13 15 32 59.9940000  0  6 25 15 14 21 31  1
  19257130.393   -22307818.181 7 -17293261.803 9
  19523264.783   -20268927.374 7 -15698817.342 8
  22585207.236    -2778896.422 3  -2012375.365 4
  20690768.494   -18086486.366 6 -13925363.086 6
  22835862.557    -6762811.474 3  -5009522.561 2
  20102506.338   -22722644.538 7 -17606787.189 8
 94  2 13 15 33 29.9940000  0  6 25 15 14 21 31  1
  19244873.674   -22372231.669 7 -17343454.137 9
  19509625.822   -20340595.921 7 -15754662.976 8
  22566106.252    -2879299.872 4  -2090611.813 2
  20700071.158   -18037584.719 6 -13887257.972 6
  22847397.432    -6702212.548 3  -4962302.706 2
  20112303.619   -22671165.573 7 -17566673.738 8
 94  2 13 15 33 59.9940000  0  6 25 15 14 21 31  1
  19232712.486   -22436151.766 7 -17393262.010 9
  19496076.088   -20411781.722 7 -15810132.444 8
  22546982.150    -2979783.529 4  -2168910.799 3
  20709415.986   -17988481.515 6 -13848995.804 6
  22858931.635    -6641593.638 3  -4915067.247 2
  20122111.346   -22619624.963 7 -17526512.252 8
 94  2 13 15 34 29.9940000  0  6 25 15 14 21 31  1
  19220638.908   -22499590.053 7 -17442694.442 9
  19482625.221   -20482482.850 7 -15865224.242 8
  22527847.557    -3080335.670 4  -2247263.145 2
  20718796.549   -17939165.501 6 -13810567.807 6
  22870471.854    -6580949.989 3  -4867812.544 2
  20131937.002   -22568000.186 7 -17486285.176 8
 94  2 13 15 34 59.9940000  0  6 25 15 14 21 31  1
  19208656.354   -22562555.883 7 -17491758.735 9
  19469267.127   -20552696.704 7 -15919936.340 8
  22508703.080    -3180948.095 4  -2325662.446 3
  20728226.760   -17889634.362 6 -13771972.187 6
  22882013.104    -6520278.188 3  -4820535.881 1
  20141778.361   -22516278.248 7 -17445982.396 8
 94  2 13 15 35 29.9940000  0  6 25 15 14 21 31  1
  19196763.158   -22625067.528 7 -17540469.111 9
  19455994.869   -20622422.467 7 -15974268.110 8
  22489540.080    -3281634.570 3  -2404119.445 3
  20737689.729   -17839883.193 6 -13733205.114 6
  22893566.822    -6459593.280 3  -4773249.010 2
  20151641.908   -22464446.235 7 -17405593.844 8
 94  2 13 15 35 59.9940000  0  6 25 15 14 21 31  1
  19184949.775   -22687138.747 7 -17588836.301 9
  19442818.041   -20691661.527 7 -16028220.640 8
  22470366.479    -3382393.361 4  -2482632.800 2
  20747201.775   -17789912.508 6 -13694266.991 6
  22905108.416    -6398938.332 3  -4725985.489 2
  20161527.010   -22412499.203 7 -17365115.657 8
 94  2 13 15 36 29.9940000  0  6 25 15 14 21 31  1
  19173221.815   -22748763.066 7 -17636855.259 9
  19429739.643   -20760411.481 7 -16081792.036 8
  22451181.229    -3483210.058 4  -2561191.270 4
  20756756.174   -17739715.817 6 -13655152.756 6
  22916642.525    -6338321.582 3  -4678751.753 3
  20171430.502   -22360441.784 7 -17324551.469 8
 94  2 13 15 36 59.9940000  0  6 25 15 14 21 31  1
  19161587.807   -22809918.035 7 -17684508.483 9
  19416745.947   -20828666.692 7 -16134977.932 8
  22431987.338    -3584083.198 4  -2639793.748 4
  20766349.666   -17689295.489 6 -13615864.256 5
  22928170.104    -6277756.523 3  -4631558.298 2
  20181353.682   -22308297.808 7 -17283919.824 8
 94  2 13 15 37 29.9940000  0  6 25 15 14 21 31  1
  19150037.604   -22870594.623 7 -17731788.954 9
  19403855.674   -20896428.078 7 -16187779.017 8
  22412780.971    -3685025.028 5  -2718449.745 3
  20775986.877   -17638662.092 6 -13576409.728 5
  22939680.260    -6217261.027 3  -4584419.018 2
  20191288.721   -22256090.230 7 -17243238.623 8
 94  2 13 15 37 59.9940000  0  6 25 15 14 21 31  1
  19138586.799   -22930776.690 7 -17778684.076 9
  19391054.275   -20963690.069 7 -16240190.965 8
  22393559.682    -3786022.554 5  -2797149.101 4
  20785661.893   -17587816.610 6 -13536789.936 5
  22951181.244    -6156809.747 3  -4537314.224 2
  20201234.377   -22203828.540 7 -17202515.257 8
 94  2 13 15 38 29.9940000  0  6 25 15 14 21 31  1
  19127227.900   -22990471.392 7 -17825199.430 9
  19378348.080   -21030452.755 7 -16292213.844 8
  22374330.650    -3887080.716 5  -2875895.731 4
  20795372.939   -17536772.454 6 -13497015.348 6
  22962678.658    -6096396.493 3  -4490239.032 4
  20211190.557   -22151515.803 7 -17161752.117 8
 94  2 13 15 38 59.9940000  0  6 25 15 14 21 31  1
  19115959.315   -23049679.359 7 -17871335.513 9
  19365743.377   -21096712.543 7 -16343844.861 8
  22355084.604    -3988211.150 4  -2954698.679 3
  20805121.010   -17485540.201 6 -13457094.180 6
  22974174.315    -6036028.159 3  -4443198.860 3
  20221158.525   -22099139.528 7 -17120939.468 8
 94  2 13 15 39 29.9940000  0  6 25 15 14 21 31  1
  19104787.666   -23108404.100 7 -17917095.053 9
  19353224.455   -21162469.200 7 -16395083.837 8
  22335824.361    -4089419.404 5  -3033562.250 4
  20814909.002   -17434117.698 6 -13417024.767 6
  22985644.838    -5975701.176 3  -4396190.905 2
  20231139.369   -22046675.958 7 -17080058.795 8
 94  2 13 15 39 59.9940000  0  6 25 15 14 21 31  1
  19093699.611   -23166650.197 7 -17962481.623 9
  19340812.971   -21227723.666 7 -16445931.484 8
  22316554.369    -4190695.314 5  -3112478.541 4
  20824732.346   -17382505.494 6 -13376807.539 5
  22997120.369    -5915429.249 3  -4349225.867 1
  20241142.971   -21994111.494 7 -17039099.507 8
 94  2 13 15 40 29.9940000  0  6 25 15 14 21 31  1
  19082714.111   -23224399.149 7 -18007480.807 9
  19328488.408   -21292467.528 7 -16496381.254 8
  22297274.049    -4292035.709 5  -3191445.103 4
  20834587.174   -17330699.587 6 -13336439.365 5
  23008577.158    -5855221.995 3  -4302311.195 2
  20251167.033   -21941440.608 7 -16998057.287 8
 94  2 13 15 40 59.9940000  0  6 25 15 14 21 31  1
  19071820.424   -23281628.922 7 -18052075.444 9
  19316269.783   -21356694.537 7 -16546428.285 8
  22277974.174    -4393432.718 5  -3270455.769 4
  20844487.369   -17278689.702 6 -13295912.248 5
  23020025.916    -5795070.305 3  -4255439.828 3
  20261208.861   -21888668.731 7 -16956936.368 7
 94  2 13 15 41 29.9940000  0  5 25 15 14 21  1
  19061026.135   -23338363.037 7 -18096283.843 9
  19304141.025   -21420415.356 7 -16596080.882 8
  22258668.885    -4494886.666 5  -3349510.789 4
  20854420.432   -17226485.472 6 -13255233.695 6
  20271263.588   -21835824.662 7 -16915759.212 8
 94  2 13 15 41 59.9940000  0  5 25 15 14 21  1
  19050322.205   -23394603.034 7 -18140107.224 9
  19292114.432   -21483622.918 7 -16645333.532 9
  22239356.479    -4596392.752 4  -3428606.482 3
  20864387.643   -17174086.083 6 -13214403.090 5
  20281329.729   -21782924.076 7 -16874538.002 7
 94  2 13 15 42 29.9940000  0  5 25 15 14 21  1
  19039717.025   -23450346.674 7 -18183543.834 9
  19280183.049   -21546316.783 7 -16694185.908 9
  22220023.377    -4697961.605 5  -3507751.056 4
  20874399.955   -17121489.710 6 -13173418.985 5
  20291408.322   -21729969.998 7 -16833275.121 8
 94  2 13 15 43 29.9930000  0  5 25 15 14 21  1
  19018777.817   -23560381.886 7 -18269285.571 9
  19256617.708   -21670150.026 7 -16790679.379 8
  22181333.958    -4901286.876 5  -3666186.355 4
  20894534.169   -17015670.939 6
  20311602.888   -21623850.742 7
 94  2 13 15 43 59.9930000  0  5 25 15 14 21  1
  19008443.341   -23614677.275 7 -18311593.679 9
  19244987.294   -21731287.774 7 -16838319.199 8
  22161965.802    -5003064.217 5  -3745493.387 4
  20904667.419   -16962436.316 6
  20321721.177   -21570666.558 7
 94  2 13 15 44 29.9930000  0  5 25 15 14 21  1
  18998205.935   -23668488.889 7 -18353524.816 9
  19233448.896   -21791896.769 7 -16885547.004 8
  22142585.349    -5104910.292 5  -3824853.964 4
  20914841.505   -16908974.760 6 -13007823.252 5
  20331861.403   -21517381.237 7 -16667621.670 7
 94  2 13 15 44 59.9930000  0  5 25 15 14 21  1
  18988051.966   -23721833.546 7 -18395092.095 9
  19222021.028   -21851978.675 7 -16932364.093 8
  22123189.231    -5206831.116 5  -3904272.790 5
  20925056.200   -16855285.403 6 -12965987.476 5
  20342016.192   -21464014.366 7 -16626037.143 7
 94  2 13 15 45 29.9930000  0  5 25 15 14 21  1
  18977991.474   -23774711.236 7 -18436295.503 9
  19210684.880   -21911533.136 7 -16978770.187 8
  22103780.263    -5308829.596 5  -3983752.125 4
  20935314.271   -16801378.111 6 -12923981.884 5
  20352184.083   -21410585.456 7 -16584404.243 7
 94  2 13 15 45 59.9930000  0  5 25 15 14 21  1
  18968021.513   -23827115.013 7 -18477129.626 9
  19199451.146   -21970559.056 7 -17024764.435 8
  22084355.013    -5410908.916 5  -4063294.472 4
  20945613.731   -16747267.254 6 -12881817.652 5
  20362362.028   -21357102.253 7 -16542729.055 7
 94  2 13 15 46 29.9930000  0  5 25 15 14 21  1
  18958140.106   -23879032.632 7 -18517584.926 9
  19188323.521   -22029049.194 7 -17070341.184 8
  22064917.419    -5513045.073 5  -4142881.059 4
  20955947.239   -16692952.860 6 -12839494.829 5
  20372549.200   -21303569.987 7 -16501015.645 7
 94  2 13 15 46 59.9930000  0  5 25 15 14 21  1
  18948354.192   -23930443.738 7 -18557645.545 9
  19177297.614   -22087005.873 7 -17115502.260 8
  22045472.114    -5615238.842 5  -4222512.606 5
  20966320.692   -16638449.764 6 -12797024.975 5
  20382741.489   -21250003.680 7 -16459275.701 7
 94  2 13 15 47 29.9930000  0  5 25 15 14 21  1
  18938670.794   -23981337.641 7 -18597303.142 9
  19166366.192   -22144432.689 7 -17160250.450 8
  22026020.411    -5717481.780 5  -4302182.420 5
  20976725.271   -16583780.260 6 -12754425.453 5
  20392946.896   -21196381.926 7 -16417492.556 7
 94  2 13 15 47 59.9930000  0  5 25 15 14 21  1
  18929089.052   -24031703.306 7 -18636549.122 9
  19155536.802   -22201325.954 7 -17204582.878 8
  22006555.325    -5819757.868 5  -4381878.085 5
  20987157.294   -16528938.155 6 -12711691.431 5
  20403162.919   -21142700.361 7 -16375662.807 7
 94  2 13 15 48 29.9930000  0  5 25 15 14 21  1
  18919604.646   -24081538.317 7 -18675381.609 9
  19144816.802   -22257680.414 7 -17248495.465 8
  21987086.997    -5922058.771 5  -4461593.085 5
  20997627.677   -16473905.444 6 -12668808.892 5
  20413388.208   -21088961.775 7 -16333788.632 7
 94  2 13 15 48 59.9930000  0  5 25 15 14 21  1
  18910219.028   -24130845.162 7 -18713802.538 9
  19134196.435   -22313500.034 7 -17291991.299 8
  21967612.200    -6024402.535 5  -4541341.482 5
  21008139.591   -16418686.025 6 -12625780.869 5
  20423625.653   -21035163.342 7 -16291867.825 7
 94  2 13 15 49 29.9930000  0  5 25 15 14 21  1
  18900935.739   -24179640.800 7 -18751825.116 9
  19123674.567   -22368784.627 7 -17335070.220 8
  21948129.442    -6126793.837 5  -4621126.927 4
  21018684.817   -16363250.311 6 -12582584.309 5
  20433874.700   -20981310.884 7 -16249904.921 7
 94  2 13 15 49 59.9930000  0  5 25 15 14 21  1
  18891749.310   -24227930.127 7 -18789453.170 9
  19113253.317   -22423532.704 7 -17377731.075 8
  21928632.052    -6229240.993 5  -4700955.897 5
  21029283.638   -16307571.189 6 -12539198.077 5
  20444125.528   -20927435.613 7 -16207924.242 7
 94  2 13 15 50 29.9930000  0  5 25 15 14 21  1
  18882654.044   -24275717.741 7 -18826690.277 9
  19102937.153   -22477739.603 7 -17419970.234 8
  21909123.106    -6331752.540 5  -4780835.043 5
  21039927.396   -16251644.171 5 -12495618.698 5
  20454383.028   -20873530.777 7 -16165920.530 7
 94  2 13 15 50 59.9930000  0  5 25 15 14 21  1
  18873655.981   -24323003.893 7 -18863536.631 9
  19092727.185   -22531407.082 7 -17461789.068 8
  21889605.317    -6434327.240 5  -4860763.376 5
  21050611.255   -16195477.295 5 -12451852.404 5
  20464647.575   -20819589.779 7 -16123888.638 7
 94  2 13 15 51 29.9930000  0  5 25 15 14 21  1
  18864746.942   -24369809.309 7 -18900008.386 9
  19082618.403   -22584538.270 7 -17503190.015 8
  21870072.474    -6536966.544 5  -4940742.066 5
  21061345.200   -16139081.940 5 -12407908.076 5
  20474916.942   -20765626.133 7 -16081839.100 7
 94  2 13 15 51 59.9930000  0  5 25 15 14 21  1
  18855931.966   -24416129.535 7 -18936102.069 9
  19072611.091   -22637128.226 7 -17544169.224 8
  21850534.130    -6639666.053 5  -5020767.670 5
  21072114.396   -16082496.312 5 -12363815.483 5
  20485192.146   -20711629.168 7 -16039763.606 7
 94  2 13 15 52 29.9930000  0  5 25 15 14 21  1
  18847209.763   -24461962.296 7 -18971815.913 9
  19062708.013   -22689175.796 7 -17584725.784 8
  21830975.778    -6742419.549 5  -5100835.341 5
  21082912.794   -16025747.313 5 -12319595.587 5
  20495475.396   -20657587.723 7 -15997653.437 7
 94  2 13 15 52 59.9930000  0  5 25 15 14 21  1
  18838582.817   -24507302.964 7 -19007146.305 9
  19052906.364   -22740677.272 7 -17624856.833 8
  21811413.372    -6845215.983 5  -5180936.457 5
  21093744.075   -15968839.705 5 -12275252.094 5
  20505768.981   -20603501.630 7 -15955508.490 7
 94  2 13 15 53 29.9930000  0  5 25 15 14 21  1
  18830047.200   -24552158.571 7 -19042098.726 9
  19043210.427   -22791634.685 7 -17664563.924 8
  21791842.146    -6948065.321 5  -5261078.809 5
  21104601.653   -15911791.001 5 -12230798.671 5
  20516067.755   -20549380.367 7 -15913336.140 7
 94  2 13 15 53 59.9930000  0  5 25 15 14 21  1
  18821608.700   -24596506.018 7 -19076655.178 9
  19033617.091   -22842047.259 7 -17703846.465 8
  21772262.325    -7050973.421 5  -5341266.936 5
  21115481.552   -15854599.048 5 -12186233.611 5
  20526372.888   -20495219.314 7 -15871132.779 7
 94  2 13 15 54 29.9930000  0  5 25 15 14 21  1
  18813268.380   -24640331.531 7 -19110804.939 9
  19024127.224   -22891911.558 7 -17742701.785 8
  21752672.302    -7153932.680 5  -5421494.950 5
  21126400.380   -15797235.058 5 -12141534.496 5
  20536687.060   -20441020.099 7 -15828899.686 7
 94  2 13 15 54 59.9930000  0  5 25 15 14 21  1
  18805028.974   -24683642.648 7 -19144553.873 9
  19014738.474   -22941233.307 7 -17781134.333 8
  21733062.083    -7256948.083 5  -5501766.708 5
  21137346.341   -15739701.387 5 -12096703.184 5
  20547007.372   -20386787.626 7 -15786640.678 7
 94  2 13 15 55 29.9930000  0  6 25 15 14 21 29  1
  18796887.802   -24726427.088 7 -19177892.409 9
  19005457.146   -22990006.279 7 -17819139.261 8
  21713456.606    -7360022.675 5  -5582084.578 5
  21148327.778   -15681984.166 5 -12051728.835 5
  22707910.771          -0.78312
  20557332.075   -20332528.009 7 -15744360.517 7
 94  2 13 15 55 59.9930000  0  6 25 15 14 21 29  1
  18788845.724   -24768683.500 7 -19210819.508 9
  18996280.021   -23038230.836 7 -17856716.860 9
  21693827.255    -7463141.534 5  -5662436.958 5
  21159353.263   -15624063.610 5 -12006596.047 5
  22689823.763      -95064.594 3
  20567663.716   -20278245.977 7 -15702062.892 7
 94  2 13 15 56 29.9930000  0  6 25 15 14 21 29  1
  18780899.825   -24810437.224 7 -19243354.886 9
  18987208.216   -23085911.558 7 -17893870.686 9
  21674195.403    -7566299.058 5  -5742819.459 5
  21170410.114   -15565946.693 5 -11961310.244 5
  22671755.903     -190030.478 3        -0.17111
  20577993.497   -20223954.509 7 -15659757.917 7
 94  2 13 15 56 59.9930000  0  6 25 15 14 21 29  1
  18773045.810   -24851699.061 7 -19275506.982 9
  18978242.028   -23133045.625 7 -17930598.555 8
  21654562.669    -7669497.516 5  -5823233.853 5
  21181507.763   -15507637.771 5 -11915874.848 5
  22653699.075     -284909.097 3    -73931.615 2
  20588326.208   -20169651.772 7 -15617444.152 7
 94  2 13 15 57 29.9930000  0  6 25 15 14 21 29  1
  18765288.349   -24892465.912 7 -19307273.374 9
  18969376.161   -23179632.395 7 -17966899.957 9
  21634912.208    -7772737.244 5  -5903680.401 5
  21192638.677   -15449129.985 5 -11870284.491 5
  22635662.583     -379710.815 3   -147803.151 4
  20598660.450   -20115347.307 6 -15575129.036 7
 94  2 13 15 57 59.9930000  0  6 25 15 14 21 29  1
  18757626.036   -24932747.331 7 -19338661.510 9
  18960611.677   -23225671.083 7 -18002774.278 9
  21615260.653    -7876009.493 5  -5984152.295 5
  21203808.786   -15390427.784 5 -11824542.639 5
  22617638.028     -474439.920 3   -221618.086 2
  20608998.442   -20061030.912 6 -15532804.631 7
 94  2 13 15 58 29.9930000  0  6 25 15 14 21 29  1
  18750049.935   -24972544.618 7 -19369672.403 9
  18951957.731   -23271160.956 7 -18038220.949 8
  21595601.919    -7979329.875 5  -6064661.694 5
  21215018.271   -15331543.785 5 -11778659.122 5
  22599621.083     -569103.007 4   -295381.566 3
  20619337.396   -20006696.590 6 -15490466.255 7
 94  2 13 15 58 59.9930000  0  6 25 15 14 21 29  1
  18742571.005   -25011846.397 7 -19400297.180 9
  18943406.958   -23316107.327 7 -18073244.121 8
  21575927.372    -8082720.206 5  -6145225.599 5
  21226257.419   -15272476.785 5 -11732633.008 5
  22581616.833     -663700.150 3   -369093.655 3
  20629677.325   -19952351.839 6 -15448119.748 7
 94  2 13 15 59 29.9930000  0  6 25 15 14 21 29  1
  18735193.013   -25050636.366 7 -19430523.145 9
  18934954.278   -23360504.041 7 -18107838.985 8
  21556238.817    -8186184.582 5  -6225847.206 5
  21237532.685   -15213225.723 5 -11686463.467 5
  22563635.153     -758218.449 3   -442744.295 2
  20640022.911   -19897990.994 6 -15405760.705 7
 94  2 13 15 59 59.9930000  0  6 25 15 14 21 29  1
  18727906.146   -25088914.510 7 -19460350.287 9
  18926612.200   -23404348.334 7 -18142003.393 8
  21536538.856    -8289722.461 5  -6306526.077 5
  21248840.903   -15153797.381 5 -11640155.778 5
  22545663.075     -852653.738 3   -516330.271 2
  20650371.239   -19843610.507 7 -15363386.352 7
 94  2 13 16  0 29.9930000  0  6 25 15 14 21 29  1
  18720722.716   -25126669.292 7 -19489769.610 9
  18918375.653   -23447642.331 7 -18175739.000 8
  21516820.028    -8393342.857 5  -6387269.249 5
  21260183.450   -15094196.557 5 -11593713.708 5
  22527708.349     -947009.010 3   -589853.881 2
  20660721.255   -19789220.717 6 -15321004.758 7
 94  2 13 16  0 59.9930000  0  6 25 15 14 21 29  1
  18713638.786   -25163900.434 7 -19518780.896 9
  18910237.771   -23490384.484 7 -18209044.601 8
  21497081.646    -8497037.485 5  -6468070.270 5
  21271558.161   -15034421.671 5 -11547135.980 5
  22509772.786    -1041271.901 4   -663305.491 2
  20671072.692   -19734825.850 6 -15278619.206 6
 94  2 13 16  1 29.9930000  0  6 25 15 14 21 29  1
  18706649.630   -25200615.591 7 -19547390.117 9
  18902215.911   -23532568.162 7 -18241915.032 9
  21477347.091    -8600774.053 5  -6548903.971 5
  21282964.091   -14974478.593 5 -11500427.217 5
  22491845.669    -1135447.270 3   -736688.877 3
  20681428.021   -19680419.880 6 -15236224.996 7
 94  2 13 16  1 59.9930000  0  6 25 15 14 21 29  1
  18699761.778   -25236830.404 7 -19575609.462 9
  18894288.583   -23574200.069 7 -18274355.502 9
  21457599.677    -8704536.424 5  -6629757.785 5
  21294401.497   -14914374.398 5 -11453592.912 5
  22473942.122    -1229545.679 3   -810012.336 1
  20691778.380   -19626007.916 6 -15193826.115 6
 94  2 13 16  2 29.9930000  0  6 25 15 14 21 29  1
  18692960.372   -25272543.728 7 -19603438.032 9
  18886476.396   -23615277.207 7 -18306363.694 9
  21437850.185    -8808323.682 5  -6710630.984 5
  21305874.560   -14854096.397 5 -11406623.161 5
  22456056.997    -1323550.046 3   -883262.505 1
  20702137.614   -19571583.584 6 -15151417.593 7
 94  2 13 16  2 59.9930000  0  6 25 15 14 21 29  1
  18686262.333   -25307768.421 7 -19630885.849 9
  18878762.294   -23655796.934 7 -18337937.538 9
  21418094.247    -8912132.405 5  -6791520.902 5
  21317376.685   -14793642.166 5 -11359516.100 5
  22438188.208    -1417449.959 3   -956431.299 3
  20712494.153   -19517150.173 6 -15109001.999 7
 94  2 13 16  3 29.9930000  0  6 25 15 14 21 29  1
  18679651.685   -25342502.727 7 -19657951.546 9
  18871160.138   -23695752.790 7 -18369072.006 9
  21398338.810    -9015956.494 5  -6872422.805 5
  21328916.950   -14733013.849 5 -11312273.389 5
  22420335.950    -1511250.393 3  -1029522.551 1
  20722853.755   -19462712.531 6 -15066583.119 7
 94  2 13 16  3 59.9930000  0  6 25 15 14 21 29  1
  18673133.591   -25376739.737 7 -19684629.743 9
  18863665.802   -23735147.369 7 -18399769.107 9
  21378573.396    -9119825.414 5  -6953359.647 5
  21340486.622   -14672207.389 5 -11264891.886 4
  22402504.653    -1604959.387 3  -1102542.618 1
  20733211.958   -19408284.907 6 -15024172.035 7
 94  2 13 16  4 29.9930000  0  6 25 15 14 21 29  1
  18666718.153   -25410468.792 7 -19710912.137 9
  18856272.208   -23773980.186 7 -18430028.475 9
  21358795.208    -9223761.981 5  -7034349.185 5
  21352092.310   -14611221.931 5 -11217370.880 4
  22384686.966    -1698584.109 3  -1175496.983 2
  20743563.349   -19353888.468 6 -14981785.255 7
 94  2 13 16  4 59.9930000  0  6 25 15 14 21 29  1
  18660396.005   -25443688.011 7 -19736797.260 9
  18848990.692   -23812252.203 7 -18459850.850 9
  21339004.692    -9327756.329 5  -7115383.746 5
  21363724.771   -14550073.391 5 -11169722.795 4
  22366882.247    -1792146.220 3  -1248402.551 2
  20753907.700   -19299528.216 6 -14939426.678 7
 94  2 13 16  5 29.9930000  0  6 25 15 14 21 29  1
  18654171.974   -25476384.258 7 -19762274.866 9
  18841819.521   -23849953.600 7 -18489228.591 9
  21319207.708    -9431793.031 5  -7196451.318 5
  21375398.052   -14488755.418 5 -11121942.704 4
  22349094.427    -1885638.611 3  -1321253.809 2
  20764248.255   -19245189.579 6 -14897084.937 7
 94  2 13 16  5 59.9930000  0  6 25 15 14 21 29  1
  18648050.802   -25508556.182 7 -19787343.916 9
  18834752.364   -23887088.627 7 -18518165.006 9
  21299399.333    -9535874.665 5  -7277553.909 5
  21387101.692   -14427258.498 5 -11074023.162 3
  22331321.466    -1979051.052 3  -1394042.772 2
  20774583.091   -19190868.129 6 -14854756.587 7
 94  2 13 16  6 29.9930000  0  6 25 15 14 21 29  1
  18642027.075   -25540221.859 7 -19812018.485 9
  18827789.396   -23923659.095 7 -18546661.507 9
  21279586.802    -9639982.338 5  -7358676.773 5
  21398831.700   -14365587.628 5 -11025968.080 5
  22313560.005    -2072365.242 4  -1466755.161 1
  20784918.380   -19136553.627 6 -14812433.651 7
 94  2 13 16  6 59.9930000  0  6 25 15 14 21 29  1
  18636098.021   -25571383.917 7 -19836300.631 9
  18820938.278   -23959657.133 7 -18574711.950 9
  21259778.310    -9744099.658 5  -7439807.159 5
  21410600.356   -14303743.314 5 -10977777.839 5
  22295825.419    -2165563.837 4  -1539377.482 1
  20795258.294   -19082226.842 6 -14770101.142 6
 94  2 13 16  7 29.9930000  0  6 25 15 14 21 29  1
  18630263.247   -25602049.849 7 -19860196.176 9
  18814197.653   -23995083.617 7 -18602317.031 9
  21239957.888    -9848238.900 6  -7520954.648 5
  21422401.130   -14241720.667 5 -10929448.649 4
  22278112.919    -2258644.881 3  -1611908.199 2
  20805597.817   -19027894.497 6 -14727764.300 6
 94  2 13 16  7 59.9930000  0  6 25 15 14 21 29  1
  18624521.513   -25632213.487 7 -19883700.338 9
  18807566.677   -24029940.716 7 -18629478.437 9
  21220137.833    -9952408.168 6  -7602125.517 6
  21434244.349   -14179517.529 5 -10880978.802 5
  22260421.200    -2351622.030 4  -1684357.957 1
  20815936.700   -18973554.860 6 -14685421.778 6
 94  2 13 16  8 29.9930000  0  6 25 15 14 21 29  1
  18618878.325   -25661873.124 7 -19906811.769 9
  18801041.130   -24064227.127 7 -18656195.149 9
  21200308.950   -10056607.908 6  -7683320.144 6
  21446111.692   -14117139.477 5 -10832372.680 4
  22242744.505    -2444502.428 5  -1756732.335 2
  20826280.411   -18919207.176 6 -14643072.995 6
